GFSGL_prec_cloud_003.txt.gz
Cloud_Cover
0 0 0 0 0 0 0 0 0 0 0 3 5 79 84 29 74 52 14 29 100 100 84 91 93 100 100 100 100 100 100 100 100 100 100 100 100 74 98 73 98 95 14
0 0 0 0 0 0 0 0 0 0 3 5 5 26 6 57 5 18 46 37 76 47 98 100 100 100 93 100 100 100 100 100 100 100 100 100 100 100 100 100 98 16 99
0 0 0 0 0 0 0 0 0 0 5 5 5 0 5 19 17 92 100 89 100 72 48 72 98 100 100 100 100 100 100 100 100 100 100 100 100 100 98 61 91 100 100
0 0 0 0 0 0 0 1 0 0 71 10 0 0 0 0 9 51 79 100 100 96 100 100 100 100 100 100 100 100 100 100 100 100 100 100 100 100 52 95 100 100 100
0 0 0 0 0 0 0 1 0 1 5 5 5 13 66 98 5 4 9 5 44 98 95 100 60 95 100 98 100 100 100 100 100 100 100 100 100 100 100 100 100 5 2
0 0 0 0 0 0 0 39 51 5 5 5 24 97 100 66 0 33 100 100 5 30 60 100 95 85 95 100 100 100 100 100 100 100 100 100 100 100 100 100 16 5 0
0 0 0 0 0 8 54 69 56 35 20 60 17 76 88 56 0 34 100 100 12 90 100 100 72 51 90 99 86 100 100 100 100 100 100 100 100 88 2 2 4 0 0
0 0 0 0 58 100 98 39 72 21 71 96 100 88 5 1 3 76 100 98 36 100 80 81 8 8 41 56 100 95 95 100 100 97 100 100 61 6 2 1 0 0 0
0 0 0 46 60 100 100 87 76 41 100 100 87 48 5 61 91 75 100 85 95 100 100 15 30 62 96 100 98 100 100 100 100 58 44 0 0 0 3 0 0 0 0
0 0 0 93 100 100 89 89 93 100 100 100 98 95 100 84 93 13 16 99 100 100 25 6 5 11 7 6 5 5 5 4 11 3 15 16 0 0 0 0 0 78 84
3 3 14 86 100 100 100 73 100 100 100 96 77 98 33 60 33 87 100 96 54 33 5 5 45 5 16 5 32 4 0 12 0 0 0 0 82 43 26 37 47 28 0
0 72 62 86 88 99 88 100 90 86 100 80 23 84 53 38 16 68 100 100 31 5 4 7 28 94 4 32 42 0 0 0 3 3 9 89 47 2 0 0 0 0 0
98 100 99 100 100 100 62 58 38 71 89 63 78 71 96 37 6 82 100 100 98 18 22 33 5 9 5 11 1 0 4 6 40 46 92 11 0 0 0 0 5 0 0
72 97 100 100 100 100 82 100 100 40 49 92 57 16 3 4 21 83 7 18 68 44 26 0 0 0 0 9 1 10 80 52 39 21 0 0 0 0 0 0 5 0 0
100 100 100 100 95 100 93 64 34 28 77 28 26 2 8 29 32 0 2 15 74 53 0 19 6 15 34 78 71 100 100 100 26 0 0 0 0 0 0 0 0 0 2
100 100 100 94 100 60 54 87 82 78 97 73 39 47 12 46 1 0 0 0 0 0 0 0 2 38 92 100 100 100 82 57 12 1 0 0 0 0 0 0 0 0 4
100 100 100 100 88 58 28 34 14 33 7 3 0 0 0 0 0 0 0 8 3 22 0 0 10 19 49 27 14 14 6 5 5 5 5 0 0 4 0 0 0 0 5
100 100 100 100 100 100 100 100 29 4 0 0 41 7 23 0 0 0 0 38 8 28 9 48 88 86 98 81 13 5 5 5 5 5 5 1 0 0 0 0 0 0 0
100 100 94 100 100 89 100 100 59 78 97 16 0 0 9 2 0 3 10 4 16 65 88 96 99 78 11 4 0 5 5 5 5 2 0 0 0 0 0 0 0 0 0
100 96 53 64 38 79 0 0 4 5 14 2 29 0 3 0 39 55 10 95 100 100 100 98 5 5 3 0 5 4 0 0 0 0 0 0 0 0 0 0 0 0 1
100 21 0 88 11 6 4 5 35 73 97 100 100 21 100 64 4 92 100 35 20 8 42 21 6 2 0 0 0 0 0 0 0 0 0 0 0 0 0 0 0 0 1
97 30 48 99 100 1 5 5 65 90 42 96 58 46 7 0 21 100 97 53 100 70 100 62 8 4 0 0 0 0 0 0 0 0 0 0 0 0 0 0 0 0 3
100 100 100 25 7 54 42 32 92 31 74 68 34 40 14 21 100 99 54 100 100 100 83 18 5 1 1 0 0 0 0 0 0 0 0 0 0 0 0 0 0 0 0
100 100 91 78 63 97 84 70 63 43 10 80 50 59 93 100 85 100 100 100 100 99 100 87 5 0 1 0 0 0 0 0 0 0 0 0 0 0 0 0 0 0 0
100 26 41 62 100 76 85 15 90 100 85 38 74 80 71 28 92 100 81 30 52 83 54 97 16 0 0 0 0 0 0 0 0 37 0 0 0 0 0 0 0 0 0
100 100 94 97 60 38 7 15 22 52 84 98 73 66 60 48 5 8 11 5 95 100 100 92 28 5 2 0 0 0 0 0 0 0 0 0 0 0 0 0 0 0 0

GFSGL_prec_cloud_006.txt.gz
Cloud_Cover
0 0 0 0 0 0 0 0 0 0 0 0 0 0 0 0 0 0 0 0 0 1 2 5 5 19 5 6 59 95 87 100 100 100 100 100 100 100 100 100 100 100 100
0 0 0 0 0 0 0 0 0 0 0 0 0 0 0 0 0 0 1 0 0 0 6 5 54 96 100 100 100 80 99 100 100 100 100 100 100 100 100 100 100 100 100
0 0 0 0 0 0 0 0 0 0 0 0 0 0 0 0 4 5 5 2 1 3 0 31 5 34 100 100 98 14 37 100 100 100 100 100 100 100 100 100 100 100 100
0 0 0 0 0 0 0 0 0 0 0 0 0 0 5 1 3 5 4 4 0 0 0 99 5 13 59 35 96 86 50 100 100 100 100 100 100 100 96 100 100 100 100
0 0 0 0 0 0 0 0 0 0 2 0 4 4 5 5 10 59 25 5 4 4 28 100 28 11 73 92 36 99 93 99 98 94 100 100 100 100 100 100 100 100 100
0 0 0 0 0 0 0 0 0 4 50 64 54 5 65 100 5 5 5 5 68 100 76 100 7 37 100 88 92 32 28 5 7 60 96 100 100 100 100 100 100 100 100
0 0 0 0 0 0 0 0 0 10 58 63 7 55 18 95 86 5 2 30 88 100 99 100 74 69 100 87 19 35 68 92 98 21 62 100 100 100 100 100 100 100 79
0 0 0 0 0 0 0 0 13 60 80 84 63 72 83 33 100 7 3 84 100 100 11 85 82 100 100 7 31 59 83 100 69 20 19 46 95 87 70 48 4 1 0
0 0 0 0 0 0 0 25 40 86 100 100 100 92 61 6 100 8 53 100 100 49 97 98 47 33 48 46 12 5 5 3 4 5 49 99 68 7 0 0 0 0 4
0 0 5 5 5 48 49 24 43 100 69 31 97 100 94 57 90 71 52 67 51 81 87 14 13 5 5 5 27 86 26 5 4 2 0 3 0 0 0 16 0 0 0
5 0 4 11 51 39 24 95 98 14 99 97 100 100 100 83 44 74 24 64 31 2 2 4 79 23 4 32 100 36 4 4 0 0 0 0 0 2 82 100 23 0 0
1 0 2 40 12 96 100 98 100 100 100 100 96 34 6 4 38 100 100 99 12 2 4 40 54 12 5 2 39 5 38 4 0 0 0 0 3 99 52 2 0 0 0
0 1 28 24 93 100 46 98 100 100 100 6 25 5 5 100 100 100 40 70 98 16 24 44 32 5 5 4 0 0 0 0 0 0 0 36 63 5 0 0 0 0 0
5 21 100 99 83 98 82 95 49 100 84 99 11 2 5 4 4 34 10 87 88 42 2 5 5 5 0 4 0 0 0 0 5 5 5 5 5 5 2 0 0 0 0
100 97 66 92 100 94 100 100 100 100 95 83 5 5 3 0 3 5 1 0 0 2 3 0 0 0 0 0 61 100 100 100 100 83 28 12 3 0 0 0 0 0 0
86 83 100 81 100 100 51 67 100 95 22 48 62 24 11 26 14 3 0 0 0 0 0 0 0 0 43 100 100 100 100 100 96 14 5 5 5 3 0 4 5 0 0
100 100 97 100 100 100 80 100 100 98 100 98 60 57 9 0 0 0 0 0 0 0 0 0 0 29 64 63 91 99 100 52 2 5 5 5 5 0 0 0 0 0 0
100 100 94 95 85 100 99 85 100 79 95 31 67 8 21 0 0 0 0 0 0 0 0 0 1 30 8 47 51 5 3 0 5 5 2 0 0 0 0 0 0 0 0
88 63 100 100 100 100 100 100 98 67 100 52 5 5 7 0 0 0 10 0 0 0 8 100 100 4 0 1 5 5 3 2 0 0 0 0 0 0 0 0 0 0 0
100 100 100 100 100 100 100 44 15 26 85 100 72 5 0 0 0 0 0 0 0 0 1 22 55 4 4 5 3 0 0 0 0 0 0 0 0 0 0 0 0 0 0
100 100 100 100 100 100 100 95 50 12 31 60 9 1 0 0 0 0 0 0 12 0 7 27 4 14 0 0 0 0 0 0 0 0 0 0 0 0 0 0 0 0 0
100 100 100 100 100 99 64 80 92 69 51 48 10 65 6 0 0 26 75 88 100 34 64 98 51 8 75 47 0 0 0 0 0 0 0 0 0 0 0 0 0 0 0
100 100 100 88 68 76 98 100 100 100 100 100 93 0 2 0 3 65 100 100 95 54 93 100 90 0 0 0 0 0 0 0 0 0 0 0 0 0 0 0 0 0 0
100 100 100 100 41 88 100 95 28 89 80 47 1 7 14 95 100 5 75 77 98 37 100 37 93 100 12 0 0 0 0 0 0 0 0 0 0 0 0 0 0 0 0
100 100 100 80 87 49 99 96 100 63 44 95 100 80 2 21 0 0 0 1 62 11 45 4 81 98 0 0 0 0 0 0 0 0 0 0 0 0 0 0 0 0 0
100 93 85 100 98 26 81 78 94 100 100 100 85 26 33 7 8 0 1 0 0 0 0 3 38 92 1 0 0 0 0 0 0 0 0 0 0 0 0 0 0 0 0

GFSGL_prec_cloud_009.txt.gz
Cloud_Cover
0 0 0 0 0 0 0 0 0 0 0 0 0 0 0 0 11 15 4 5 3 2 0 0 0 0 2 4 8 94 41 75 6 14 5 5 10 87 100 100 100 100 100
0 0 0 0 0 0 0 0 0 0 0 0 0 0 0 0 0 5 5 5 5 1 0 2 10 1 81 5 5 62 89 56 21 5 30 94 85 98 100 100 100 100 100
0 0 0 0 0 0 0 0 0 0 0 0 0 0 0 0 0 5 5 3 5 5 0 80 100 54 71 6 12 82 58 35 43 41 66 22 18 98 41 69 80 97 100
0 0 0 0 0 0 0 0 0 0 0 0 0 0 5 5 5 5 5 5 3 2 1 70 100 94 66 82 30 99 100 100 100 100 32 24 5 5 45 33 44 46 98
0 0 0 0 0 0 0 0 0 0 0 0 0 0 0 4 25 5 33 5 42 1 2 74 100 100 70 94 20 88 100 100 100 78 91 5 5 5 12 79 81 100 93
0 0 0 0 0 0 0 0 0 0 0 5 5 0 0 0 5 5 5 5 17 3 1 88 100 100 11 97 27 100 100 100 96 56 96 61 7 6 5 5 5 5 59
0 0 0 0 0 0 0 0 0 0 2 5 7 66 13 8 17 6 0 0 5 0 48 97 83 100 18 79 79 93 95 57 58 78 36 5 6 7 5 5 4 3 25
0 0 0 0 0 0 0 0 5 5 4 0 79 100 92 81 94 98 1 0 3 0 86 100 77 58 100 100 90 99 100 100 78 8 5 39 14 3 0 0 0 0 0
5 5 4 0 1 1 2 5 5 10 43 100 100 100 100 100 100 100 95 16 62 99 100 100 86 62 100 38 39 72 88 97 35 23 38 5 0 3 5 0 0 0 0
0 3 2 5 5 4 1 5 23 32 100 100 100 100 100 100 100 88 83 72 100 100 41 5 72 100 15 54 5 5 13 90 60 5 5 3 3 36 1 0 1 1 55
0 0 0 0 0 2 13 16 70 63 27 12 100 91 91 100 100 100 99 89 80 79 95 59 17 58 52 33 7 5 6 43 31 5 0 0 0 0 0 3 36 83 12
0 0 8 39 47 16 5 5 64 22 88 74 94 100 100 100 99 52 15 6 32 99 8 1 34 40 53 27 17 5 5 0 0 0 0 0 0 3 69 82 46 35 36
15 72 85 63 52 16 21 36 29 34 62 10 65 100 29 53 9 12 4 17 99 14 1 35 98 60 17 5 4 0 0 0 0 0 2 5 79 76 46 16 21 2 0
95 95 98 100 66 35 10 17 69 7 39 36 25 24 19 12 19 27 84 100 99 82 8 37 14 4 0 0 0 0 0 0 4 5 4 5 11 69 65 3 0 0 0
90 82 100 100 68 100 86 74 89 89 36 5 12 5 16 28 28 28 85 46 54 26 3 0 0 0 0 0 0 0 0 6 3 0 4 5 5 5 5 5 5 0 0
100 100 100 100 99 39 54 100 99 58 5 28 97 96 27 42 83 84 89 82 33 5 0 0 0 0 1 5 5 0 0 2 2 2 4 5 3 0 1 0 0 0 0
100 100 100 100 42 85 100 100 100 98 92 24 80 69 46 14 90 42 58 5 5 1 0 0 0 0 0 1 4 32 0 0 1 1 5 1 0 0 0 0 0 0 0
100 100 100 72 72 99 87 100 99 58 55 100 100 100 100 99 100 95 19 5 5 4 5 17 0 0 0 0 0 0 0 0 0 0 0 0 0 0 0 0 0 0 0
52 14 7 10 95 98 100 100 100 100 100 100 100 100 100 100 100 99 5 5 5 21 3 0 0 19 21 2 0 0 0 0 0 0 0 0 0 0 0 0 0 0 0
51 47 22 87 100 100 100 100 100 100 100 100 100 100 100 100 15 20 57 57 5 2 0 0 0 86 51 0 0 1 1 0 0 0 0 0 0 0 0 0 0 0 0
100 100 90 100 100 100 100 98 94 47 100 100 100 100 22 5 87 100 75 8 1 5 2 0 9 51 16 0 0 0 0 0 0 0 0 0 0 0 0 0 0 0 0
100 100 100 100 100 100 100 100 100 100 97 80 100 100 5 100 100 90 4 1 0 1 4 96 30 25 53 0 0 0 0 0 0 0 0 0 0 0 0 0 0 0 0
100 100 100 100 100 100 99 69 76 93 85 100 96 95 100 100 11 2 10 92 22 17 99 100 60 52 100 80 0 0 0 0 0 0 0 0 0 0 0 0 0 0 0
100 100 100 100 100 100 100 100 100 100 100 23 94 100 99 53 4 5 27 100 21 51 16 73 21 100 76 91 94 1 0 0 0 0 0 0 0 0 0 0 0 0 0
100 100 100 100 100 100 100 100 100 92 74 100 100 80 37 26 10 81 100 89 5 5 0 0 0 38 100 94 5 0 0 0 0 0 0 0 0 0 0 0 0 0 0
100 100 100 100 100 100 100 100 100 100 100 100 100 99 30 100 100 100 85 44 5 2 0 0 0 0 0 0 0 0 0 0 0 0 0 0 0 0 0 0 0 0 0

GFSGL_prec_cloud_012.txt.gz
Cloud_Cover
0 0 0 0 0 0 0 0 0 0 0 0 0 0 0 0 0 0 5 5 5 5 5 0 0 0 2 0 5 5 5 5 7 68 79 34 5 5 7 5 23 99 87
0 0 0 0 0 0 0 0 0 0 0 0 0 0 0 0 0 0 5 5 5 5 5 1 0 1 5 97 8 65 5 5 5 22 10 10 39 62 5 7 5 5 72
0 0 0 0 0 0 0 0 0 0 0 0 0 0 5 5 5 0 5 5 5 5 4 5 0 8 30 73 98 58 32 45 43 100 85 53 100 99 6 5 5 5 5
0 0 0 0 0 0 0 0 0 0 0 0 0 0 4 5 4 5 68 48 6 32 4 0 0 0 12 5 100 18 22 8 98 100 100 100 100 71 5 5 5 5 5
0 0 0 0 0 0 0 0 0 0 0 0 0 5 0 0 3 43 94 100 95 5 0 0 2 4 78 0 78 5 5 8 100 100 100 88 47 69 10 12 5 5 5
0 0 0 0 0 0 0 0 0 0 0 0 0 5 5 86 100 100 100 99 100 18 2 0 0 60 54 42 100 80 34 10 98 53 56 24 16 99 100 88 5 0 0
0 0 0 0 0 0 0 0 3 0 12 1 0 3 71 100 100 100 100 33 72 68 1 0 0 93 45 54 80 22 5 40 98 100 76 69 83 87 5 4 0 0 1
0 0 0 0 0 0 0 0 34 36 29 2 8 0 96 100 100 100 100 100 100 58 7 7 2 91 92 56 5 34 61 34 77 100 100 88 84 78 20 5 4 0 0
0 0 0 4 1 0 0 0 26 47 47 20 5 4 99 100 100 100 100 100 100 20 0 1 54 87 97 22 74 98 5 47 66 81 98 38 36 34 14 35 22 0 0
0 2 0 0 3 5 0 0 1 18 44 51 38 67 56 91 100 100 100 34 3 2 31 92 100 91 26 40 100 100 97 98 100 92 7 21 2 0 0 6 0 0 2
5 3 0 0 0 2 2 7 45 55 38 69 81 100 40 29 100 100 61 4 21 97 100 100 100 91 82 76 88 24 54 100 71 49 0 1 0 0 2 13 52 100 62
5 4 0 0 0 25 88 80 62 55 68 100 100 100 98 100 100 39 75 44 26 99 100 92 44 39 100 60 51 27 6 4 0 0 0 0 4 19 6 4 12 4 10
74 97 2 5 1 47 83 81 100 80 87 100 100 100 100 100 76 29 5 8 99 100 100 38 98 100 100 62 5 0 0 0 0 0 0 0 0 0 0 1 0 0 0
11 8 98 72 100 92 76 79 84 100 100 100 100 100 100 100 100 53 75 77 90 93 52 80 58 55 6 5 5 0 0 0 0 0 0 0 0 0 1 0 0 2 1
100 100 100 100 100 100 100 100 100 100 100 100 100 100 100 94 28 27 99 100 100 54 37 17 8 5 5 5 1 0 0 0 0 0 0 0 0 0 0 0 0 0 0
100 100 100 100 100 100 100 100 100 100 100 100 100 100 98 79 100 100 100 100 100 82 33 5 7 64 20 4 4 0 0 0 0 0 0 0 0 0 0 0 0 0 0
100 100 100 100 100 100 100 100 100 100 100 100 100 94 88 49 100 100 100 100 100 29 99 8 5 45 0 0 3 4 0 0 0 0 0 0 0 0 0 0 0 0 0
100 100 100 100 92 100 100 94 100 100 100 100 85 46 88 100 100 78 100 100 94 100 90 14 48 18 0 0 21 8 0 0 0 0 0 0 0 0 0 0 0 0 0
100 100 93 81 7 6 0 63 100 100 88 20 31 100 100 100 100 100 100 100 100 100 99 100 95 5 0 1 7 2 0 0 0 0 0 0 0 0 0 0 0 0 0
100 100 78 35 44 46 44 6 24 27 91 100 100 100 100 100 100 100 100 100 100 96 82 5 82 21 0 0 2 0 0 0 0 0 0 0 0 0 0 0 0 0 0
100 100 86 89 34 28 24 78 100 100 100 100 100 100 96 100 98 91 61 70 5 60 5 32 41 5 1 62 97 34 0 0 0 0 0 0 0 0 0 0 0 0 0
100 100 53 100 100 100 67 96 100 100 100 100 100 100 84 94 100 58 7 100 100 100 52 5 54 99 14 8 3 18 5 0 0 0 0 0 0 0 0 0 0 0 0
100 100 100 100 100 100 100 100 98 100 100 100 100 100 100 100 89 11 97 100 100 100 94 100 100 100 100 100 92 20 0 0 0 0 0 0 0 0 0 0 0 0 0
100 100 100 100 60 73 96 100 100 100 100 100 100 100 100 100 82 100 100 100 100 100 100 42 37 5 23 16 99 13 2 0 0 0 0 0 0 0 0 0 0 0 0
94 100 98 99 100 100 100 100 100 100 100 100 100 100 100 100 100 100 100 100 100 38 58 63 5 62 68 49 93 76 4 0 0 0 0 0 0 0 0 0 0 0 0
100 90 53 41 100 100 100 100 100 100 100 100 96 100 100 100 98 100 100 100 94 96 45 25 100 39 4 2 1 0 5 0 0 0 0 0 0 0 0 0 0 0 0

GFSGL_prec_cloud_015.txt.gz
Cloud_Cover
0 0 0 0 0 0 0 0 0 0 0 0 0 0 0 0 0 1 0 4 48 91 8 77 68 25 6 37 4 2 4 5 5 90 47 5 6 5 5 5 5 5 5
0 0 0 0 0 0 0 0 0 0 0 0 0 0 0 0 0 0 0 96 100 92 100 100 7 9 5 20 12 2 5 5 5 5 12 100 27 74 11 5 5 5 5
0 0 0 0 0 0 0 0 0 0 0 0 0 0 0 0 0 0 0 96 100 100 100 100 76 100 43 5 5 0 5 5 5 22 70 15 6 13 58 56 5 5 5
0 0 0 0 0 0 0 0 0 0 0 0 0 0 0 0 0 0 0 100 100 100 100 100 100 100 100 11 5 0 5 26 100 100 20 100 25 11 100 22 5 5 6
0 0 0 0 0 0 0 0 0 0 0 0 0 0 0 0 0 0 15 100 100 100 100 100 100 100 100 16 50 27 5 9 85 8 85 97 78 100 84 5 10 33 9
0 0 0 0 0 0 0 0 0 0 0 0 0 0 0 0 0 0 49 100 100 100 100 100 100 100 100 75 77 94 5 4 15 18 53 42 50 93 26 6 5 5 8
0 0 0 0 0 0 0 0 0 0 0 0 0 0 0 0 0 8 9 100 100 100 100 100 97 99 100 100 99 98 8 17 10 5 9 57 34 72 96 88 8 5 7
4 4 0 0 0 0 23 13 13 6 30 38 0 0 0 0 3 4 81 99 100 100 100 100 99 100 100 92 100 88 88 1 33 27 5 15 72 94 14 65 79 43 50
4 35 87 29 0 0 15 42 54 68 86 57 8 0 0 2 50 12 99 96 90 98 100 97 100 100 100 47 43 81 29 36 89 63 16 27 70 90 82 93 98 95 51
11 100 76 92 5 2 0 30 66 100 100 94 41 7 7 20 99 56 100 100 100 100 100 100 100 100 98 100 86 100 14 19 98 89 84 51 5 0 0 3 5 20 1
97 100 84 100 88 98 5 28 63 100 100 100 92 87 34 19 68 74 79 100 100 100 100 100 100 100 100 51 30 26 75 24 5 4 2 2 0 0 0 0 0 2 6
100 100 100 75 20 100 80 57 98 100 100 100 100 100 98 52 67 100 100 100 100 100 100 100 98 98 95 99 99 63 92 1 0 0 0 0 0 0 0 0 0 0 2
100 94 24 100 59 100 100 100 100 100 100 100 100 100 100 100 100 100 100 100 100 100 100 100 100 100 100 100 80 44 3 5 0 2 0 0 0 0 0 0 0 0 0
0 6 66 8 5 98 100 100 100 100 100 100 100 100 100 100 100 100 100 100 100 100 100 100 100 95 39 22 13 5 5 3 0 0 0 0 0 0 0 0 0 0 0
3 0 17 99 100 100 100 100 100 100 100 100 100 100 100 100 100 100 100 100 100 100 100 100 100 100 97 5 5 7 10 0 0 0 0 5 0 0 0 0 0 0 0
0 5 83 98 100 100 100 100 100 100 100 100 100 100 100 100 100 100 100 100 100 100 100 100 100 100 91 5 10 76 2 3 1 4 2 0 0 0 0 0 0 0 0
99 100 100 100 100 100 100 100 100 100 100 100 100 100 100 100 100 100 100 100 100 100 100 100 100 100 82 5 5 0 5 5 5 8 0 0 0 0 0 0 0 0 0
100 100 100 100 100 100 100 100 100 100 100 100 100 100 100 100 100 100 100 100 100 100 100 100 100 99 25 5 4 17 16 4 15 1 0 0 0 0 0 0 0 0 0
100 100 100 100 100 100 100 100 100 100 100 100 100 100 100 100 100 100 100 100 100 100 100 100 100 43 5 11 3 6 16 23 5 4 0 0 0 0 0 0 0 0 0
100 100 100 100 100 100 100 100 100 100 100 100 100 100 100 100 100 100 100 100 100 100 100 100 53 5 5 12 17 12 72 100 11 2 1 0 0 0 0 0 0 0 0
100 100 100 100 100 100 100 100 100 100 100 100 100 100 100 100 100 100 100 74 69 98 96 97 9 82 24 100 22 26 9 93 5 5 3 0 0 0 0 0 0 0 0
100 100 100 100 100 100 100 100 100 100 100 100 98 100 97 100 100 100 100 54 68 37 6 85 32 100 95 26 5 78 75 20 5 5 0 0 0 0 0 0 0 0 0
100 100 100 100 100 100 100 100 100 100 100 100 100 100 100 100 96 99 100 16 4 8 36 97 100 95 56 100 100 100 84 52 7 2 0 0 0 0 0 0 0 0 0
100 100 100 100 100 100 100 100 100 84 100 100 100 100 100 100 93 87 80 98 100 100 100 98 85 99 100 88 43 78 85 80 4 0 0 0 0 0 0 0 0 0 0
100 100 100 100 100 100 100 100 100 100 100 100 100 100 100 98 100 91 99 100 96 19 70 91 57 9 9 48 12 52 100 89 5 3 5 3 3 0 0 0 0 0 0
100 100 100 100 100 100 85 88 100 100 100 100 100 100 100 100 100 100 90 18 69 83 100 100 24 12 18 81 99 66 100 82 5 5 5 5 2 5 0 0 0 0 0

GFSGL_prec_cloud_018.txt.gz
Cloud_Cover
0 0 0 0 0 0 0 0 0 0 0 0 0 0 0 0 0 0 0 0 0 31 55 100 100 100 75 100 39 99 100 95 9 72 29 6 6 5 5 5 5 5 24
0 0 0 1 0 0 0 0 0 0 0 0 0 0 0 0 0 0 0 0 0 46 76 30 25 26 5 43 27 100 100 92 5 5 5 5 56 5 5 5 5 5 5
5 5 18 14 0 0 0 0 0 0 0 0 0 0 0 0 0 0 0 0 0 2 80 100 98 100 99 65 5 99 100 96 50 74 56 5 5 5 5 5 5 47 5
3 0 3 2 0 0 0 0 0 0 0 0 0 0 0 0 0 0 0 0 0 5 91 100 100 100 100 98 100 100 100 100 100 38 7 5 16 33 5 5 4 5 5
0 0 0 0 0 0 0 0 0 0 0 0 0 0 0 0 0 0 0 0 3 5 67 100 100 100 100 100 100 100 100 100 97 50 6 5 5 11 5 39 9 94 98
0 0 0 1 5 1 0 0 0 0 0 0 0 0 0 0 0 0 0 0 46 70 100 87 100 100 100 100 100 100 100 100 78 7 5 5 11 16 97 100 90 100 100
53 5 0 0 0 0 0 0 0 0 0 0 0 0 0 0 3 5 0 0 2 52 96 100 100 100 100 100 100 100 100 100 96 54 8 11 5 94 74 6 7 5 5
0 0 5 20 15 0 0 0 0 0 0 5 0 0 0 0 5 5 5 0 14 26 16 100 100 100 95 100 100 100 100 88 88 70 31 18 45 6 5 5 13 50 72
3 0 0 4 10 5 5 4 0 0 2 0 20 10 0 0 10 10 5 27 55 34 100 100 100 100 87 97 100 100 100 98 57 88 8 38 53 47 47 96 87 96 26
0 23 100 86 14 4 89 100 52 5 18 53 79 23 32 32 87 87 84 65 96 100 100 100 100 99 100 96 100 100 75 100 100 22 23 62 6 5 30 2 0 0 0
79 30 66 9 66 87 98 77 62 86 69 94 100 100 34 71 100 67 29 100 100 100 100 100 100 100 99 100 100 66 100 84 100 100 96 5 5 5 1 0 0 0 0
5 5 6 77 92 70 86 44 92 99 91 88 100 100 100 100 100 100 99 100 100 100 100 100 100 100 100 100 86 100 87 86 86 100 98 6 5 5 5 0 0 0 0
5 5 4 0 100 99 100 94 100 90 67 98 99 100 100 100 100 100 100 100 100 100 100 100 100 100 100 100 100 100 100 100 100 99 15 91 6 5 2 0 0 0 0
20 5 92 24 5 36 97 45 90 100 98 92 100 100 100 100 100 100 100 100 100 100 100 100 97 100 100 100 100 100 100 100 100 100 9 100 44 9 0 0 0 0 0
1 0 1 2 0 1 32 48 85 77 98 99 100 100 100 100 100 100 100 100 100 100 100 100 100 100 100 100 100 100 100 100 100 100 48 90 25 5 0 0 0 0 0
61 97 4 0 0 13 99 100 100 97 100 100 100 100 100 100 100 100 100 100 100 100 100 100 100 100 100 100 100 100 100 100 100 100 100 100 21 1 0 0 0 0 0
96 98 100 25 80 100 100 100 100 100 100 100 100 100 100 100 100 100 100 100 100 100 100 100 100 100 100 100 100 100 100 100 100 100 100 80 0 0 0 0 0 0 0
26 100 100 100 100 100 100 100 100 100 100 100 100 100 100 100 100 100 100 100 100 100 100 100 100 100 100 100 100 100 100 100 100 100 18 7 0 0 0 0 0 0 0
100 100 100 100 100 100 100 100 100 100 100 100 100 100 100 100 100 100 100 100 100 100 100 100 100 100 100 100 100 100 100 100 61 4 0 0 0 0 0 0 0 0 0
100 100 100 100 92 100 100 100 100 100 100 100 100 100 100 100 100 100 100 100 100 100 100 100 100 100 100 100 100 100 100 18 4 3 4 5 4 5 0 0 0 0 0
100 100 100 100 100 100 100 100 100 100 100 100 100 100 100 100 100 100 100 100 100 100 100 100 100 100 100 100 100 100 83 52 5 0 0 5 5 0 4 4 3 0 0
100 100 100 100 100 100 100 100 100 100 100 100 100 100 100 100 100 100 100 100 100 100 100 100 100 100 100 100 100 100 96 100 64 2 4 4 2 2 5 0 0 0 0
100 100 98 100 100 100 100 100 100 100 100 100 100 100 100 100 100 100 100 100 100 100 100 100 100 100 98 68 100 18 21 90 76 5 0 4 5 0 0 2 0 0 0
100 100 100 100 100 100 100 100 100 100 100 100 100 100 100 100 100 100 100 100 100 100 100 100 88 19 45 50 57 31 93 85 23 2 5 5 4 0 4 1 4 0 0
100 100 100 100 100 100 100 100 100 100 100 100 100 100 100 100 100 100 100 100 100 100 100 100 100 98 84 41 72 100 42 15 42 6 1 0 2 5 5 0 5 0 0
100 100 100 100 100 100 100 100 100 100 100 100 100 100 100 100 100 100 100 100 100 100 93 100 100 78 27 76 100 92 99 100 96 6 5 5 5 5 9 2 0 0 0

GFSGL_prec_cloud_021.txt.gz
Cloud_Cover
0 0 0 0 0 0 0 0 0 0 0 0 0 0 0 0 0 0 0 0 0 0 0 4 5 58 88 5 5 5 5 4 96 94 93 6 5 5 2 5 2 5 5
0 0 0 0 0 0 0 2 0 0 0 0 0 0 0 0 0 0 0 0 0 0 0 5 18 27 75 56 5 6 100 93 100 100 99 35 73 5 5 4 1 5 5
0 1 9 0 1 0 86 100 0 0 0 0 0 0 0 0 0 0 0 0 0 0 1 6 93 17 33 91 100 99 100 100 90 100 36 16 60 10 8 5 28 5 29
0 0 7 57 80 5 1 15 3 0 0 0 0 0 0 0 0 0 0 0 0 2 12 88 59 53 100 100 84 100 100 100 100 100 6 5 69 5 5 98 72 46 97
0 0 0 0 0 0 0 0 0 0 0 0 0 0 0 0 0 0 0 0 0 0 25 15 80 99 100 100 100 100 100 100 100 100 13 26 66 17 38 38 85 55 67
0 0 0 0 0 0 0 0 0 0 0 0 0 0 0 0 0 0 0 0 0 0 5 95 100 100 100 6 99 99 22 89 14 5 4 5 5 6 63 46 65 100 32
25 100 68 19 1 1 0 0 0 0 0 0 0 0 0 0 0 0 0 0 0 2 66 78 100 100 42 68 100 5 16 16 4 4 6 5 58 5 80 40 98 100 100
92 100 76 3 12 3 0 0 0 0 0 0 0 0 0 0 0 0 0 0 0 89 100 100 56 15 66 100 45 55 6 37 6 6 5 86 53 52 95 100 100 100 100
1 31 1 3 4 2 0 5 5 5 20 5 0 0 0 0 0 0 2 0 90 100 100 64 13 53 100 96 94 99 95 5 42 51 63 100 93 100 80 51 100 100 94
0 5 1 1 4 3 5 6 33 11 5 5 7 2 0 0 22 18 34 8 100 100 100 100 100 87 100 100 99 100 22 20 58 37 100 100 100 100 100 100 100 100 84
0 0 0 0 0 5 5 18 7 25 18 22 69 5 7 19 20 38 41 100 100 99 99 100 100 100 100 100 96 83 19 17 45 100 100 100 100 100 100 100 100 100 24
0 0 0 0 0 0 0 0 11 19 18 39 86 71 93 100 94 93 100 36 66 91 100 100 100 100 100 100 100 49 54 46 100 100 100 100 100 100 100 100 100 41 1
0 0 0 0 1 4 1 2 46 63 33 56 100 100 100 100 98 100 100 100 85 100 100 100 100 100 100 100 100 100 98 100 98 100 100 100 100 100 100 100 100 65 5
0 0 0 0 4 7 1 14 55 63 91 90 100 98 69 95 100 100 100 99 100 100 100 100 100 100 100 100 100 100 100 100 100 100 100 100 100 100 100 100 100 92 4
0 0 4 5 4 4 1 2 16 5 57 100 64 97 78 100 100 100 100 100 100 100 100 100 100 100 100 100 100 100 100 100 100 100 100 100 100 100 100 100 94 5 0
0 0 0 0 0 0 0 9 96 89 81 79 84 75 98 100 100 100 100 100 100 100 100 100 100 100 100 100 100 100 100 100 100 100 100 100 100 100 100 100 18 6 3
0 10 2 55 0 0 46 100 100 100 100 100 100 100 100 100 100 100 100 100 100 100 100 100 100 100 100 100 100 100 100 100 100 100 100 100 100 100 100 44 5 5 5
11 96 64 48 83 96 100 100 100 100 93 100 100 100 100 100 100 100 100 100 100 100 100 100 100 100 100 100 95 100 100 100 100 100 100 100 100 100 96 7 12 3 5
0 37 52 0 2 7 43 100 88 99 100 100 100 100 100 100 100 100 100 100 100 100 100 100 100 100 100 78 100 100 100 94 100 100 100 100 100 100 70 5 6 10 0
46 83 41 27 4 5 97 68 5 66 95 100 100 100 100 100 100 100 100 94 99 100 100 100 100 100 100 100 100 100 100 100 100 100 100 100 100 10 25 54 6 5 2
100 100 87 67 76 61 100 20 9 100 100 100 100 100 100 100 100 100 100 100 100 100 100 100 100 100 100 100 88 100 100 100 100 100 100 98 17 12 14 99 19 5 5
100 100 100 100 100 96 100 54 39 100 100 100 100 100 100 100 100 100 100 100 100 100 100 100 100 100 100 100 100 100 100 100 100 100 74 50 54 14 36 25 5 5 5
23 97 100 100 100 100 100 100 100 100 100 100 100 100 100 100 100 100 100 100 100 100 100 100 100 53 62 100 100 100 100 37 72 100 100 100 100 46 22 6 5 54 72
49 42 38 54 82 97 97 98 100 100 100 100 100 100 100 100 100 100 100 100 100 100 100 100 100 71 99 100 100 100 100 100 100 100 94 31 7 5 7 10 12 95 60
100 100 100 100 100 99 100 75 100 100 100 100 100 100 100 100 100 100 100 100 100 100 100 100 100 100 100 100 100 100 100 98 30 83 96 50 5 6 10 35 100 83 57
100 100 100 100 100 92 93 99 100 95 100 100 100 100 100 100 100 100 100 100 100 100 100 100 100 100 50 71 90 100 100 100 80 26 58 48 97 25 48 74 97 98 67

GFSGL_prec_cloud_024.txt.gz
Cloud_Cover
0 0 0 0 0 0 0 0 0 0 0 0 0 0 0 0 0 0 0 0 2 0 0 0 0 1 5 13 97 61 3 3 28 49 6 5 4 0 5 26 62 35 100
0 5 0 0 0 0 0 0 0 0 0 4 0 0 0 0 0 0 0 0 0 0 0 0 0 2 5 62 65 34 5 5 6 0 77 100 5 0 0 5 13 100 100
0 0 0 4 5 0 0 0 0 0 62 8 0 0 0 0 0 0 0 0 0 0 0 5 7 11 32 98 100 96 3 5 7 5 96 4 9 5 3 38 25 100 100
0 0 0 4 5 0 0 0 0 0 0 0 0 0 0 0 0 0 0 0 0 0 0 5 5 5 62 100 100 92 4 5 5 13 21 4 5 38 34 92 100 100 100
4 2 4 0 0 0 0 0 0 0 0 0 0 0 0 0 0 0 0 0 0 0 0 0 3 12 57 100 98 13 29 5 5 30 5 4 0 46 84 100 100 100 100
4 0 0 0 0 0 0 0 0 0 0 0 0 0 0 0 0 0 0 0 0 0 0 0 2 0 34 100 70 16 100 13 1 5 2 5 4 5 41 96 100 100 100
0 0 2 4 2 0 1 0 0 0 0 0 0 0 0 0 0 0 0 0 0 0 0 0 16 2 100 99 47 95 100 16 15 97 64 4 5 8 98 100 100 100 100
0 4 2 10 92 2 4 3 0 0 0 0 0 0 0 0 0 0 0 0 0 0 0 0 10 52 100 100 20 99 100 99 51 48 23 41 40 84 100 10 100 100 100
0 0 4 5 62 11 1 0 0 0 0 0 0 0 0 0 0 0 0 0 0 0 0 1 35 80 100 99 47 76 100 100 78 54 38 14 100 100 59 100 100 100 100
0 0 0 0 7 96 1 0 0 0 1 0 0 4 0 3 5 5 7 0 2 58 4 1 0 86 100 97 79 100 100 100 65 56 100 88 100 74 96 100 100 100 100
0 0 0 0 0 1 0 0 0 0 0 0 0 1 2 2 4 5 5 4 1 4 5 5 44 100 100 98 81 100 100 100 100 100 96 100 100 100 100 100 100 100 100
0 0 0 0 0 0 0 0 0 0 2 0 5 0 0 2 10 49 89 44 4 4 34 9 93 100 100 100 100 100 100 100 100 98 100 100 100 100 100 100 100 100 100
0 0 0 0 0 0 0 1 26 11 0 22 1 0 1 4 18 32 40 86 86 13 98 100 100 100 100 100 100 100 100 100 100 100 100 100 100 100 100 100 100 100 100
0 0 0 0 0 3 0 14 8 7 44 0 5 5 5 6 6 81 97 70 39 99 95 100 100 100 100 100 100 100 100 100 100 100 100 100 100 100 100 100 100 100 100
0 0 0 0 0 2 2 0 0 0 0 0 5 5 9 13 100 94 88 100 100 100 100 100 100 100 100 100 100 100 100 100 100 100 100 100 100 100 100 100 100 100 100
0 0 3 0 0 0 0 0 87 49 90 100 86 54 34 99 100 100 100 100 100 100 100 100 100 100 100 100 100 100 100 100 100 100 100 100 100 100 100 100 100 100 47
0 0 0 18 0 0 0 0 0 33 100 100 100 100 100 92 100 100 100 100 100 100 100 100 100 100 100 99 100 100 100 100 100 98 100 95 85 100 100 100 100 100 100
8 55 1 0 0 0 3 0 0 0 1 6 47 81 99 100 100 100 100 100 100 100 100 100 100 100 100 100 100 100 100 100 99 66 99 98 100 100 100 100 100 100 100
6 9 10 0 0 0 0 0 0 0 2 22 99 100 99 100 100 100 100 100 100 100 100 100 100 100 100 100 100 100 100 100 86 100 98 100 100 100 100 100 96 100 100
13 56 44 10 52 48 40 25 1 0 67 82 87 71 85 100 100 100 100 100 100 100 100 100 100 100 100 100 100 100 100 100 100 100 100 100 100 100 100 77 100 100 75
29 100 100 98 76 95 91 20 8 14 0 62 28 78 100 75 100 100 100 100 100 100 100 100 100 100 100 100 100 100 100 100 100 100 100 100 100 14 5 99 34 37 100
100 100 100 99 100 100 97 98 98 97 73 24 12 25 100 98 100 100 100 100 100 100 100 100 100 100 100 100 100 100 100 100 100 100 100 100 100 93 80 81 23 97 78
100 91 87 95 100 100 78 75 97 100 100 100 99 68 100 100 100 100 100 100 100 100 100 100 100 100 100 100 100 100 100 100 100 100 100 100 100 100 100 100 28 5 5
98 80 100 100 95 98 100 69 69 63 90 100 100 100 100 100 100 100 100 100 100 100 100 100 100 100 100 100 100 100 100 100 100 100 100 100 93 83 79 9 5 15 58
100 100 53 59 86 86 78 100 94 74 77 100 100 100 100 100 100 100 100 100 100 100 100 100 100 100 100 100 100 100 100 100 100 100 99 100 65 100 72 79 44 7 95
74 100 98 82 52 89 97 100 99 99 100 98 100 100 100 100 100 100 100 100 100 100 100 100 100 100 100 100 100 100 100 100 97 51 78 48 45 91 100 98 54 5 31

GFSGL_prec_cloud_027.txt.gz
Cloud_Cover
0 0 0 0 0 0 0 0 0 0 0 0 0 0 1 0 0 0 0 0 0 0 0 0 0 0 5 4 43 1 1 3 96 15 6 6 2 26 2 5 4 100 100
0 0 0 0 0 0 0 0 0 0 0 0 0 6 68 0 0 0 0 0 0 0 0 0 0 0 0 5 5 0 3 4 44 100 26 5 1 5 3 5 17 100 100
0 0 2 0 0 0 0 0 0 0 0 0 0 0 0 0 0 0 0 0 0 0 0 0 0 2 0 0 0 0 5 5 9 46 4 5 5 5 70 9 8 5 100
0 0 0 0 0 0 0 0 0 0 0 0 0 0 0 0 0 0 0 0 0 0 0 0 0 0 2 1 5 0 0 0 6 48 55 4 3 27 26 57 87 72 100
0 0 0 0 0 0 0 0 0 0 0 0 0 0 0 0 0 0 0 0 0 0 0 0 0 0 0 0 0 0 0 0 19 5 68 4 4 60 100 78 85 49 100
44 4 0 0 0 0 0 0 1 0 0 0 0 0 0 0 0 0 0 0 0 0 0 0 0 0 5 0 0 0 0 3 5 5 51 11 5 0 0 8 100 5 100
5 64 95 100 28 5 4 3 0 0 0 0 0 0 0 0 0 0 0 0 0 0 0 0 0 0 0 0 0 0 0 5 6 7 33 32 37 5 0 4 94 9 99
5 4 0 0 0 5 74 14 2 0 0 0 0 0 0 0 0 0 0 0 0 0 5 0 0 0 1 0 0 0 5 5 28 57 100 100 34 17 5 4 78 100 95
5 5 0 0 0 0 2 78 4 0 0 0 0 0 0 0 0 0 0 0 0 0 0 1 0 0 1 0 0 34 100 89 100 100 100 100 86 37 10 5 83 100 100
5 5 4 0 0 0 0 1 5 3 0 0 0 0 0 0 0 0 2 0 0 0 0 4 0 0 0 42 41 100 100 100 100 100 100 100 100 100 99 98 99 100 100
0 0 0 0 0 0 0 0 0 1 0 0 0 0 0 0 0 1 4 1 3 5 5 1 0 0 4 35 100 100 100 100 100 100 100 100 100 100 99 100 100 100 100
0 0 0 0 0 0 0 0 0 0 0 0 2 0 0 0 1 15 2 1 18 6 5 5 3 2 7 98 100 100 100 100 100 100 100 100 100 100 100 100 100 100 100
0 0 0 0 0 0 0 0 0 1 0 6 6 0 0 0 0 45 27 5 18 3 18 16 100 100 100 100 100 100 100 100 100 100 100 100 100 100 100 100 100 100 100
0 0 0 0 0 0 0 9 6 0 19 33 10 8 5 26 1 0 1 9 56 26 18 45 84 100 100 100 100 100 100 100 100 100 100 100 100 100 100 100 100 100 100
0 0 0 0 0 7 2 0 6 3 4 14 21 11 9 11 9 34 49 45 0 66 98 100 98 100 100 100 100 100 100 100 100 100 100 100 100 100 100 100 95 100 100
12 2 2 0 0 1 1 9 7 16 26 91 100 56 12 20 16 82 84 72 59 96 63 100 100 100 100 100 100 100 100 100 100 100 100 100 100 100 100 100 100 100 100
0 0 0 19 0 0 0 0 0 33 100 100 100 100 100 97 100 100 100 100 100 100 100 100 100 100 100 100 100 100 100 100 100 100 100 100 98 100 100 100 100 100 100
0 43 0 0 0 0 0 0 0 0 0 0 30 74 94 100 100 100 100 100 100 100 82 100 100 100 100 100 100 100 100 100 100 100 100 100 100 96 100 100 100 100 100
0 3 1 0 0 3 0 0 0 0 2 6 0 20 10 99 100 100 100 100 100 100 100 100 100 100 100 100 100 100 100 100 100 100 100 100 100 100 100 100 100 100 100
1 2 1 10 18 20 10 22 13 0 0 12 1 0 2 4 6 7 51 94 100 100 100 100 100 100 100 100 100 100 100 100 100 100 100 100 100 100 100 100 100 100 100
10 43 29 23 23 76 68 26 19 41 28 19 4 16 100 5 66 30 28 27 97 100 100 100 100 100 100 100 100 100 100 100 100 100 100 100 100 100 100 100 100 100 100
0 4 33 58 95 82 99 100 79 64 47 37 27 82 100 62 93 52 64 18 11 62 100 100 100 100 100 100 100 100 100 100 100 100 100 100 100 100 100 100 100 100 97
94 36 82 100 100 100 100 100 100 100 100 100 100 99 100 77 60 52 88 52 33 35 65 100 100 100 100 100 100 100 100 100 100 100 100 100 100 100 100 100 100 100 100
84 82 99 88 35 73 55 57 85 81 97 100 100 100 100 100 100 94 52 28 40 3 94 100 100 100 100 100 100 100 100 100 100 100 100 100 100 100 100 100 100 99 100
45 8 37 66 57 63 67 98 85 98 69 80 99 100 100 100 100 100 100 100 100 100 71 88 100 100 100 100 100 100 100 100 100 100 100 100 100 100 100 100 100 100 100
29 99 37 11 13 100 81 23 64 26 65 56 78 100 98 100 100 100 100 100 100 100 100 100 100 100 100 100 100 100 100 100 100 100 100 100 100 100 100 100 100 100 100

GFSGL_prec_cloud_030.txt.gz
Cloud_Cover
0 0 0 0 0 0 0 0 0 0 0 0 0 0 0 1 61 22 2 0 0 0 0 0 0 0 0 0 0 0 0 0 4 74 39 8 5 56 97 27 13 31 5
1 5 1 0 0 0 0 0 0 0 0 0 0 0 0 0 0 0 0 0 0 0 0 0 0 0 0 0 0 0 0 0 0 0 0 92 5 75 88 68 25 5 31
0 0 0 0 0 0 0 0 0 0 0 0 0 0 0 0 0 0 0 0 0 0 0 0 0 0 0 0 0 0 0 0 0 0 0 41 5 49 16 47 23 5 95
0 0 0 0 0 0 0 0 0 0 0 0 0 0 0 0 0 0 0 0 0 0 0 0 0 0 0 0 0 0 1 0 0 0 0 4 0 10 5 9 41 4 22
0 0 0 0 0 0 0 0 0 0 0 0 0 0 0 0 0 0 0 0 0 0 0 0 0 0 0 0 0 0 0 0 0 0 0 0 2 25 34 79 100 26 97
0 0 0 0 0 0 0 0 0 0 0 0 1 3 0 0 0 0 0 0 0 0 0 0 0 0 0 0 0 0 0 0 0 0 0 0 76 20 58 85 34 58 100
0 0 0 0 0 0 0 0 0 0 4 5 3 0 0 0 0 0 0 0 0 0 0 0 0 0 0 0 0 0 0 0 0 0 24 90 74 100 98 54 57 53 99
0 0 0 4 5 45 100 100 82 5 5 0 0 0 0 0 0 0 0 0 0 0 0 0 0 0 0 0 0 0 0 0 1 100 98 30 16 26 100 100 35 62 96
0 4 3 0 5 0 1 1 0 5 5 5 0 0 0 0 0 0 0 0 0 0 0 0 0 0 0 0 0 0 100 57 100 100 25 100 100 62 99 80 82 100 100
5 64 100 18 5 2 2 0 0 0 4 17 2 1 0 0 0 0 2 0 0 0 0 0 0 0 5 0 5 60 100 100 100 100 100 100 100 100 99 89 99 96 99
0 0 4 5 5 5 5 0 0 0 7 0 0 6 1 0 3 20 62 56 5 3 0 0 1 4 99 5 41 100 100 100 100 100 100 100 100 100 100 100 100 100 96
5 5 5 5 5 10 26 5 0 0 0 0 17 0 0 0 34 20 23 60 62 95 12 0 2 8 100 92 26 100 100 100 100 100 100 100 100 100 100 100 100 100 73
0 0 0 0 0 0 0 0 0 0 0 0 2 0 10 14 4 30 39 16 8 40 96 74 54 94 100 100 61 100 100 100 100 100 100 100 100 100 100 100 100 100 98
0 0 0 0 0 0 0 0 0 0 4 0 19 36 21 0 0 1 5 17 56 28 0 7 77 85 100 100 100 100 100 100 100 100 98 100 100 100 100 100 100 100 100
0 0 0 0 0 2 4 0 28 0 0 23 13 33 46 33 70 90 88 98 68 61 73 66 52 66 92 67 100 100 100 100 100 98 98 100 100 100 100 100 100 100 100
0 0 0 0 0 0 1 1 1 98 100 100 100 83 100 86 100 100 100 100 88 40 10 40 75 97 98 100 65 80 100 100 100 100 100 100 100 100 100 100 100 100 100
0 1 0 0 44 8 19 51 14 92 87 45 90 100 98 97 100 100 100 100 100 84 1 33 38 75 100 91 100 100 100 100 100 100 100 100 100 100 100 100 100 100 100
0 3 0 0 0 0 0 0 4 0 13 4 6 62 22 72 100 100 100 86 44 98 56 71 100 100 100 100 100 94 94 100 100 100 100 100 100 100 100 100 100 100 100
5 2 0 0 0 2 0 0 0 0 0 0 0 0 0 0 100 100 100 79 100 100 94 100 99 74 90 100 100 100 100 100 100 100 100 100 100 100 100 100 100 100 100
2 0 1 0 0 0 0 0 0 0 0 0 0 0 0 2 1 0 0 16 51 98 99 93 88 89 88 64 80 85 100 100 100 100 100 100 100 100 100 100 100 100 100
0 0 0 0 6 4 1 0 0 0 11 39 99 46 99 4 99 94 15 6 0 0 8 25 28 71 60 97 100 100 100 100 100 100 100 100 100 100 100 100 100 100 100
63 100 55 82 100 92 100 83 96 75 89 74 51 55 86 100 100 100 96 47 28 4 6 6 28 21 17 9 61 100 100 100 100 100 100 100 100 100 100 100 100 100 100
96 92 100 100 100 100 100 98 100 100 100 100 100 100 100 100 100 100 100 44 36 24 1 0 15 23 33 79 71 70 69 100 100 100 100 100 100 100 100 100 100 100 100
84 100 100 100 100 100 58 31 44 18 67 91 100 100 100 100 100 100 100 100 100 94 33 19 38 4 25 25 62 90 99 100 100 100 100 100 100 100 100 100 100 100 100
84 84 63 6 5 5 4 4 46 14 27 50 88 100 100 100 100 100 100 100 100 100 100 100 100 100 100 60 100 100 100 100 100 100 100 100 100 100 100 100 100 100 100
96 95 66 78 70 52 6 4 2 5 7 8 49 92 99 100 100 100 100 100 100 100 100 100 100 11 46 82 91 92 80 99 100 100 100 100 100 100 100 100 100 100 100

GFSGL_prec_cloud_033.txt.gz
Cloud_Cover
0 0 0 0 0 0 0 0 0 0 0 0 0 0 0 0 0 0 0 0 0 0 0 0 0 0 0 0 0 0 0 2 0 0 0 0 0 2 74 39 100 100 87
0 0 0 0 0 0 0 0 0 0 0 0 0 0 0 0 0 0 0 0 0 0 0 0 0 0 0 0 0 0 0 0 0 3 0 0 0 0 3 12 94 49 100
0 0 0 0 0 0 0 0 0 0 0 0 0 0 0 0 0 0 0 0 0 0 0 0 0 0 0 0 0 0 0 0 0 0 0 0 0 0 5 9 47 62 8
0 0 0 0 1 4 0 0 0 0 0 0 0 0 0 0 0 0 0 0 0 0 0 0 0 0 0 0 0 0 0 0 0 0 0 0 0 0 0 76 71 100 98
0 0 0 0 5 5 0 0 0 0 0 0 0 0 0 0 0 0 0 0 0 0 0 0 0 0 0 0 0 0 0 0 0 0 0 0 0 0 93 100 100 100 100
0 0 0 0 0 0 0 0 0 0 0 0 0 0 0 0 3 0 0 0 0 0 0 0 0 0 0 0 0 0 0 0 0 0 0 0 2 99 100 100 100 83 99
0 0 0 0 1 0 0 0 0 0 0 0 0 0 0 4 0 0 0 0 0 0 0 0 0 0 0 0 0 0 0 0 1 78 100 93 100 40 99 100 100 100 35
0 0 0 0 5 3 0 0 0 3 2 12 25 5 4 0 0 0 0 0 0 0 0 0 0 0 0 0 3 3 2 0 78 100 100 100 98 100 35 94 100 100 100
0 0 0 0 5 31 5 3 2 11 69 81 47 80 2 0 0 0 0 0 0 0 1 4 5 2 0 0 0 28 18 6 99 100 99 67 7 17 100 100 100 90 100
0 0 13 100 99 94 5 5 5 1 0 0 0 5 2 3 2 12 14 4 0 5 1 3 3 2 7 6 4 4 100 100 100 99 94 100 100 100 70 26 53 24 95
0 2 5 5 41 76 5 5 5 5 4 1 4 5 5 5 15 52 76 77 53 37 12 3 9 25 37 86 100 89 60 98 100 100 44 77 100 100 92 63 82 75 46
4 5 1 2 0 0 3 5 9 15 5 5 5 9 7 2 74 66 58 100 100 83 84 100 88 71 69 74 82 22 74 100 100 100 100 99 100 100 94 89 94 51 90
2 5 11 5 5 5 6 16 28 53 55 5 4 17 1 4 37 89 90 34 23 8 0 2 28 32 98 100 100 100 100 99 88 100 100 100 81 51 95 69 68 66 100
0 0 2 5 5 5 5 5 5 4 4 63 61 24 5 39 16 6 2 62 86 53 72 45 6 32 100 99 97 96 100 100 100 100 100 100 100 100 97 92 100 100 100
0 0 0 0 0 0 0 2 0 2 13 6 3 2 0 17 6 62 58 95 51 28 57 58 36 85 79 96 93 99 60 83 100 100 100 100 100 100 100 100 100 100 100
0 0 0 0 0 0 0 18 92 71 98 100 98 98 95 79 98 100 100 100 100 100 52 20 7 12 48 81 100 100 96 100 100 100 100 100 100 100 100 100 100 100 100
56 0 0 0 0 0 0 0 4 40 100 100 100 100 100 100 100 100 100 100 100 82 22 17 72 98 98 98 100 100 100 87 29 100 95 100 100 100 100 100 100 100 100
100 100 23 56 9 16 99 23 96 86 57 100 75 94 90 100 100 100 100 87 54 64 32 25 29 17 7 32 50 68 74 72 86 100 100 98 94 100 100 100 100 100 100
54 47 73 5 2 59 100 100 100 100 26 6 5 4 5 99 100 100 100 46 67 20 39 49 44 58 76 80 46 30 58 92 97 76 18 66 100 100 100 100 100 100 100
0 0 1 0 0 0 0 7 6 21 5 0 0 1 5 0 0 0 0 0 0 1 18 30 22 26 40 27 22 27 0 6 16 94 100 100 99 100 100 100 100 100 100
0 2 0 0 0 0 0 1 2 32 25 38 67 81 100 26 50 40 100 99 66 97 36 0 17 28 31 29 33 53 26 12 26 99 100 100 100 100 100 100 100 100 100
26 18 21 2 18 16 20 33 70 100 100 100 100 86 98 100 100 100 100 100 100 100 54 91 27 34 38 53 71 88 34 24 12 12 18 46 100 100 100 100 100 100 100
65 14 34 70 40 62 91 100 100 100 100 100 100 100 100 100 100 100 100 100 99 98 84 71 100 73 28 22 35 57 86 100 100 99 100 100 100 99 100 100 100 100 100
62 100 100 100 98 45 9 4 6 22 94 100 100 100 100 100 100 100 100 100 100 100 100 99 86 26 12 100 72 42 11 70 36 30 81 100 100 100 100 100 100 100 100
84 100 100 100 100 64 54 11 1 1 26 91 98 100 100 100 100 100 100 100 100 100 100 100 100 100 85 100 100 97 80 98 100 76 46 100 100 100 100 100 100 100 100
100 100 91 25 22 91 83 8 5 4 0 2 2 0 9 25 60 99 100 100 100 100 100 100 100 100 89 100 82 6 51 98 100 97 53 88 53 100 100 100 100 100 100

GFSGL_prec_cloud_039.txt.gz
Cloud_Cover
0 0 0 0 0 0 0 0 0 0 0 0 0 0 0 0 0 0 0 0 0 0 0 4 0 0 0 0 0 0 0 0 0 0 0 0 0 0 0 0 0 0 13
0 0 0 0 0 0 0 0 0 0 0 0 0 0 0 0 0 0 0 0 0 0 0 0 0 0 0 0 0 0 0 0 0 4 70 6 0 2 0 0 0 0 2
0 0 0 0 0 0 0 0 0 0 0 0 0 0 0 0 0 0 0 0 0 0 0 0 0 3 0 3 1 0 0 0 0 5 75 79 32 12 5 2 0 0 17
0 0 0 0 0 0 0 0 0 0 0 0 0 0 0 0 0 0 0 0 0 0 3 0 0 0 0 0 0 0 0 0 0 0 2 67 100 100 99 80 72 5 10
0 0 0 0 0 0 0 0 0 0 4 5 2 0 0 0 0 0 0 0 0 0 4 0 0 0 0 0 0 0 0 0 0 0 0 0 28 50 100 85 89 28 57
0 0 0 0 0 0 0 0 0 0 5 5 5 5 5 5 0 0 0 0 0 9 5 0 0 0 0 0 0 0 0 0 0 0 0 0 0 0 8 67 84 56 69
0 0 0 0 0 0 0 0 0 0 5 5 5 5 5 1 0 0 0 5 46 31 3 0 0 0 0 0 3 1 0 0 0 0 0 0 0 4 5 7 89 72 73
0 0 0 0 0 0 0 0 8 3 3 5 5 5 5 0 0 0 42 100 38 6 0 0 0 0 0 0 0 5 13 4 5 5 46 92 23 5 7 5 10 85 43
0 2 0 0 0 0 4 5 5 3 23 5 5 5 0 0 0 5 44 34 11 0 0 0 0 0 0 1 27 43 21 16 5 5 5 11 39 100 15 67 97 100 99
5 2 0 5 62 100 98 84 42 5 1 4 21 17 0 2 5 5 19 0 0 3 0 0 21 43 43 69 89 75 100 84 82 100 100 100 100 82 86 100 100 100 100
4 5 48 17 100 99 64 99 71 5 1 8 42 6 0 0 1 10 16 0 0 0 12 14 5 6 50 90 100 100 100 100 100 100 100 100 100 99 100 100 100 100 100
5 4 5 1 35 97 100 59 86 42 48 71 72 61 100 44 20 75 23 73 1 0 4 47 99 99 100 86 98 100 100 100 100 100 100 100 100 100 92 73 80 62 74
30 99 63 5 3 75 66 100 77 93 90 99 76 100 100 69 95 98 98 42 60 24 67 94 100 100 100 98 98 99 100 100 100 100 100 100 100 100 100 100 100 100 100
5 69 99 82 96 32 15 12 5 5 74 100 81 98 83 79 16 12 73 100 100 100 100 88 74 100 100 94 100 94 69 89 95 100 100 98 100 100 100 100 100 100 100
0 0 2 18 100 100 100 100 98 20 22 16 24 36 41 89 98 76 100 100 100 100 100 100 100 100 100 100 80 66 85 99 100 92 100 99 83 78 29 12 69 66 100
0 0 4 12 42 100 72 69 100 100 100 100 99 34 38 68 83 98 98 99 100 100 100 100 100 100 100 85 38 68 35 32 16 11 21 20 12 0 13 31 24 36 82
0 0 0 32 97 100 12 0 0 84 51 73 59 97 100 57 100 100 100 100 100 100 100 100 100 59 12 22 14 5 3 3 4 23 31 4 22 99 100 100 95 86 90
0 23 3 1 64 38 0 1 1 14 9 27 79 78 99 100 99 100 100 99 100 99 97 36 85 98 100 26 7 6 21 22 18 18 15 46 54 32 93 100 100 100 100
0 1 13 40 77 45 11 15 36 34 100 100 100 98 99 100 100 100 100 94 44 16 18 17 39 54 34 17 25 45 75 40 35 37 14 8 14 47 75 99 71 80 99
2 2 1 39 57 51 94 95 98 100 100 100 100 100 100 100 100 100 100 100 100 100 100 100 100 100 100 100 95 90 100 100 91 29 12 15 29 44 95 96 100 100 100
16 10 24 53 73 65 47 64 98 100 100 100 100 100 100 100 100 100 100 100 100 100 97 100 100 100 97 84 100 100 100 100 77 90 100 100 100 74 76 97 100 100 99
11 28 67 100 100 100 100 91 95 100 100 100 100 100 100 98 100 100 100 100 100 100 100 99 100 85 98 100 100 100 100 100 100 99 100 100 98 42 100 100 51 76 59
0 0 36 100 100 100 100 100 100 100 100 100 100 100 100 100 100 100 100 100 100 100 100 100 98 92 89 100 96 100 100 100 100 100 100 98 100 99 47 59 50 24 11
63 99 45 100 71 95 100 100 100 100 100 100 100 100 100 100 100 100 100 100 100 100 100 100 100 100 100 79 66 76 98 100 99 80 98 60 94 100 100 100 31 7 17
43 98 100 93 98 88 100 100 100 100 100 100 100 100 100 100 100 100 100 100 100 100 100 100 100 100 100 100 100 69 100 99 100 97 100 17 46 91 100 100 56 37 43
81 100 100 94 82 100 100 100 93 68 54 21 5 2 4 1 2 0 0 1 1 5 5 20 45 64 69 87 100 89 100 99 98 96 96 85 64 99 82 94 70 88 100

GFSGL_prec_cloud_042.txt.gz
Cloud_Cover
5 0 0 0 0 0 0 0 0 0 0 0 0 0 0 0 0 0 0 0 0 0 0 0 0 0 0 0 0 0 0 0 0 0 0 5 45 96 9 4 0 0 2
2 5 5 0 0 0 0 0 0 0 0 0 0 0 0 0 0 0 0 0 5 0 0 0 0 0 0 0 0 0 0 0 0 0 0 0 4 99 100 100 94 12 69
5 5 4 0 0 0 0 0 0 3 0 0 0 0 0 0 0 2 0 5 0 0 0 0 0 0 0 0 0 0 0 0 0 0 0 0 0 5 28 85 93 97 74
1 0 1 0 0 0 0 0 0 0 0 0 0 5 5 5 1 5 4 4 0 0 0 0 2 0 0 0 0 0 0 0 0 0 0 0 0 0 8 7 62 78 89
0 0 0 0 0 0 0 0 0 0 0 0 0 0 0 5 5 5 5 0 0 0 0 0 5 0 0 0 0 0 0 0 0 0 0 0 4 4 0 0 5 6 68
0 0 0 0 0 0 0 0 0 0 0 0 0 0 0 20 79 40 5 3 0 0 0 0 3 0 1 0 0 0 0 0 0 0 0 0 0 0 5 24 7 5 21
0 0 0 0 0 0 0 0 0 0 0 0 0 3 5 5 38 49 5 1 0 0 5 5 0 0 1 0 10 21 13 0 0 0 0 0 2 5 2 5 12 74 30
0 0 0 0 0 0 0 0 0 0 0 5 0 0 5 5 12 57 62 0 0 0 11 4 0 0 0 1 5 5 1 0 7 2 5 5 57 44 70 90 94 76 97
0 0 0 0 0 0 0 0 0 9 0 0 0 0 1 5 5 5 6 0 0 0 0 0 0 0 0 5 5 5 85 74 25 5 3 2 1 1 3 81 100 100 100
0 0 0 0 0 0 0 0 0 2 12 22 1 3 3 1 5 5 34 0 0 0 0 0 1 1 5 11 6 6 60 87 81 85 98 100 100 100 100 100 100 100 100
2 0 0 0 0 0 0 3 5 5 4 28 43 16 10 5 6 5 19 5 2 16 40 22 17 14 32 62 89 100 100 100 100 100 100 100 97 99 85 90 72 91 100
5 5 0 4 5 5 1 42 99 84 30 40 46 46 84 16 77 72 19 69 2 3 16 15 2 54 84 100 100 100 100 100 100 100 100 100 100 100 100 100 100 100 100
97 96 2 0 9 68 15 8 8 9 20 72 73 83 97 84 90 90 97 36 55 20 0 4 74 98 100 100 100 100 100 100 100 100 100 100 100 98 100 100 100 100 88
77 99 100 88 0 1 18 100 15 100 94 73 23 64 13 44 46 73 91 99 99 96 64 100 100 100 100 100 100 100 100 100 100 100 100 100 100 94 18 2 0 1 22
100 100 80 100 73 100 67 55 58 83 100 91 77 36 49 75 45 60 77 97 99 89 94 100 100 100 100 100 100 100 100 100 98 98 85 80 98 57 5 18 90 100 88
35 5 60 22 95 82 56 95 100 100 100 100 100 48 91 84 100 91 99 100 100 100 100 100 100 100 100 100 100 82 60 23 18 17 5 53 91 75 70 20 20 63 97
0 0 1 97 100 100 100 100 100 100 100 100 100 100 100 100 100 100 100 100 100 100 100 100 100 100 99 40 28 5 5 5 15 24 19 60 51 68 72 100 91 92 100
5 97 1 84 100 100 42 13 7 82 81 100 100 100 100 100 100 100 100 40 57 100 100 100 97 44 38 27 24 34 33 42 50 48 41 24 26 25 8 12 64 73 96
5 8 45 94 100 50 26 3 0 0 1 66 69 88 100 100 100 100 96 92 100 100 95 80 78 76 92 98 94 92 96 100 100 100 61 31 6 19 73 99 100 100 100
5 44 100 100 100 100 78 44 55 71 96 99 95 100 100 79 98 100 98 100 100 92 100 100 100 100 100 100 100 100 100 100 100 100 66 79 100 100 72 47 100 100 100
18 66 100 100 100 100 100 99 100 100 100 100 100 100 100 100 100 100 100 100 90 94 100 100 100 100 100 100 100 100 100 100 100 100 100 100 100 100 93 49 66 100 96
41 97 100 100 100 100 100 100 100 100 100 100 100 100 97 99 100 100 95 92 100 99 100 100 100 100 100 100 100 98 100 100 100 100 100 100 100 100 100 100 66 86 81
34 92 100 100 100 100 100 100 100 100 100 100 100 98 96 99 100 100 100 100 100 100 100 100 100 100 100 100 100 100 100 99 95 98 100 100 100 100 100 100 93 95 96
17 64 100 100 100 100 100 100 100 100 100 100 100 100 100 100 100 100 100 100 100 100 100 100 100 100 99 78 92 96 84 85 98 88 100 100 100 100 100 100 100 100 90
83 66 99 100 100 100 100 100 100 100 100 100 100 100 100 100 100 100 93 48 19 4 5 0 3 0 0 16 77 68 13 47 81 96 100 100 100 100 90 90 100 100 99
100 100 91 100 100 100 100 100 100 100 100 100 100 100 97 100 85 50 34 23 0 0 0 0 0 0 0 2 5 10 5 5 16 42 91 100 83 98 96 98 83 81 100

GFSGL_prec_cloud_045.txt.gz
Cloud_Cover
0 5 1 0 0 0 0 0 0 0 0 0 0 0 0 0 0 0 0 0 0 0 0 0 0 0 0 0 0 0 0 0 0 0 0 0 0 16 100 100 100 100 73
2 3 1 2 0 0 0 0 0 0 0 0 0 0 0 0 5 5 3 0 0 0 0 0 0 0 0 0 0 0 0 0 0 0 0 0 0 0 1 34 33 10 17
8 11 43 6 5 0 0 0 0 0 0 0 0 0 1 5 10 5 5 5 5 0 0 0 0 0 0 0 0 0 0 0 0 0 0 0 0 0 0 2 5 5 15
0 0 7 50 4 3 0 0 0 0 0 0 0 5 5 5 5 5 24 54 4 5 0 0 0 0 5 3 0 0 2 0 0 0 0 0 0 0 0 1 5 4 5
0 0 0 4 5 3 0 0 0 0 0 0 0 0 5 5 5 5 9 86 12 5 4 0 0 0 5 0 0 0 5 3 0 0 0 0 0 0 0 0 1 6 88
0 0 0 0 0 0 0 0 0 0 0 0 0 0 5 5 5 5 5 73 24 5 5 0 0 2 10 4 0 0 5 7 4 0 0 0 0 0 3 2 6 0 1
0 0 0 0 0 0 0 0 0 0 0 0 0 0 0 5 5 7 13 7 5 5 1 0 0 37 5 3 12 27 29 60 6 2 0 0 0 24 41 68 59 41 30
0 0 0 0 0 0 0 0 0 0 0 0 0 0 0 0 5 5 5 5 5 5 5 0 0 0 5 0 0 0 5 5 48 14 6 5 3 4 27 46 75 100 95
0 0 0 0 0 0 0 0 0 0 0 0 0 0 0 0 1 5 10 5 5 5 5 0 0 4 5 2 0 0 0 5 5 5 5 3 0 5 68 88 100 100 100
0 0 0 0 0 0 0 0 0 0 0 0 2 4 5 2 9 0 43 5 5 5 5 4 0 2 0 5 1 0 7 10 10 30 82 59 51 48 98 100 100 100 100
0 0 0 0 0 0 0 0 1 8 0 1 0 0 0 0 0 39 27 5 5 5 5 5 5 2 24 40 58 5 28 22 34 55 72 96 95 87 100 100 85 100 100
0 0 0 0 0 0 0 0 0 4 17 12 16 9 6 26 46 69 36 75 8 9 21 22 15 4 48 74 58 30 51 92 90 100 100 100 100 100 100 100 100 100 93
0 0 0 0 0 0 0 2 14 31 0 11 5 5 5 17 13 86 94 31 50 23 44 42 8 79 100 72 84 96 100 100 100 100 100 100 100 100 100 100 56 97 18
0 2 0 0 0 0 0 0 0 0 13 5 2 5 5 6 42 76 19 65 81 56 90 30 49 76 100 85 100 100 100 100 100 100 100 100 96 66 15 0 4 80 47
96 64 5 56 1 0 5 14 5 4 21 58 12 5 5 5 5 12 28 39 74 61 71 95 100 100 100 100 100 100 100 100 100 100 73 21 6 5 5 0 4 49 32
60 19 100 94 78 4 12 37 100 91 100 100 94 96 80 79 100 100 100 100 100 100 100 100 100 100 100 100 100 100 100 100 44 0 0 0 2 5 5 5 5 6 18
5 100 82 99 99 100 93 2 18 100 100 100 100 89 66 94 100 100 100 100 100 100 100 100 100 100 100 100 100 100 64 0 3 0 0 0 0 0 3 7 23 16 14
90 100 100 100 100 100 100 20 22 76 100 100 100 100 100 100 100 100 100 100 100 100 100 100 100 100 100 97 37 14 18 55 88 96 59 30 22 25 36 55 66 97 100
88 87 95 100 100 97 39 22 18 56 77 91 100 100 100 100 100 100 67 71 90 96 71 80 100 100 98 94 100 98 100 100 100 99 100 80 100 100 100 84 100 100 90
40 100 100 100 100 92 44 35 44 79 94 100 92 100 76 78 24 48 86 97 98 100 99 100 79 70 86 90 100 100 100 100 100 100 100 100 100 100 100 100 100 100 100
70 78 100 100 100 100 100 100 100 100 100 100 100 100 100 75 91 94 87 64 80 100 100 92 77 67 83 100 100 100 100 100 98 100 100 100 100 100 100 100 100 100 100
100 59 98 100 100 100 100 100 100 100 100 100 100 100 84 99 100 83 70 100 100 92 83 90 78 94 99 96 81 63 62 58 57 63 77 85 94 100 100 100 100 100 100
100 97 93 100 100 100 100 100 100 100 100 100 100 100 100 100 100 99 100 98 100 100 100 100 96 84 95 94 70 51 50 58 88 80 63 63 72 92 100 100 100 100 100
100 83 98 100 100 100 100 92 100 100 100 100 100 100 100 100 100 100 100 100 100 100 100 100 86 77 68 62 21 21 16 19 100 97 83 38 75 98 92 100 100 100 100
100 100 100 100 100 100 100 100 100 100 100 100 100 100 100 100 100 100 100 98 76 7 0 0 0 0 0 0 0 0 24 3 31 68 57 64 75 96 98 92 100 100 100
100 100 100 100 100 100 100 100 100 100 100 100 100 100 100 100 100 100 100 100 100 72 21 0 0 0 0 0 0 0 0 0 7 0 14 47 48 96 100 92 98 100 100

GFSGL_prec_cloud_048.txt.gz
Cloud_Cover
0 0 0 0 0 0 0 0 0 0 0 0 0 0 0 0 0 0 0 0 6 5 3 0 0 0 0 0 0 0 0 0 0 0 0 0 0 0 0 5 5 5 5
0 0 0 0 0 0 0 0 0 0 0 0 0 0 0 0 0 0 0 0 0 0 0 0 0 0 0 0 0 0 0 0 0 0 0 0 0 0 0 0 0 4 5
0 4 1 0 0 0 0 0 0 0 0 0 0 0 0 0 0 0 0 0 0 1 5 3 0 0 0 0 5 2 0 0 0 0 0 0 0 0 0 0 0 5 32
0 4 5 5 5 0 0 0 0 0 0 0 0 0 0 0 1 0 0 0 5 5 5 5 1 0 0 0 5 5 0 0 0 0 0 0 0 0 0 0 0 0 0
0 0 0 1 4 5 5 0 0 0 0 0 0 0 0 0 0 5 5 0 5 5 5 5 5 0 0 4 5 14 0 0 0 0 3 0 0 0 0 0 0 0 0
0 0 0 0 0 5 58 55 5 0 0 0 0 0 0 0 0 4 5 5 5 5 5 5 5 3 3 2 53 59 0 0 0 0 1 4 1 0 0 2 0 0 0
0 0 0 0 0 0 3 12 7 0 0 0 0 0 0 0 0 0 0 5 5 5 5 5 5 5 2 0 10 25 13 1 14 0 3 5 4 5 3 0 3 5 20
4 0 0 0 0 0 0 1 0 0 0 0 0 0 0 0 0 0 0 0 5 5 5 5 5 5 5 2 0 2 1 0 2 1 3 5 14 17 65 70 36 42 66
0 0 0 0 0 0 0 0 0 0 0 0 0 0 0 0 0 0 5 0 0 4 5 42 12 5 5 5 0 0 5 1 2 0 0 0 0 5 45 59 86 98 91
4 0 0 0 0 0 0 0 0 0 0 0 0 0 0 0 0 0 48 0 0 0 4 5 5 2 5 20 12 0 0 0 1 24 53 100 100 100 49 100 100 100 100
5 0 0 0 0 0 0 0 0 0 0 0 0 0 0 0 0 4 52 0 0 0 0 0 0 5 5 19 80 71 2 30 48 91 100 97 65 84 70 77 87 100 100
7 0 0 0 0 0 0 0 0 0 0 0 0 0 0 0 12 57 28 73 3 4 0 2 3 5 5 29 45 79 5 58 80 69 78 96 99 100 100 100 90 42 58
62 0 0 0 0 0 0 8 2 9 0 0 0 0 0 0 0 54 52 33 44 14 0 2 84 71 55 66 99 99 77 97 90 100 100 100 100 100 100 66 41 44 4
94 2 0 15 7 0 0 0 0 0 0 0 0 0 0 2 1 5 5 8 66 45 5 9 6 94 97 99 86 46 59 97 100 100 100 100 99 80 100 94 15 0 2
27 11 19 14 30 45 42 13 15 0 18 0 1 5 8 5 4 4 5 5 5 5 6 46 85 90 81 100 100 96 98 100 100 97 100 100 96 96 34 0 0 0 0
12 5 3 4 56 92 96 64 91 84 100 100 100 55 91 74 100 96 100 100 100 99 45 92 98 97 100 100 100 100 100 100 100 97 100 67 26 2 0 0 0 0 1
100 99 74 69 99 49 26 90 100 100 100 100 100 100 98 100 100 100 100 100 100 100 100 100 100 100 100 100 100 100 100 100 100 79 5 0 3 0 2 0 0 1 5
90 97 100 100 42 49 8 99 100 100 100 100 100 100 99 100 100 100 100 66 100 100 100 100 100 100 100 100 100 100 100 95 58 26 8 0 3 11 15 10 25 49 20
93 29 26 0 6 26 49 100 100 100 100 100 100 100 100 100 100 90 89 100 95 66 91 94 95 100 100 100 99 100 62 82 96 100 95 47 98 79 75 87 100 98 85
72 80 68 90 46 82 100 100 100 100 100 100 100 100 100 100 100 100 97 75 70 69 63 53 49 47 56 53 99 54 69 97 76 73 80 96 96 91 95 100 100 100 100
100 97 92 88 9 100 100 100 100 100 100 100 100 100 100 100 100 53 39 45 51 56 60 67 69 60 44 52 54 60 100 100 100 96 97 88 78 73 61 70 96 100 100
100 85 92 96 61 100 100 100 100 100 100 100 100 97 89 47 32 36 26 40 43 58 46 37 14 8 18 20 24 40 47 43 42 29 18 26 46 70 96 88 63 55 100
100 100 99 57 99 100 100 100 100 100 100 100 100 75 49 53 69 92 44 84 95 43 44 88 62 95 86 38 12 0 0 0 0 0 0 2 17 58 95 100 100 100 88
79 100 100 99 90 100 100 100 100 100 100 100 100 100 75 87 66 76 67 60 95 86 41 99 65 32 4 0 0 0 0 0 0 0 5 13 36 74 49 97 100 100 100
82 100 100 97 100 100 100 100 100 100 100 100 100 100 100 81 85 91 55 55 78 83 23 76 1 0 0 0 0 0 23 0 19 56 0 5 16 68 76 76 100 100 100
99 80 74 100 79 100 100 100 100 100 100 100 100 100 100 100 100 100 100 80 18 3 12 5 7 6 3 1 0 0 0 0 0 0 2 0 0 0 11 36 18 92 94

GFSGL_prec_cloud_051.txt.gz
Cloud_Cover
0 0 0 0 0 0 0 0 0 0 0 0 0 0 0 0 0 0 0 40 0 0 0 0 0 0 0 0 0 0 0 0 0 0 0 0 0 0 0 0 5 47 82
0 0 0 0 0 0 0 0 0 0 0 0 0 0 0 0 0 0 0 0 9 0 0 0 1 3 0 0 0 0 0 0 0 0 0 0 0 0 0 0 1 11 39
0 0 0 0 0 0 0 0 0 0 0 0 0 0 0 0 0 0 0 0 0 0 0 0 5 5 3 0 0 5 0 0 0 0 0 0 0 0 0 0 0 0 0
0 0 0 0 0 0 0 0 0 0 0 0 0 0 0 0 0 0 0 0 0 0 0 0 2 5 5 5 0 4 8 3 0 0 0 0 0 0 0 0 5 4 5
0 0 0 0 0 0 0 0 0 0 0 0 0 0 0 0 0 0 0 0 0 0 0 0 0 2 5 5 5 0 0 3 2 0 0 0 4 0 4 2 0 0 0
0 0 0 0 0 0 0 5 1 0 0 0 0 0 0 0 0 0 0 0 0 0 0 0 5 0 0 5 5 5 0 0 4 5 0 1 0 0 5 5 5 4 3
0 0 0 0 0 0 0 0 4 5 2 2 5 2 0 0 0 0 0 0 0 0 1 5 5 4 1 0 12 6 5 1 2 3 5 4 0 0 0 0 9 5 6
0 0 0 0 0 0 0 0 0 0 5 5 5 5 0 0 0 0 0 0 0 0 0 0 3 5 5 3 0 4 5 5 4 3 0 0 0 0 0 51 39 49 42
0 0 0 0 0 0 0 0 0 0 0 0 5 0 0 0 0 0 0 0 0 0 0 0 0 0 0 0 0 0 0 2 5 2 1 0 0 0 67 69 52 97 97
0 0 0 0 0 0 0 0 0 0 0 0 0 0 0 0 3 0 6 0 0 0 0 0 0 0 0 0 0 0 0 5 5 18 7 25 41 7 4 62 73 99 100
5 0 2 0 0 0 0 0 0 0 0 0 0 0 0 0 0 0 15 0 0 0 0 0 0 0 0 0 1 0 0 17 5 26 99 100 100 38 21 27 39 100 99
1 5 5 5 4 0 0 0 0 0 0 0 0 0 0 0 0 25 0 15 0 0 0 0 0 0 0 0 40 0 0 55 29 64 80 67 59 72 47 55 100 100 100
4 5 5 4 5 0 0 2 0 0 0 0 0 0 0 0 0 4 8 2 14 11 5 12 42 2 0 66 26 0 73 39 49 67 74 100 77 67 70 40 100 100 6
5 28 5 51 2 0 31 60 2 0 1 0 0 0 0 0 0 0 1 6 59 42 0 1 0 74 96 69 76 94 52 99 100 77 98 100 82 70 98 98 64 31 3
2 2 5 82 22 23 54 31 8 33 12 0 0 0 0 0 0 4 1 2 4 3 4 0 0 0 7 59 100 94 76 71 100 100 100 92 58 100 27 76 27 0 0
8 0 7 28 100 82 38 0 85 66 100 100 100 54 13 65 76 98 100 94 20 24 9 3 11 32 80 100 100 100 100 100 96 95 100 100 100 64 39 33 0 0 5
84 78 36 46 100 100 73 0 0 37 100 100 100 100 100 100 100 100 100 100 100 81 4 24 62 100 100 100 98 100 100 100 100 100 100 99 90 40 5 1 10 22 19
100 100 85 93 6 85 100 100 82 57 25 4 78 90 100 100 100 100 100 100 100 68 93 99 94 98 91 100 100 100 95 99 75 91 93 43 72 9 13 27 21 26 15
9 100 100 90 38 100 89 52 1 2 5 50 94 100 100 100 100 100 100 97 45 75 98 100 100 100 100 60 97 100 92 60 100 85 20 5 31 28 14 31 76 91 95
100 100 100 14 5 96 100 94 100 100 98 100 100 100 100 100 100 100 100 100 96 100 100 100 87 79 66 100 78 72 62 44 82 74 93 64 81 100 98 100 100 100 74
100 100 100 100 100 98 100 83 100 100 99 100 100 100 100 100 100 100 100 100 100 97 100 100 90 53 46 54 55 34 18 62 79 99 73 98 99 100 100 100 100 100 100
100 100 100 100 100 72 96 100 99 100 100 100 100 81 100 100 100 100 100 100 99 92 100 85 29 76 77 82 44 2 8 26 32 43 37 26 27 25 30 85 100 64 62
100 100 100 98 100 99 98 100 100 100 92 100 100 100 100 100 100 100 100 100 100 88 59 21 40 99 100 100 100 20 0 0 0 0 0 1 1 7 17 39 98 100 65
100 100 98 100 100 100 100 100 100 100 100 100 100 100 100 100 100 100 100 100 100 100 99 100 100 100 39 12 8 0 5 2 1 2 4 5 7 5 6 13 38 23 100
100 100 100 100 86 53 56 97 100 100 100 100 100 100 100 100 100 100 100 100 100 100 100 100 100 95 40 1 4 0 24 1 7 44 3 5 5 5 4 2 0 2 32
95 100 100 99 90 34 92 99 100 99 100 100 100 100 100 100 100 100 100 100 100 98 95 50 1 2 4 4 7 1 1 1 5 29 21 31 76 8 5 4 10 5 5

GFSGL_prec_cloud_054.txt.gz
Cloud_Cover
0 0 0 0 0 0 0 0 0 0 0 38 7 0 0 0 0 0 0 3 0 0 0 0 0 0 0 0 0 0 0 0 0 0 0 0 0 0 0 0 7 50 55
0 0 0 0 0 0 0 0 0 0 0 0 0 0 0 0 0 0 0 0 0 0 0 0 0 0 5 5 1 0 0 2 0 0 0 0 0 0 0 0 0 0 2
0 0 0 0 0 0 0 0 0 0 0 0 0 0 0 0 0 0 0 0 0 0 0 0 0 0 2 5 5 5 1 0 0 0 0 0 0 0 0 1 5 5 2
0 0 0 0 0 0 0 0 0 0 0 0 0 0 0 0 0 0 0 0 0 0 0 0 0 0 0 0 2 5 5 5 2 0 0 0 0 0 0 0 2 3 5
0 0 0 0 0 0 0 0 0 0 0 0 0 0 0 0 0 0 0 0 0 0 0 0 0 0 0 0 0 0 3 5 5 6 0 0 0 0 0 0 0 5 5
0 0 0 0 0 2 0 0 0 0 0 0 0 0 0 0 0 0 0 0 0 0 0 0 0 0 0 0 0 0 0 5 5 5 18 23 0 2 5 0 0 0 2
0 0 0 0 0 0 0 0 0 0 0 0 0 0 0 0 0 0 0 0 0 0 0 0 0 0 0 0 0 0 0 0 5 5 15 78 32 35 22 5 4 0 2
0 0 0 0 0 0 0 1 0 0 0 0 0 0 0 0 0 0 0 0 0 0 0 0 0 0 0 0 0 0 0 0 0 4 5 5 31 70 57 32 15 94 98
0 0 0 0 0 0 0 0 0 0 0 0 0 0 0 2 4 2 0 0 0 0 0 0 0 0 0 0 0 0 0 0 0 0 0 5 5 5 68 100 100 98 36
0 1 0 0 0 0 0 0 0 0 0 0 0 0 0 0 0 0 0 0 0 0 0 0 0 0 0 0 0 0 0 0 0 0 0 0 37 0 11 87 76 88 94
0 1 5 1 0 0 0 0 0 0 0 0 0 0 0 0 0 0 0 0 0 0 0 0 0 0 0 0 0 0 0 4 0 0 0 0 3 7 14 18 21 15 24
3 0 0 0 0 0 1 2 0 0 0 0 0 0 0 0 0 30 0 0 0 0 0 0 0 0 0 0 0 0 0 50 0 0 4 5 5 49 28 7 6 38 100
5 0 0 0 0 0 5 1 0 0 0 0 0 0 0 0 0 4 3 0 0 0 0 10 13 0 0 65 0 0 62 4 0 0 16 76 57 10 28 15 76 96 76
5 5 3 0 0 2 5 2 0 0 0 1 0 0 0 0 0 0 1 2 36 23 0 5 3 10 92 69 1 32 1 16 53 19 15 21 20 38 100 98 45 59 8
1 5 5 4 0 0 0 5 0 0 2 0 0 0 0 0 0 0 0 0 0 3 16 81 86 47 17 5 2 0 0 10 18 54 91 79 90 69 100 100 79 94 99
0 2 5 5 0 0 0 57 92 79 100 80 78 6 16 79 76 61 0 0 2 30 100 100 100 100 100 14 9 84 100 100 100 100 100 93 88 100 100 60 85 100 100
0 5 10 5 0 0 1 0 47 99 100 100 100 100 74 97 100 100 100 38 25 79 89 100 100 100 100 100 97 100 100 98 52 92 83 100 100 100 97 1 0 0 0
24 27 5 5 18 0 20 22 64 90 1 3 74 62 100 100 100 100 100 89 97 98 100 100 100 100 89 100 100 100 100 94 46 39 46 100 100 89 3 0 22 7 0
100 18 55 51 49 95 17 60 45 100 26 58 58 94 100 100 100 100 100 38 87 94 100 100 100 100 100 100 100 100 100 39 38 100 97 83 47 98 10 0 0 0 0
73 90 69 90 10 68 100 91 98 94 100 7 9 41 99 81 100 100 21 45 99 100 100 100 100 100 100 100 100 99 100 98 100 100 100 55 88 83 59 78 79 90 92
100 100 99 44 49 68 100 100 100 100 100 20 34 37 100 50 94 77 87 99 100 100 100 100 100 100 100 100 100 100 100 100 74 82 100 100 100 98 97 100 100 100 99
100 100 100 100 100 100 100 100 100 100 48 100 100 100 100 100 72 23 82 100 100 100 100 100 100 100 100 100 100 100 100 100 100 100 100 100 100 100 100 84 1 6 36
86 100 100 100 100 100 100 100 100 100 99 83 100 100 100 100 86 52 56 99 92 100 100 100 100 100 97 99 100 81 67 100 100 100 100 100 100 100 39 21 4 25 100
100 100 100 100 100 100 100 100 99 63 50 97 100 100 96 78 91 100 64 95 100 100 100 79 95 61 100 64 100 100 100 100 100 100 100 96 59 6 0 0 0 3 1
34 89 65 82 100 100 100 100 100 100 100 100 100 100 100 100 100 100 100 100 100 100 100 99 94 100 100 100 100 98 100 100 100 100 44 3 0 0 0 0 0 5 5
100 98 84 100 100 100 100 100 100 100 100 100 100 100 100 100 100 100 100 100 100 100 100 100 100 100 95 95 99 78 32 5 5 5 5 5 4 1 1 2 3 11 4

GFSGL_prec_cloud_057.txt.gz
Cloud_Cover
0 0 0 0 0 0 0 0 0 0 0 0 0 0 0 0 0 0 0 0 0 0 0 0 0 0 0 0 0 0 0 0 0 0 0 0 0 0 0 0 1 0 6
0 0 0 0 0 0 0 0 0 0 0 0 0 0 0 0 0 0 0 0 0 0 0 0 0 0 0 0 0 0 0 0 0 0 0 0 0 0 0 0 5 4 5
0 0 0 0 0 0 0 0 0 0 0 0 0 0 0 0 0 0 0 0 0 0 0 0 0 0 0 0 0 0 1 4 3 5 2 0 0 0 0 0 0 0 0
0 0 0 0 0 0 0 0 0 0 0 0 0 0 0 0 0 0 0 0 0 0 0 0 0 0 0 0 0 0 0 0 3 5 5 5 5 3 2 5 2 0 0
0 0 0 0 0 0 0 0 0 0 0 0 0 0 0 0 0 0 0 0 0 0 0 0 0 0 0 0 0 0 0 0 0 5 5 5 22 23 10 5 2 6 91
0 0 0 0 0 0 0 0 0 0 0 0 0 0 0 0 0 0 0 0 0 0 0 0 0 0 0 0 0 0 0 0 0 0 5 5 43 15 14 100 100 97 19
5 4 0 0 0 0 0 0 0 0 0 0 0 0 0 0 0 0 1 0 0 0 0 0 0 0 0 0 0 0 0 0 0 0 1 1 2 5 43 92 100 100 100
55 42 0 0 0 0 0 0 0 0 0 0 0 0 0 0 0 0 1 0 0 0 0 0 0 0 0 0 0 0 0 0 0 0 0 0 0 0 3 5 22 62 100
100 100 84 0 0 0 0 0 0 0 0 0 0 0 0 0 0 0 0 0 0 0 0 0 0 0 0 0 0 0 0 0 0 0 0 0 0 0 0 3 71 99 83
100 100 96 4 0 0 0 0 0 0 0 0 0 0 0 0 0 0 0 0 0 0 0 0 0 0 0 0 0 0 0 0 0 0 0 9 39 0 0 2 70 79 17
100 100 84 16 4 0 0 0 0 0 0 0 0 0 0 0 0 0 0 0 0 0 0 0 0 0 0 0 0 0 0 0 0 0 0 0 0 0 2 14 6 13 32
100 100 52 3 5 4 0 0 0 0 0 0 0 0 0 0 0 25 0 3 0 0 0 0 0 0 0 17 24 18 8 48 0 0 0 0 0 4 4 81 97 54 91
99 89 91 5 2 5 0 0 0 0 0 0 0 0 0 0 0 24 24 0 0 0 0 0 1 0 83 38 20 30 5 6 39 24 22 23 9 30 79 46 58 66 70
100 100 88 1 0 0 0 0 0 0 0 0 1 9 7 1 0 0 3 16 35 15 0 7 2 11 77 99 100 100 99 86 26 71 67 77 72 62 26 43 49 100 53
3 4 17 0 0 0 0 0 0 0 0 0 0 0 13 14 0 0 0 0 0 0 0 0 3 32 100 100 92 100 100 100 100 100 71 100 100 100 54 20 92 94 7
86 0 0 0 0 0 0 47 100 86 91 44 0 0 0 48 0 0 30 36 19 48 5 4 5 90 100 100 100 100 100 100 100 100 100 100 100 100 98 100 62 98 45
99 34 0 0 5 2 0 0 9 100 100 100 100 95 68 91 100 100 77 78 98 83 5 34 100 100 100 100 100 100 100 100 100 100 100 100 100 100 100 100 68 81 91
100 72 1 1 0 5 0 0 0 52 48 99 100 95 100 100 100 100 100 86 85 41 9 100 100 100 100 100 100 100 100 100 100 100 100 100 100 100 100 100 100 100 100
100 57 73 99 55 1 0 0 1 0 1 20 100 100 100 100 100 100 100 34 6 94 86 100 100 100 100 100 100 100 100 100 100 100 100 100 100 100 100 100 100 100 100
100 97 90 46 21 23 2 3 47 31 30 94 92 100 100 100 100 87 33 57 53 96 100 100 100 100 100 100 100 100 100 100 100 100 100 100 100 100 100 100 100 100 100
100 100 72 100 74 10 26 63 100 100 100 100 100 100 100 100 100 100 68 93 100 100 46 19 52 100 100 100 100 100 100 100 100 100 100 100 100 99 100 100 100 100 100
100 100 100 95 95 83 95 100 100 100 100 100 100 100 100 100 100 100 100 81 100 100 96 69 77 96 100 100 100 100 100 100 100 100 100 100 100 100 100 100 100 100 100
100 92 100 100 100 95 100 100 100 100 100 100 100 100 100 100 100 100 72 99 90 83 90 88 69 78 95 100 100 100 100 100 100 100 100 100 100 100 100 100 74 49 100
100 100 100 100 100 100 100 100 100 100 100 100 100 100 100 100 100 100 99 66 67 79 88 97 8 88 35 94 100 100 100 100 100 100 100 100 100 100 98 4 5 16 1
100 100 100 100 100 100 100 100 100 100 100 100 100 100 100 100 100 100 100 100 100 100 100 100 100 100 100 100 100 100 100 100 100 100 100 100 100 86 5 3 0 2 1
100 100 100 100 100 100 100 100 100 100 100 100 100 100 100 100 100 100 100 100 100 93 100 100 94 99 100 100 100 100 100 100 90 7 96 100 100 93 46 26 16 18 3

GFSGL_prec_cloud_060.txt.gz
Cloud_Cover
0 0 0 0 0 0 0 0 0 0 0 0 0 0 0 0 0 0 0 0 0 0 0 0 0 0 0 0 0 0 0 0 0 0 0 0 0 0 0 0 0 0 4
0 0 0 0 0 0 0 0 0 0 0 0 0 0 0 0 0 0 0 0 0 0 0 0 0 0 0 0 0 0 0 0 0 0 0 0 0 5 0 0 0 0 0
0 0 0 0 0 0 0 0 0 0 0 0 0 0 0 0 0 0 0 0 0 0 0 0 0 0 0 0 0 0 0 0 0 0 0 0 1 5 3 4 5 1 1
2 0 0 0 0 0 0 0 0 0 0 0 0 0 0 0 0 0 0 0 0 0 0 0 0 0 0 0 0 0 0 0 0 0 2 5 5 5 5 5 22 73 20
5 0 0 0 0 0 0 0 0 0 0 0 0 0 0 0 0 0 0 0 0 0 0 3 8 21 3 0 0 0 0 0 0 5 5 5 17 5 5 2 5 72 100
5 2 0 0 0 0 0 0 0 0 0 0 0 0 0 0 0 0 0 0 2 5 5 22 10 5 0 0 0 0 0 0 0 1 1 12 5 5 4 0 0 0 6
100 100 50 0 0 0 0 0 0 0 0 0 0 0 0 0 0 0 2 0 0 0 5 5 5 8 0 0 0 1 0 1 0 0 0 0 1 0 0 5 5 10 6
100 100 100 84 0 0 0 0 0 0 0 0 0 0 0 0 0 0 0 0 0 0 4 5 3 0 0 0 0 0 0 0 0 0 0 0 0 0 0 0 0 2 76
100 100 55 100 0 4 37 0 0 0 0 0 0 0 0 0 0 0 0 0 0 0 0 0 0 0 0 0 0 0 0 0 0 0 0 0 0 0 0 0 8 44 79
100 100 100 100 100 5 94 100 0 0 0 0 0 0 0 0 0 0 8 0 0 0 0 0 0 0 0 1 0 18 6 5 4 5 3 4 53 11 21 12 48 74 54
100 100 100 100 100 96 100 100 88 0 0 0 0 0 0 0 0 0 8 0 0 0 0 0 0 3 2 4 71 100 100 54 13 8 5 6 5 5 8 65 24 23 38
100 100 100 100 100 100 100 100 97 0 0 0 0 0 0 0 1 10 16 46 0 0 0 0 0 0 2 7 12 98 99 20 5 5 5 5 31 7 19 38 38 84 100
100 100 100 100 100 100 100 100 100 9 0 0 0 0 0 0 0 54 28 26 6 0 0 0 0 0 0 24 8 14 86 100 95 77 91 50 5 5 57 98 100 100 92
100 100 100 100 100 100 100 81 53 1 0 0 0 0 0 0 0 0 5 47 61 42 0 0 0 0 2 8 100 100 100 100 100 100 100 100 72 33 59 100 100 84 21
100 100 100 100 100 100 100 100 27 3 0 0 0 3 1 0 0 0 0 0 0 11 20 18 20 33 26 91 100 100 100 100 100 100 100 100 100 100 100 97 91 100 100
100 100 98 97 100 100 100 100 100 86 54 10 2 0 0 2 0 11 86 100 96 92 58 65 57 72 74 100 100 89 100 100 100 100 100 100 100 100 100 100 100 100 100
100 100 100 100 100 100 99 70 100 100 100 100 100 80 7 8 100 79 54 100 100 99 19 37 48 46 15 100 100 100 100 100 100 100 100 100 100 100 72 100 100 100 100
100 100 100 100 100 86 54 100 29 11 45 31 98 88 99 100 100 100 100 92 100 100 41 23 100 100 87 86 46 48 71 100 100 100 100 100 100 100 100 100 100 100 100
100 100 100 100 100 100 100 100 100 100 32 13 100 100 100 100 100 100 100 21 43 90 100 100 100 100 100 98 100 73 99 94 99 100 100 100 100 100 100 100 98 100 98
100 100 100 100 62 42 100 100 100 100 26 92 100 100 100 100 100 100 76 91 100 100 100 100 100 100 100 100 100 100 100 100 100 100 100 100 100 100 100 100 100 100 100
100 100 100 100 53 67 22 67 98 29 61 100 100 100 100 100 100 100 100 100 100 100 100 100 100 100 100 100 100 100 89 100 100 100 100 100 100 100 100 100 100 100 58
100 100 100 100 100 75 60 74 75 99 100 100 100 100 100 100 100 100 100 100 100 100 100 100 100 100 100 100 93 100 77 100 56 80 100 100 100 100 100 100 100 99 64
100 100 100 100 100 100 100 100 100 100 100 100 100 100 100 100 100 100 100 100 100 100 100 100 100 100 100 59 96 86 66 73 70 98 91 100 98 100 100 100 100 99 100
100 100 100 100 100 100 100 100 100 100 100 100 100 100 100 100 100 100 100 100 100 100 100 98 100 100 93 78 43 86 74 12 76 18 26 97 99 100 100 100 100 100 100
100 100 100 100 100 100 100 100 100 100 100 100 100 100 100 100 100 100 100 100 100 100 100 100 100 100 100 100 100 100 100 100 99 100 42 11 67 100 99 100 100 100 100
100 100 100 100 100 100 100 100 100 100 100 100 100 100 100 100 100 100 100 100 100 100 100 100 100 100 100 100 100 100 84 98 86 98 97 65 32 5 36 84 81 50 50

GFSGL_prec_cloud_063.txt.gz
Cloud_Cover
0 0 0 0 0 0 0 0 0 0 8 48 0 0 0 0 0 0 0 0 0 0 0 0 0 0 0 0 0 0 0 2 5 4 5 2 0 0 0 4 13 5 5
0 0 0 0 0 0 0 0 0 0 0 0 0 0 0 0 0 0 0 0 0 0 0 0 2 5 4 0 0 0 0 0 0 0 0 0 0 0 0 0 1 5 5
0 0 0 0 0 0 0 0 0 0 0 0 0 0 0 0 0 0 0 0 0 0 0 5 5 23 16 5 0 0 0 0 0 0 0 0 3 0 0 0 0 0 2
0 0 0 0 0 0 0 0 0 0 0 0 0 0 0 0 0 0 0 0 0 0 2 5 23 68 78 24 2 0 0 0 0 0 0 0 2 0 0 0 0 0 0
0 0 0 0 0 0 0 0 0 0 0 0 0 0 0 0 0 0 0 0 0 1 5 18 24 44 61 94 5 0 0 0 0 1 4 4 0 0 0 0 4 0 0
0 0 0 0 0 0 0 0 0 0 0 0 0 0 0 0 0 0 0 0 0 0 1 0 5 46 68 44 0 0 0 0 0 1 0 2 0 3 0 0 0 0 14
0 3 0 0 0 0 0 0 0 0 0 0 0 0 0 0 0 0 0 0 0 0 0 0 4 10 4 0 0 3 1 5 3 0 1 4 0 0 0 0 0 5 11
94 3 0 0 0 0 0 0 0 0 0 0 0 0 0 0 0 0 0 0 0 0 0 0 0 1 0 0 0 4 5 5 4 5 5 5 5 3 2 0 0 4 18
100 79 38 5 4 0 0 0 0 0 0 0 0 0 0 0 0 0 0 0 0 0 0 0 0 0 0 0 0 1 42 11 32 5 5 5 5 5 5 3 21 48 15
59 47 72 82 56 62 1 0 0 0 0 0 0 0 0 0 0 7 18 0 0 0 0 0 0 0 0 14 2 0 15 7 22 5 5 37 77 100 28 9 16 98 100
86 87 99 100 60 97 40 16 100 100 14 0 0 0 0 0 0 0 7 0 0 0 0 0 0 0 11 23 55 4 5 5 17 6 7 21 20 9 100 100 83 100 100
100 88 85 97 90 100 100 100 100 100 100 29 0 0 0 0 0 18 14 36 0 0 0 0 0 0 2 24 43 24 12 48 20 18 38 66 54 86 80 59 37 89 100
100 78 100 99 99 99 64 90 100 100 100 100 96 5 0 0 0 55 13 28 15 1 0 0 0 0 2 20 10 17 50 100 100 98 100 100 100 77 86 30 8 98 100
100 100 100 100 100 90 70 100 100 97 100 100 23 93 25 0 0 0 28 65 74 56 0 5 0 1 5 0 5 9 5 64 40 96 100 100 97 61 21 43 25 88 100
68 100 100 100 100 100 59 95 98 72 77 100 69 99 100 0 0 0 0 2 7 18 11 65 85 61 39 18 4 18 90 100 100 99 100 100 100 100 100 100 98 100 100
65 98 100 100 100 100 100 73 100 100 86 100 99 100 100 5 4 18 70 100 100 98 94 100 100 100 100 61 42 8 88 21 97 100 35 68 51 47 100 100 100 100 100
73 50 100 100 100 99 100 100 98 100 100 100 100 100 100 7 100 98 100 100 100 100 60 99 100 100 75 73 36 90 86 10 33 94 64 30 49 85 100 100 100 100 100
100 76 100 100 100 100 100 100 100 99 100 100 100 100 100 100 100 100 100 100 98 100 100 100 100 100 100 100 100 91 100 26 50 71 81 72 82 97 100 100 100 100 100
41 81 100 100 100 100 100 100 100 100 100 100 93 100 100 100 100 100 100 32 100 56 100 100 100 100 100 100 100 100 100 100 100 100 100 100 100 100 82 98 91 100 100
38 24 85 100 100 100 100 100 100 100 100 100 100 100 100 100 78 96 98 65 64 96 57 95 100 100 100 100 100 100 100 100 100 100 100 100 100 87 93 97 100 100 99
91 77 96 100 100 100 100 100 100 100 100 100 100 100 100 97 87 82 100 77 100 100 100 100 100 100 100 100 100 100 100 100 100 100 100 100 100 88 94 96 62 79 100
100 100 100 100 100 100 100 100 100 100 100 100 100 100 100 100 100 100 100 100 100 100 100 100 100 100 100 100 100 100 100 100 100 100 100 98 98 84 76 67 34 38 67
100 100 100 100 100 100 100 100 100 100 100 100 100 100 100 100 100 100 100 100 100 100 100 100 100 100 100 100 100 100 100 100 100 100 100 100 100 100 88 39 69 91 82
100 100 100 100 100 100 100 100 100 100 100 100 100 100 100 100 100 100 100 100 100 100 100 100 100 100 100 100 100 100 100 100 100 100 100 100 100 100 100 100 32 6 27
100 100 100 100 100 100 100 100 100 100 100 100 100 100 100 100 100 100 100 100 100 100 100 100 100 100 100 100 100 100 100 100 100 100 100 100 100 100 96 54 75 64 41
100 100 100 100 100 100 100 100 100 100 100 100 100 100 100 100 100 100 100 100 100 100 100 100 100 100 100 100 100 100 100 100 100 100 100 100 100 100 100 100 62 77 81

GFSGL_prec_cloud_066.txt.gz
Cloud_Cover
0 0 0 0 0 0 0 0 0 0 0 0 0 0 0 0 2 0 0 0 0 0 0 0 0 0 3 0 0 0 0 0 0 0 0 0 0 0 0 1 0 2 18
45 3 0 0 0 0 0 0 0 0 0 0 0 0 0 0 0 0 0 0 0 0 0 0 0 5 5 5 0 0 0 0 0 0 0 0 0 0 0 0 1 4 1
98 97 94 16 0 0 0 0 0 0 0 0 0 0 0 0 0 0 0 0 0 0 0 0 0 0 2 4 0 0 0 0 0 0 1 0 0 0 0 0 0 0 0
1 49 99 94 43 0 0 0 0 0 0 0 0 0 0 0 0 0 0 0 0 0 0 2 4 5 5 5 5 0 0 0 0 3 0 0 0 0 0 0 0 0 0
0 0 0 0 21 37 0 0 0 0 0 0 0 0 0 0 0 0 0 0 0 0 0 0 0 2 5 3 3 0 0 0 0 0 0 0 3 5 5 0 0 0 5
5 0 0 0 0 0 0 0 0 0 0 0 0 0 0 0 0 0 0 0 0 0 0 0 0 0 5 1 1 0 0 4 0 0 0 4 5 5 0 0 5 4 18
90 0 0 0 0 0 0 0 0 0 0 0 0 0 0 0 0 0 0 0 0 0 0 0 0 0 5 0 4 14 25 7 14 1 0 0 1 5 33 9 6 6 13
59 1 0 0 1 43 13 0 0 0 0 0 0 0 0 0 0 0 0 0 0 0 0 0 0 0 0 0 0 0 0 5 4 0 0 2 4 5 5 93 97 57 46
99 17 16 7 2 4 3 0 0 0 0 0 0 0 0 0 0 0 0 0 0 0 0 0 0 0 0 16 0 0 0 1 5 5 2 4 5 5 37 6 9 54 27
100 86 72 93 6 1 1 0 0 0 0 0 0 0 0 0 0 0 4 0 0 0 0 0 12 0 1 47 2 0 0 0 1 3 5 34 70 11 35 7 5 39 29
96 93 100 100 57 17 24 0 0 0 0 0 0 0 0 0 0 0 8 0 0 0 0 0 0 22 17 48 66 0 0 3 0 5 2 5 5 5 5 5 20 7 40
100 100 100 98 100 37 84 100 94 53 58 21 0 0 0 0 0 1 0 47 0 0 0 0 0 0 30 40 61 23 34 65 0 5 5 5 16 23 30 18 5 8 10
100 100 76 100 99 32 53 81 100 100 76 100 60 55 18 11 0 0 0 0 10 0 0 0 0 0 1 65 28 18 75 23 9 37 20 75 97 73 15 80 50 50 98
100 100 89 80 100 98 93 92 28 21 83 100 100 57 16 25 11 0 0 20 54 27 0 1 0 6 8 4 17 24 50 5 16 12 25 98 98 100 100 73 6 24 97
100 100 100 89 100 100 98 80 100 63 6 88 98 100 91 11 5 81 6 0 0 1 1 46 69 64 59 55 34 6 4 46 96 100 100 62 99 63 38 68 94 56 100
99 100 100 100 100 92 90 93 92 100 93 90 93 100 79 54 82 55 91 100 100 98 83 97 100 100 100 100 100 75 60 24 93 63 76 100 86 26 38 19 34 100 100
89 86 100 100 100 98 100 94 100 54 100 100 100 100 93 28 100 100 100 100 100 100 100 100 100 100 99 100 80 66 98 100 100 100 70 24 32 6 78 22 89 100 100
99 99 100 100 94 85 94 96 100 99 87 96 100 97 99 100 100 100 100 100 100 100 100 100 100 94 82 99 100 100 100 100 100 100 100 100 100 100 100 98 89 100 100
100 92 99 100 100 100 72 100 99 100 100 31 100 100 100 100 100 100 100 90 100 100 100 100 100 100 86 99 100 100 100 100 97 100 100 100 100 100 100 100 100 100 100
100 100 100 100 100 100 92 76 98 86 100 81 100 100 100 100 100 100 100 93 51 100 100 100 100 100 100 100 100 100 100 100 100 100 100 100 100 100 100 100 100 97 37
100 100 100 100 100 100 100 87 52 84 100 96 100 100 100 100 97 98 100 100 100 100 100 100 100 100 100 100 100 100 100 100 100 100 100 100 100 100 100 100 100 100 48
100 100 100 100 100 100 100 100 85 83 100 100 100 100 100 100 67 96 100 100 100 100 100 100 100 100 100 100 100 100 100 100 100 100 100 100 99 100 100 100 93 91 79
100 100 100 100 100 100 100 100 96 81 99 100 100 100 100 100 100 100 100 100 100 100 100 100 100 100 100 100 100 100 100 100 100 100 100 91 99 100 97 100 100 100 100
100 100 100 100 100 100 100 100 85 100 100 100 100 100 100 100 100 100 100 100 100 100 100 100 100 100 100 100 100 100 100 100 60 100 100 100 100 100 100 100 100 100 100
100 100 100 100 100 100 100 100 100 100 100 100 100 100 100 100 100 100 100 100 100 100 100 100 100 100 100 100 100 100 100 100 100 100 89 99 100 100 100 100 100 100 100
100 100 100 100 100 100 100 100 100 100 100 100 100 100 100 100 100 100 100 100 100 100 100 100 100 100 100 100 100 100 100 100 100 100 100 99 99 100 100 100 100 100 100

GFSGL_prec_cloud_069.txt.gz
Cloud_Cover
14 4 0 0 0 0 0 0 0 0 0 0 0 0 0 0 0 0 0 0 0 0 0 0 0 5 5 4 0 0 0 0 0 0 0 0 0 0 0 0 0 0 0
99 99 58 58 0 0 0 0 0 0 0 0 0 0 0 1 0 0 4 0 0 0 0 0 1 5 5 4 0 0 0 0 0 0 0 0 0 0 0 0 0 0 0
100 100 100 97 17 0 0 0 0 0 0 0 0 0 0 0 0 0 0 2 0 0 0 0 0 3 6 5 5 0 4 0 0 0 0 0 0 0 0 1 0 0 4
98 90 90 94 94 88 7 0 0 0 0 0 0 0 0 0 0 0 0 0 0 0 0 0 0 2 4 5 5 3 5 0 0 5 5 0 3 1 0 4 3 0 0
100 80 2 0 23 100 98 23 0 0 0 0 0 0 0 0 0 0 0 0 0 0 0 0 0 0 0 5 5 2 5 5 5 2 7 30 57 5 5 5 5 4 4
100 100 1 0 0 0 5 98 97 2 0 0 0 0 0 0 0 0 0 0 0 0 0 0 0 0 16 2 0 0 5 1 5 5 93 5 11 68 26 4 5 5 5
100 100 100 23 3 0 0 0 0 3 0 0 0 0 0 0 0 0 0 0 0 0 0 0 0 0 0 0 16 25 36 6 9 5 5 19 16 6 5 5 5 21 9
100 100 100 100 43 26 28 5 0 0 0 0 0 0 0 0 0 0 0 0 0 0 0 0 0 0 0 0 0 0 0 4 2 5 5 5 5 5 1 12 32 24 8
100 100 100 100 98 18 50 18 3 1 0 0 0 0 0 0 0 0 5 0 0 0 0 0 0 0 0 0 0 0 0 0 3 3 5 5 5 5 56 9 5 5 5
100 100 100 100 100 100 56 29 50 68 28 3 0 0 0 0 0 0 9 0 0 0 0 0 0 0 0 0 0 0 0 0 0 5 1 36 58 5 42 9 17 4 5
93 100 100 100 100 100 24 86 91 84 73 54 34 2 0 0 0 0 0 0 0 0 0 0 0 0 5 35 51 1 5 4 0 5 5 5 5 5 5 5 5 6 5
100 93 100 100 99 100 100 12 53 64 70 63 73 69 20 10 0 0 0 53 0 0 0 0 0 0 27 45 82 1 4 70 0 5 5 27 20 5 5 6 12 5 5
100 100 99 100 96 100 100 38 6 42 98 70 89 99 41 13 9 8 0 0 2 0 0 0 0 0 24 68 78 0 75 6 0 4 5 20 77 83 97 100 97 5 22
25 98 100 84 99 99 100 52 57 8 30 100 85 68 56 39 23 13 0 2 54 29 0 4 0 9 9 13 22 34 1 0 3 5 5 24 52 64 31 89 68 86 59
10 89 37 100 99 92 100 98 65 76 32 13 31 62 39 15 6 0 0 0 0 0 0 3 15 33 11 6 15 20 4 4 0 2 4 5 6 99 98 90 52 5 2
63 7 100 78 100 73 100 92 100 99 98 93 94 53 5 5 6 40 95 95 94 96 10 17 34 36 96 100 100 7 0 0 4 41 84 100 62 58 68 97 32 5 4
100 85 92 100 100 100 73 100 99 100 100 100 100 100 100 10 99 100 100 100 100 100 100 54 35 53 61 99 66 30 2 5 37 100 100 100 100 100 100 100 100 100 95
100 100 99 100 100 100 100 100 24 47 75 92 87 94 99 100 100 100 100 100 100 100 100 97 97 85 100 96 98 93 75 100 100 100 100 100 100 100 100 100 100 100 100
100 100 100 100 100 98 100 100 98 12 83 100 92 100 98 100 100 100 100 100 100 100 100 99 100 88 87 62 46 82 98 100 100 100 100 100 100 100 100 100 100 100 100
100 100 100 100 68 97 100 98 100 86 93 100 100 100 65 100 100 100 100 98 100 100 100 100 46 96 100 100 90 98 100 100 100 100 100 100 100 100 100 95 73 100 100
100 100 100 100 100 100 100 100 100 100 100 65 100 98 98 95 66 100 100 100 99 68 84 97 86 100 100 95 99 100 100 100 100 100 100 100 100 100 100 100 100 100 100
100 100 100 100 100 100 100 100 100 100 76 100 100 100 99 92 72 100 100 100 100 100 98 92 98 86 92 100 100 100 100 100 100 100 100 100 100 100 100 100 100 100 91
100 100 100 100 100 100 100 100 100 100 100 100 100 99 62 93 97 95 100 100 100 100 100 100 100 100 100 100 100 100 100 100 100 100 100 100 100 100 100 100 100 96 79
100 100 100 100 100 100 100 100 100 100 100 100 100 100 95 100 100 100 100 100 100 100 100 100 100 100 100 100 100 100 100 100 100 100 100 100 100 100 100 85 76 76 59
100 100 100 100 100 100 100 100 100 100 100 100 100 94 100 100 100 100 100 100 100 100 100 100 100 100 100 100 100 100 100 100 100 100 100 100 100 100 100 100 79 100 100
100 100 100 100 100 100 100 100 100 100 100 100 100 100 100 100 100 100 100 100 100 100 100 100 100 100 100 100 100 100 100 100 100 100 100 100 100 100 100 100 100 100 100

GFSGL_prec_cloud_072.txt.gz
Cloud_Cover
5 14 10 0 0 0 0 0 0 0 0 0 0 4 1 4 0 0 6 5 0 0 0 0 1 5 29 19 3 0 0 0 0 0 0 0 0 0 0 1 0 5 5
5 0 5 41 26 0 0 0 0 0 0 0 0 0 0 0 0 1 5 5 5 0 0 0 3 0 5 5 9 0 0 0 0 5 0 0 0 0 0 5 5 5 5
100 75 54 21 91 5 0 0 0 0 0 0 0 1 0 5 9 0 0 5 0 0 0 0 0 0 4 5 18 2 0 5 5 7 24 23 22 4 0 2 5 5 8
80 11 3 86 0 25 0 1 0 0 0 0 0 0 0 0 7 10 5 0 5 0 1 0 0 5 0 2 5 5 4 5 6 53 71 100 100 59 5 5 41 76 83
75 100 82 2 13 0 0 0 3 0 0 0 0 0 0 0 0 0 0 0 0 0 1 0 0 0 0 0 23 7 5 8 92 52 88 84 68 21 5 40 63 96 100
100 100 100 100 95 28 11 0 0 8 7 0 0 0 0 0 0 0 0 0 0 0 0 0 0 0 0 1 0 5 5 5 50 44 38 54 5 5 27 11 6 51 99
100 100 100 100 100 100 81 53 4 0 0 0 0 0 0 0 0 0 0 0 0 0 0 0 0 0 0 0 59 25 39 5 14 5 5 5 4 5 7 11 4 4 13
100 100 99 92 100 84 100 100 93 57 25 2 0 0 0 0 0 0 0 0 0 0 0 0 0 0 0 0 0 0 0 2 5 5 5 1 4 0 3 5 4 0 0
100 98 100 100 100 100 100 70 32 100 99 49 19 3 0 0 0 0 3 0 0 0 0 0 0 0 0 0 0 0 0 0 0 0 2 2 5 0 33 4 0 1 0
100 100 100 100 100 100 100 100 100 75 6 53 87 39 28 0 0 0 6 0 0 0 0 0 0 0 0 0 0 0 0 0 0 0 0 2 45 0 38 9 3 0 5
73 92 97 100 100 100 99 100 100 98 10 22 11 97 83 7 2 0 0 0 0 0 0 0 0 0 0 0 1 0 0 2 0 0 0 0 0 0 0 1 0 0 0
97 99 36 100 95 100 100 100 81 100 100 15 6 34 74 45 3 1 0 71 0 0 0 0 0 0 0 0 44 0 0 66 0 0 0 0 2 2 0 0 0 4 5
0 43 97 96 100 100 43 98 99 89 65 11 5 4 56 100 41 1 0 0 8 5 0 0 0 0 0 65 22 0 73 2 0 0 0 2 2 0 3 5 5 18 57
0 1 2 0 97 9 100 93 61 46 98 68 27 92 5 66 42 78 50 6 56 38 0 0 0 1 25 15 9 34 1 0 0 0 0 0 0 4 5 54 5 14 4
0 0 0 0 6 94 69 100 98 42 47 100 81 83 17 7 33 94 100 100 22 1 0 0 0 0 0 0 0 0 0 0 0 0 0 1 5 5 0 1 3 2 2
30 0 0 0 0 0 1 8 74 99 20 100 56 50 10 32 33 93 93 97 96 94 11 4 0 0 0 0 0 0 0 0 0 0 0 22 99 100 82 34 99 95 98
100 96 23 27 0 0 0 1 9 37 75 100 100 100 100 46 79 100 100 100 100 83 96 98 16 1 9 20 11 5 0 0 0 0 0 18 93 100 100 100 100 100 100
100 100 100 23 33 78 22 2 2 49 50 49 32 100 100 100 100 100 100 100 100 100 100 99 88 38 55 96 94 90 44 36 7 1 24 20 98 38 92 88 68 94 98
100 100 100 98 60 73 100 68 5 3 5 8 5 82 100 100 100 100 100 100 100 100 100 100 100 82 99 90 97 82 61 96 100 100 100 100 100 80 93 66 29 20 11
100 100 100 90 87 97 34 51 2 19 58 5 5 68 88 98 99 84 96 100 86 100 100 100 100 100 100 81 100 87 82 87 91 95 100 100 100 100 100 100 100 43 31
100 100 100 100 74 100 99 74 22 21 22 82 19 49 66 5 100 95 87 98 62 100 100 100 100 100 100 56 50 96 100 100 100 100 100 100 100 100 100 100 100 100 100
100 100 100 100 100 100 89 100 100 99 14 45 100 100 98 23 93 91 100 100 96 75 100 100 100 100 86 100 100 64 100 100 87 53 100 100 100 100 100 100 100 100 100
100 100 100 100 100 100 100 100 100 100 97 23 100 100 100 72 88 84 80 70 91 99 100 100 100 100 100 100 94 98 100 100 100 100 100 100 100 100 100 100 100 100 100
100 100 100 100 100 100 100 100 100 100 100 16 16 66 100 98 99 99 100 100 100 100 100 100 100 100 100 100 100 100 100 100 100 100 100 100 100 100 100 100 100 100 100
100 100 100 100 100 100 100 100 100 100 100 100 94 52 43 94 100 100 100 100 100 100 100 100 100 100 100 100 100 100 100 100 100 100 100 100 100 100 100 100 100 100 100
100 100 100 100 100 100 100 100 100 100 100 100 100 100 100 88 76 100 100 100 100 100 100 100 100 100 100 100 100 100 100 100 100 100 100 100 100 100 100 100 100 100 100

GFSGL_prec_cloud_075.txt.gz
Cloud_Cover
4 1 1 4 2 9 0 0 0 0 0 1 28 98 95 40 10 8 9 56 5 1 0 98 4 5 7 40 17 1 0 0 0 0 17 6 0 0 0 1 12 76 100
18 24 8 41 11 26 4 0 0 0 0 0 0 4 38 71 68 8 24 17 5 3 0 0 0 5 5 5 8 0 0 1 0 4 5 0 0 0 4 5 92 99 100
61 54 8 16 5 6 20 4 0 0 0 0 1 0 24 100 100 65 25 4 31 5 3 0 0 0 1 5 30 2 3 2 3 5 5 0 1 0 3 55 51 58 13
100 84 24 11 2 54 62 27 18 0 0 0 0 16 6 19 87 100 100 99 6 66 5 2 0 2 0 0 5 6 2 5 6 26 5 5 5 4 5 5 5 90 97
100 100 80 62 13 44 25 29 3 22 0 0 0 0 1 0 0 5 10 7 20 4 17 0 0 0 0 0 0 9 5 5 5 6 5 5 5 5 5 35 100 87 50
100 86 98 9 92 76 86 36 52 25 0 0 0 0 0 0 0 2 5 5 2 0 4 0 0 0 0 0 0 0 4 2 5 5 5 5 5 5 5 6 85 18 47
100 100 96 74 100 100 100 74 99 36 52 4 0 0 0 0 0 0 0 0 6 18 0 0 0 0 0 0 0 0 0 0 0 0 0 4 1 1 2 4 5 5 6
100 100 100 100 93 96 100 100 100 87 28 10 14 0 0 0 0 0 0 0 0 0 0 0 0 0 0 4 0 0 0 0 0 0 0 0 0 1 0 0 0 5 49
99 95 100 100 100 100 95 100 99 14 61 95 53 2 1 0 0 0 0 0 0 0 0 0 0 0 0 0 0 0 0 0 0 0 0 0 0 0 0 0 0 4 4
97 40 50 86 100 100 100 100 100 96 100 74 16 14 0 0 0 0 1 0 0 0 0 0 0 0 0 0 0 0 0 0 0 0 0 1 39 0 6 9 0 0 26
55 7 28 91 86 84 99 100 98 95 100 100 59 0 0 0 0 0 0 1 0 0 0 0 0 0 0 0 0 0 0 2 0 0 0 0 0 0 0 0 1 5 8
0 0 0 0 12 7 74 100 87 94 99 100 100 100 22 4 0 0 0 73 0 0 0 0 0 0 0 0 1 0 0 66 0 0 0 1 0 0 0 0 0 5 9
0 0 0 0 0 0 3 81 100 92 72 100 100 100 100 77 33 4 22 0 5 0 0 0 0 0 0 65 8 0 10 2 0 0 0 0 0 0 0 0 0 0 0
0 0 0 0 0 0 0 5 76 100 100 61 78 49 100 100 100 35 77 14 61 31 0 1 0 0 37 8 20 20 0 0 0 0 0 0 0 0 0 0 0 0 0
0 0 0 0 0 0 0 0 4 90 100 80 100 98 58 100 100 79 96 87 90 30 4 30 3 0 0 0 0 0 0 0 0 0 0 0 0 0 0 0 0 0 0
3 0 0 0 0 0 0 0 0 1 81 100 100 100 92 78 43 92 100 100 100 100 62 61 33 14 19 3 0 1 0 0 0 0 0 0 0 3 5 1 4 4 5
77 85 31 3 0 0 0 0 0 0 1 35 100 100 100 100 93 100 99 100 100 100 100 100 100 98 5 32 0 16 37 13 19 0 0 0 0 5 95 7 6 54 33
100 77 97 30 26 4 0 0 0 0 0 8 15 100 98 98 100 100 100 98 19 68 77 100 100 85 24 17 15 13 96 100 98 8 49 24 0 0 62 77 99 100 99
100 99 95 100 100 90 74 45 4 0 0 0 0 2 100 100 95 100 100 82 5 5 5 100 100 100 89 12 8 51 8 20 42 67 92 100 100 100 100 66 33 100 100
100 99 92 100 47 94 100 60 11 5 0 0 0 0 0 73 68 91 100 65 6 8 5 94 97 100 28 64 20 14 38 15 5 10 89 88 99 51 87 100 100 100 100
100 100 100 70 93 100 100 100 100 58 2 0 0 0 0 0 2 1 20 49 100 62 20 5 5 91 52 7 100 100 90 99 30 99 100 100 100 100 99 58 100 54 87
100 100 100 100 98 100 100 100 100 100 87 44 4 0 0 0 0 3 5 29 100 96 31 94 5 8 98 100 100 100 75 100 100 100 100 100 100 100 100 100 62 81 100
100 100 100 100 100 100 100 100 100 100 100 100 45 2 0 0 1 48 18 5 5 17 92 87 60 47 100 97 100 100 100 100 100 100 100 99 93 67 100 100 100 100 100
99 100 100 100 100 100 100 100 100 100 100 100 100 64 0 0 0 22 41 56 5 37 66 97 100 100 100 99 100 100 100 100 100 100 100 100 100 100 100 100 100 100 100
100 100 100 100 100 100 100 100 100 100 100 100 100 100 64 1 7 4 1 19 58 71 62 92 100 100 100 100 100 100 100 100 100 100 100 100 100 100 100 100 100 100 100
100 100 100 100 100 100 100 100 100 100 100 100 100 100 100 100 37 37 87 80 70 77 94 100 100 100 100 100 100 100 100 100 100 100 100 100 100 100 100 100 100 100 100

GFSGL_prec_cloud_081.txt.gz
Cloud_Cover
100 7 2 0 0 0 0 0 0 0 22 38 63 100 100 100 97 86 100 1 5 1 0 0 0 0 0 0 2 0 0 0 26 100 0 1 4 0 0 0 2 52 100
100 100 77 93 5 3 0 0 0 0 0 0 11 100 100 100 100 100 81 2 26 5 5 5 0 0 22 0 0 0 0 0 0 4 0 1 1 0 0 0 1 0 4
100 100 100 96 32 100 85 46 100 100 0 0 0 0 9 63 80 16 3 3 4 5 18 6 21 0 0 4 5 0 0 1 0 0 0 5 5 0 0 0 1 0 5
100 100 100 100 100 100 100 100 100 100 71 60 0 0 0 0 0 0 14 88 15 6 5 2 3 0 0 0 5 5 5 5 1 1 1 1 1 2 1 0 0 5 3
100 100 94 100 100 100 100 100 100 100 100 100 33 0 0 0 0 0 0 4 69 100 45 5 2 0 0 0 4 0 5 5 5 5 0 0 0 5 2 0 0 5 3
100 100 100 100 100 100 100 100 100 100 100 100 100 4 0 0 0 0 0 0 0 0 21 26 5 0 1 38 54 6 5 0 0 5 0 0 2 5 2 0 0 3 6
100 100 100 100 100 100 100 100 100 100 100 100 100 100 22 1 5 26 0 0 0 0 0 0 0 0 0 0 0 1 5 5 2 5 4 0 0 0 0 0 0 5 5
100 100 100 100 100 100 100 100 100 100 100 100 60 99 3 0 0 5 28 0 0 0 0 0 0 0 0 0 0 0 0 0 0 0 0 0 0 0 0 0 0 4 17
100 100 100 100 100 100 100 100 100 100 100 100 59 8 78 82 2 5 75 56 2 0 0 0 0 0 0 0 0 0 0 0 0 0 0 0 0 0 0 0 0 0 5
100 100 100 100 100 100 100 100 100 100 100 100 96 18 14 98 92 77 40 22 43 5 1 0 0 0 0 0 0 0 0 0 0 0 0 0 14 2 0 0 0 0 0
94 100 100 100 100 97 100 100 100 95 100 100 80 100 100 100 71 73 100 16 0 6 5 3 0 0 0 0 0 0 0 0 0 0 0 0 0 0 0 0 0 0 0
100 98 100 100 100 100 100 100 100 100 100 100 100 100 100 98 51 42 14 99 13 6 8 5 2 0 0 0 0 0 0 0 0 0 0 0 0 0 0 0 0 0 0
45 97 100 100 100 100 100 100 100 100 100 100 100 100 100 68 12 32 82 100 94 46 14 8 42 15 0 1 0 0 0 0 0 0 0 0 0 0 0 0 0 0 0
0 1 29 100 100 100 100 100 100 100 94 98 100 100 100 100 100 97 76 10 100 100 94 35 51 65 10 17 47 1 0 0 0 0 0 0 0 0 0 0 0 0 0
0 0 0 20 64 34 60 54 76 94 5 89 100 100 100 100 97 83 87 28 36 98 100 100 100 100 93 7 0 0 0 0 0 0 0 0 0 0 0 0 0 0 0
0 0 0 0 0 0 0 0 0 3 100 100 100 88 100 100 100 83 59 17 13 99 44 100 100 100 100 100 100 15 0 0 0 0 0 0 0 0 0 0 0 0 0
0 0 0 0 0 0 0 0 0 0 5 83 0 6 18 100 100 98 58 5 100 100 90 5 58 100 100 100 100 100 98 8 0 1 0 0 0 0 0 0 0 0 0
5 9 0 3 1 0 0 0 0 0 0 0 0 0 0 0 0 2 4 80 8 88 22 5 5 88 100 100 57 16 86 95 98 18 59 77 2 1 0 0 0 0 0
5 5 0 0 0 0 0 0 0 0 0 0 0 0 0 0 0 19 98 2 0 0 0 0 2 4 100 100 100 99 75 33 62 53 21 98 100 100 100 86 1 7 4
24 4 0 3 4 4 4 61 97 29 2 0 0 0 0 0 0 0 0 0 0 0 0 0 0 5 5 49 100 100 95 43 5 5 100 76 75 100 100 100 100 20 40
72 28 5 0 0 9 47 56 57 99 100 93 47 2 0 0 0 0 0 0 0 0 0 0 7 10 4 5 28 96 90 71 99 5 49 97 62 93 100 98 100 100 100
0 2 2 0 4 5 5 86 99 63 50 58 83 99 79 97 28 0 0 0 0 0 0 0 0 0 0 0 1 11 49 69 60 83 95 100 100 12 100 100 100 100 100
0 0 0 5 33 87 27 16 58 93 100 100 100 100 100 100 100 100 74 0 0 0 0 0 0 0 16 78 75 62 93 96 90 100 98 100 100 100 100 100 100 100 100
0 4 5 5 5 88 100 98 100 100 100 100 100 100 100 100 91 79 100 100 87 1 1 38 33 80 94 76 68 100 100 94 99 100 100 96 100 70 88 99 100 100 100
8 72 5 5 5 26 100 100 100 100 100 100 100 100 100 99 90 100 100 100 100 81 26 4 54 55 98 100 100 100 98 100 100 100 100 100 100 100 100 100 100 100 100
2 5 41 94 5 31 99 57 100 100 100 100 100 100 100 100 100 100 100 100 100 100 93 43 98 100 85 97 100 100 100 100 95 100 100 99 100 100 100 100 100 100 100

GFSGL_prec_cloud_084.txt.gz
Cloud_Cover
100 100 93 35 100 100 10 2 0 2 62 100 55 97 100 96 100 100 96 43 0 5 82 76 100 11 5 100 12 4 1 0 0 0 0 0 0 3 4 34 11 39 4
100 100 100 99 100 100 100 100 100 100 100 100 21 5 20 86 100 100 100 53 3 4 21 76 44 3 0 5 5 0 0 0 0 0 0 0 0 0 0 0 0 5 4
100 100 100 100 100 100 100 100 100 100 100 100 100 100 84 38 38 47 6 10 7 5 16 46 40 3 4 4 5 5 5 5 0 0 0 0 2 0 0 0 0 0 0
100 100 100 100 100 100 100 100 100 100 100 100 100 100 100 99 16 0 2 1 5 16 87 91 25 4 5 4 5 5 5 5 5 3 0 0 0 0 0 4 1 1 3
100 100 100 100 100 100 100 100 100 100 100 100 100 100 100 100 100 92 88 5 14 5 88 100 36 1 5 0 0 1 16 8 1 5 0 0 1 0 0 5 4 0 3
100 100 100 100 100 100 100 100 100 100 100 100 100 100 100 100 100 100 100 82 5 4 5 9 5 0 1 0 0 3 5 27 2 4 5 1 0 0 0 0 0 3 1
100 100 100 100 100 100 100 100 100 100 100 100 100 100 100 100 100 78 5 5 5 13 32 0 0 0 0 0 0 0 2 5 4 0 5 5 0 0 0 0 0 4 0
100 100 100 100 100 100 100 100 100 100 100 100 100 100 100 99 91 99 42 5 0 1 26 11 0 0 0 0 0 0 0 0 0 0 0 0 5 0 0 0 0 0 2
100 100 100 100 100 100 100 100 100 100 100 100 100 100 100 100 60 58 36 30 5 43 96 52 5 1 0 4 0 0 0 0 0 0 0 0 0 0 0 0 0 9 4
100 100 100 100 100 100 100 100 100 100 100 100 100 100 100 100 100 63 62 28 99 55 100 28 15 5 5 1 0 0 0 0 0 0 0 0 6 0 0 0 0 0 6
100 100 100 100 100 100 100 100 100 100 100 100 100 100 100 100 99 99 95 43 5 9 40 100 99 16 8 57 20 0 0 0 0 0 0 0 0 0 0 0 0 0 0
0 39 100 100 100 100 100 100 100 100 100 100 100 100 100 100 97 90 75 97 65 52 66 23 40 42 76 36 7 0 0 0 0 0 0 0 0 0 0 0 0 0 0
0 0 0 77 100 100 100 100 100 100 100 100 100 100 100 100 100 100 100 100 96 46 93 100 100 96 74 48 26 4 6 29 51 49 0 0 0 0 0 0 0 0 0
0 0 0 0 0 12 100 100 100 100 100 100 100 100 100 100 100 100 100 99 65 43 10 51 100 70 94 74 71 5 5 0 0 0 0 0 0 0 0 0 0 0 0
0 0 0 0 0 0 4 94 100 100 100 100 100 100 100 100 100 100 100 99 51 5 13 5 32 76 14 4 1 18 19 10 0 0 0 0 0 0 0 0 0 0 0
0 0 0 0 0 0 0 0 1 19 99 100 100 100 100 100 100 100 100 77 26 30 86 100 84 10 33 44 24 41 100 100 59 25 2 0 0 0 0 0 0 0 0
0 0 0 0 0 0 0 0 0 0 19 92 100 100 100 100 100 94 37 89 100 98 91 100 100 95 64 20 52 84 92 89 100 99 97 14 0 0 0 0 0 0 0
5 1 0 0 0 0 0 0 0 0 0 8 17 100 100 100 100 100 59 80 38 99 63 79 100 100 42 50 5 68 67 69 45 92 100 100 29 2 6 3 1 3 19
0 0 0 5 0 0 0 0 0 0 0 0 3 5 72 100 100 100 100 64 18 0 12 5 31 43 15 4 5 8 72 78 8 15 34 19 25 63 60 77 100 100 100
0 0 0 0 0 0 0 0 0 6 16 27 29 25 7 0 41 100 91 22 2 0 0 10 5 3 0 0 22 27 8 11 36 14 22 33 13 31 86 100 100 100 100
73 5 5 1 0 0 0 0 2 5 5 4 14 13 10 0 0 6 8 1 0 0 0 0 0 1 0 0 21 100 82 99 78 6 42 44 54 96 98 99 100 100 100
100 76 51 12 13 5 3 24 100 99 92 73 87 80 76 84 25 50 85 29 98 79 8 0 0 0 0 0 1 86 100 100 28 40 92 100 98 91 91 100 100 100 100
100 100 100 87 37 7 5 5 32 74 67 100 100 100 100 97 95 98 48 62 100 63 95 94 12 0 15 11 72 88 96 100 100 100 100 100 100 100 95 80 80 100 100
20 68 91 45 8 7 5 5 8 35 46 93 100 100 100 100 100 100 100 100 90 54 100 96 52 12 0 53 32 23 100 100 100 100 100 100 100 100 100 100 97 56 100
6 0 0 0 0 9 15 5 100 90 45 87 100 100 100 100 100 100 100 100 100 100 96 100 60 100 99 97 97 100 100 100 100 100 100 100 100 100 100 100 100 100 100
5 0 0 1 8 15 25 37 99 99 72 100 100 98 100 100 100 100 100 100 100 100 100 100 100 99 100 100 100 100 100 100 100 100 100 85 100 100 100 100 100 100 100

GFSGL_prec_cloud_087.txt.gz
Cloud_Cover
67 100 78 43 5 93 100 78 11 99 93 100 76 100 83 5 4 96 99 100 7 6 5 7 17 5 5 100 58 23 0 0 0 0 0 0 0 0 4 5 2 5 20
100 82 100 100 99 100 100 100 100 100 100 100 100 100 100 85 64 100 100 69 78 100 53 3 6 1 5 4 52 7 28 5 1 0 0 0 0 0 0 0 0 1 13
100 100 100 87 100 100 96 100 100 100 100 100 100 100 100 100 100 100 100 100 81 97 38 6 4 2 3 4 4 5 7 5 5 5 0 0 0 0 0 0 0 0 29
100 100 100 70 100 97 92 100 100 100 100 100 100 100 100 100 100 100 100 100 100 100 85 68 82 3 5 2 0 5 5 5 5 39 5 1 0 0 1 0 0 0 22
100 100 100 100 100 93 98 96 85 100 100 100 100 100 100 100 100 100 100 100 94 21 98 46 88 44 1 2 0 2 4 5 1 5 55 5 1 0 0 0 0 0 0
100 100 100 100 100 91 96 56 87 100 54 57 55 100 100 100 100 100 100 100 100 58 73 10 57 77 72 0 0 0 2 5 4 0 4 5 4 3 0 0 0 0 0
100 100 100 100 100 100 100 100 100 79 93 100 100 100 100 100 100 100 100 100 100 100 96 5 4 32 100 63 3 0 0 0 7 5 0 5 1 4 0 0 0 0 0
100 100 100 100 100 100 100 100 100 100 94 54 93 100 100 100 100 100 100 100 100 100 87 5 6 8 100 100 17 0 0 0 0 4 0 0 0 1 0 0 0 0 0
100 100 100 100 100 100 100 100 100 100 100 100 100 100 100 100 100 100 100 100 100 100 76 34 56 59 63 100 100 83 4 0 0 0 0 0 0 0 0 0 0 2 0
100 100 100 100 100 100 100 100 100 100 100 100 100 100 100 100 100 100 100 100 100 100 97 99 100 100 77 99 100 100 13 1 0 0 0 3 10 0 0 0 0 2 1
100 100 100 100 100 100 100 100 100 100 100 100 100 100 100 100 100 100 100 100 100 100 100 100 97 70 97 100 100 100 68 14 42 0 0 0 0 7 0 0 0 0 0
100 100 100 100 100 100 100 100 100 100 100 96 100 100 100 100 100 100 100 100 100 100 100 100 98 100 100 100 99 100 99 75 10 21 44 3 0 0 0 0 0 0 0
5 98 100 100 100 100 100 100 100 100 100 100 100 100 100 100 100 100 100 100 100 100 100 100 88 16 61 75 21 34 89 36 33 14 0 0 0 0 0 0 0 0 0
86 47 97 100 100 100 100 100 100 100 100 100 100 100 100 100 100 100 100 100 100 100 100 100 100 99 34 58 68 15 31 100 15 0 2 1 1 0 0 0 0 0 0
0 72 100 100 100 100 100 100 100 100 100 100 100 100 100 100 100 100 100 100 100 100 100 100 99 100 54 6 5 5 14 30 63 27 24 10 28 48 26 0 0 0 0
0 0 5 98 100 100 100 100 100 100 100 100 100 100 100 100 100 100 100 100 100 100 100 100 100 81 56 29 5 5 5 1 48 10 22 61 62 62 49 14 0 0 0
0 0 0 0 1 64 74 28 4 0 3 37 100 100 100 100 100 100 100 100 100 100 100 100 100 100 96 90 22 5 3 3 0 6 6 86 100 100 100 95 43 31 8
0 0 0 0 0 0 0 0 0 3 0 0 0 13 70 100 100 100 100 100 100 100 100 100 100 100 100 76 50 17 5 5 5 3 5 6 37 44 90 100 100 97 82
0 0 0 0 0 0 0 0 1 0 0 0 0 0 0 0 0 0 5 71 100 100 100 100 100 100 91 100 100 96 78 14 7 7 16 15 27 51 90 100 100 100 100
1 4 1 0 0 0 0 0 0 0 10 4 0 0 1 0 2 0 0 0 2 54 91 100 100 100 100 98 100 100 100 98 31 46 53 100 90 84 93 57 93 87 100
5 4 5 5 5 0 0 0 0 0 0 5 5 5 5 37 58 45 50 13 13 8 30 92 100 96 100 100 99 87 8 2 89 56 46 100 37 72 44 18 44 100 100
0 4 5 6 5 5 5 4 0 0 0 5 4 5 5 5 5 26 70 87 80 94 92 27 6 54 94 100 100 99 17 5 29 60 100 99 100 100 100 99 93 69 82
5 4 0 5 24 21 5 5 5 0 0 5 5 5 5 5 23 25 25 89 100 100 100 100 100 65 17 89 100 97 82 90 100 100 98 100 100 100 100 100 100 100 95
5 5 5 5 5 4 5 6 5 6 5 5 5 5 5 5 5 6 12 91 100 100 100 100 100 100 96 22 46 100 100 65 88 100 100 100 100 90 100 100 100 100 100
5 5 5 5 5 5 4 13 13 5 13 99 82 72 43 66 100 99 86 61 75 95 100 100 100 100 100 100 99 100 100 84 100 100 100 100 100 100 100 100 100 100 100
16 8 3 0 2 12 23 18 19 6 4 55 93 100 100 100 100 100 100 100 100 100 100 100 100 100 100 100 100 100 100 45 14 100 100 100 100 100 100 100 93 100 100

GFSGL_prec_cloud_090.txt.gz
Cloud_Cover
99 86 39 78 100 57 46 81 100 100 100 80 70 100 98 99 55 92 100 100 100 90 100 4 0 4 6 46 28 65 0 0 0 0 0 0 0 3 5 6 4 15 26
100 100 94 80 100 100 100 100 100 97 100 100 99 100 100 100 100 100 100 100 99 100 86 100 12 0 5 11 72 7 93 4 0 0 0 0 0 0 0 0 0 4 5
100 100 100 100 51 100 100 99 99 76 75 100 100 100 100 100 100 100 100 100 100 92 100 55 88 29 0 1 15 72 5 5 5 3 0 0 0 0 0 0 0 0 0
100 100 100 100 71 100 100 100 100 100 93 73 70 100 100 100 100 100 100 100 100 42 100 87 77 84 50 4 0 8 46 5 5 5 0 0 0 0 0 0 0 0 0
100 96 100 100 97 99 100 100 100 95 100 95 98 90 100 100 100 100 100 98 64 60 98 77 14 24 99 78 7 0 10 34 5 5 5 1 0 0 0 0 0 0 0
100 100 100 100 100 97 70 99 100 88 62 70 100 100 100 50 100 100 100 100 100 99 99 100 14 5 5 90 100 48 0 0 2 5 5 5 0 0 0 0 0 0 0
100 100 100 100 100 100 100 100 100 72 26 76 51 98 45 59 98 100 100 97 100 100 100 96 32 49 5 6 100 100 61 4 1 1 4 1 0 0 0 0 0 0 0
100 100 100 100 100 100 100 100 100 100 67 74 99 53 54 57 34 100 100 100 100 100 100 100 78 30 13 6 5 14 24 32 7 1 0 0 0 1 0 0 0 0 0
100 100 100 100 100 100 100 100 100 100 100 100 100 100 70 14 32 99 99 100 100 100 100 100 100 94 92 37 20 5 71 10 14 5 0 0 0 0 1 0 0 6 0
100 100 100 100 100 100 100 100 100 100 100 100 100 100 100 100 100 100 100 100 100 100 100 100 100 100 95 100 19 21 41 4 79 37 5 14 45 0 16 0 0 0 0
100 100 100 100 100 100 100 100 100 100 100 100 100 100 100 100 100 100 100 100 100 100 100 100 100 100 100 100 100 99 76 66 45 18 97 21 5 0 0 0 0 0 0
99 43 100 100 100 100 100 100 100 100 100 100 100 100 85 100 100 100 84 100 100 100 100 100 100 100 100 100 100 98 100 85 3 0 10 16 5 5 0 0 0 0 0
100 100 53 14 97 100 100 100 100 100 100 100 100 100 100 100 95 100 100 93 100 100 100 100 100 100 91 100 100 53 30 7 5 5 2 0 5 5 0 0 0 0 0
100 94 46 58 15 5 99 100 100 100 100 100 100 100 100 100 100 100 99 100 100 100 100 99 99 100 100 100 92 100 31 76 4 2 5 1 0 5 1 6 35 35 63
1 66 100 100 100 75 7 99 100 100 100 100 100 100 100 100 100 100 100 100 100 100 100 100 100 100 100 100 94 55 86 17 96 5 1 5 6 6 16 12 44 37 96
8 5 5 2 6 4 5 5 12 100 100 100 100 100 100 100 100 100 100 100 100 100 100 100 100 100 100 100 100 99 100 100 82 73 3 2 7 14 84 100 100 100 100
0 0 0 0 0 0 0 0 1 5 41 100 100 100 100 100 100 100 100 100 100 100 100 100 79 100 100 100 100 100 100 100 6 5 5 1 1 5 42 59 91 100 100
1 0 0 0 0 0 0 0 0 0 2 4 39 93 100 100 100 100 100 100 100 100 100 100 100 100 100 84 98 100 100 100 73 32 74 27 4 12 33 22 17 12 29
8 3 0 0 0 0 0 0 0 0 0 0 0 0 7 74 100 100 100 100 100 100 100 100 100 100 100 100 94 100 100 100 100 100 44 31 63 74 98 97 100 100 100
17 4 1 0 0 0 0 0 0 0 0 0 0 0 3 1 2 6 92 100 100 100 100 43 31 100 100 100 100 100 100 100 100 99 100 97 5 87 90 20 70 58 100
6 67 21 5 0 0 0 0 0 0 0 0 0 0 4 5 5 5 5 74 99 85 62 66 38 16 5 14 96 98 99 99 100 100 100 50 88 91 100 52 100 80 100
5 5 6 10 5 5 3 1 0 0 0 0 0 3 5 5 5 5 5 30 88 89 94 32 32 99 100 100 77 11 51 76 32 85 85 100 100 100 100 96 99 99 100
5 7 69 56 14 5 5 5 0 0 0 0 0 3 5 5 5 5 5 10 22 28 31 43 39 29 37 98 100 100 92 67 49 30 95 93 72 100 100 100 87 100 82
5 5 40 78 95 69 7 5 4 0 0 0 0 5 5 5 11 24 28 32 63 77 85 94 98 98 80 75 56 100 100 97 34 80 100 100 100 100 100 100 100 100 100
98 100 65 14 18 23 13 22 12 5 2 0 0 0 5 10 61 89 81 97 100 82 76 100 100 100 100 100 100 100 100 91 100 99 89 99 99 99 100 100 100 100 100
99 99 99 81 46 36 21 21 38 26 14 6 5 5 5 42 99 100 100 100 100 100 100 100 100 100 100 100 100 100 100 100 100 100 100 100 100 100 100 100 100 100 100

GFSGL_prec_cloud_093.txt.gz
Cloud_Cover
100 100 83 20 34 29 18 5 100 54 98 55 100 98 100 100 100 99 84 84 24 6 8 14 2 5 5 5 5 1 0 0 0 0 0 4 6 58 2 5 4 3 8
95 100 100 100 57 14 88 100 94 67 8 100 96 98 96 75 100 100 100 30 96 7 5 5 8 5 5 5 8 5 5 0 0 0 0 0 5 5 0 0 0 4 5
100 100 100 100 100 99 82 68 79 64 14 5 92 100 100 59 100 100 100 100 58 73 24 5 6 4 17 3 65 68 6 29 11 0 0 0 0 0 0 0 0 1 90
100 100 100 100 100 100 100 96 58 75 40 5 19 100 72 90 100 100 100 100 100 88 23 6 5 4 3 8 5 60 97 70 7 28 12 1 0 0 0 0 0 0 5
100 100 100 100 100 91 96 57 100 83 47 5 19 100 100 9 96 100 92 100 100 95 84 66 5 3 1 5 5 5 4 13 90 22 7 25 0 0 0 0 0 0 0
100 100 100 100 100 100 100 100 100 84 51 15 46 86 92 70 98 92 100 100 100 100 92 91 100 46 15 1 5 5 5 5 47 7 90 5 5 5 0 0 0 0 0
100 100 100 100 100 94 100 100 100 86 23 56 5 87 82 38 22 100 100 54 96 99 100 87 100 64 6 4 6 26 54 7 33 19 5 47 4 2 2 0 1 0 0
100 100 100 100 100 100 100 100 100 98 99 99 60 100 100 63 35 81 99 43 80 98 94 100 100 97 84 12 5 4 5 4 4 5 5 8 5 5 3 7 13 0 0
100 100 100 100 100 100 79 80 100 100 96 72 85 99 100 99 89 84 23 55 64 53 94 100 100 92 100 100 34 27 2 0 0 0 0 5 52 12 39 1 0 2 0
100 100 100 100 100 100 100 100 100 100 84 99 100 95 93 69 99 100 99 59 81 44 73 99 100 100 100 100 100 100 100 80 99 61 47 28 47 14 100 17 0 5 1
100 100 100 100 100 100 100 100 100 100 100 94 87 84 100 94 96 99 100 99 100 100 53 28 59 98 100 100 100 100 84 42 20 5 8 16 35 33 17 65 52 31 21
87 100 100 100 100 100 100 100 100 100 100 100 100 100 97 93 92 91 100 100 100 100 100 88 69 88 99 100 100 97 100 90 11 37 67 17 4 0 0 5 28 100 60
55 25 5 48 100 100 100 100 100 100 100 100 100 100 100 100 100 85 88 100 97 100 93 99 100 100 93 82 72 100 100 96 99 93 30 5 5 5 0 0 3 45 90
0 0 2 8 37 95 95 100 100 100 100 100 100 100 100 100 100 100 100 100 100 100 100 98 96 97 100 72 80 94 77 90 49 100 100 24 43 6 9 5 0 0 4
0 2 1 0 2 12 80 98 91 100 99 100 100 100 100 100 100 100 100 100 100 100 100 100 93 100 100 100 98 75 90 96 97 100 100 100 33 99 16 11 4 1 0
3 0 4 5 5 1 5 10 53 84 100 100 100 100 100 100 100 100 100 100 100 100 100 100 100 100 100 100 100 100 53 31 44 64 79 100 97 5 53 12 43 2 53
99 84 99 100 5 5 5 5 5 6 59 89 100 96 100 100 75 61 100 100 100 100 100 100 100 100 100 78 98 100 100 93 34 60 64 44 94 100 98 53 5 6 0
42 6 63 64 19 5 5 4 5 0 0 2 4 21 45 46 64 98 52 88 100 100 100 100 97 100 100 100 100 100 65 96 63 46 86 91 94 45 5 5 5 11 8
100 82 36 12 47 18 5 1 0 0 0 0 0 0 0 2 5 73 87 76 35 96 100 100 100 100 100 100 100 100 100 100 100 100 93 6 12 94 71 5 14 63 17
5 12 44 74 56 28 95 66 9 5 2 0 0 0 0 0 0 0 0 0 0 0 9 38 25 72 100 100 100 100 100 56 100 100 100 100 99 99 45 100 100 100 86
0 0 3 5 8 39 41 7 5 5 5 5 0 0 0 0 0 0 0 0 1 3 5 5 5 5 5 36 98 82 66 100 100 93 62 100 100 100 100 100 100 100 100
0 0 0 0 0 0 68 66 14 5 5 0 0 0 0 0 0 2 4 5 5 5 5 5 4 3 5 4 8 15 5 5 5 26 61 89 76 57 78 98 100 100 100
2 0 0 0 0 2 5 33 68 80 20 4 3 1 0 0 4 5 5 5 5 5 5 5 12 14 15 46 67 76 83 53 35 24 54 87 86 33 67 98 100 100 100
94 95 50 5 0 0 3 5 5 20 6 5 5 5 3 0 0 5 5 5 4 3 6 18 38 60 98 100 100 100 100 95 96 98 100 99 98 100 100 99 97 100 100
100 100 55 78 96 23 4 0 0 0 1 5 5 5 5 5 5 5 5 5 7 29 22 33 55 64 72 100 100 100 100 100 100 100 100 100 100 100 100 100 100 100 100
100 100 100 92 60 31 29 6 5 5 4 4 2 3 16 8 5 5 5 18 52 71 99 88 80 94 100 100 100 100 86 96 100 100 100 100 100 100 100 100 100 100 100

GFSGL_prec_cloud_096.txt.gz
Cloud_Cover
100 45 54 9 48 5 5 5 5 30 5 18 80 53 99 100 100 100 51 23 38 4 2 0 5 5 5 5 5 4 0 2 13 2 52 59 5 0 0 4 5 58 73
100 56 69 95 18 58 4 4 100 100 45 92 10 89 99 99 100 99 43 31 47 8 5 0 2 5 5 5 8 5 5 4 0 0 0 0 0 5 0 1 30 73 5
100 85 63 58 100 98 70 6 38 76 8 59 5 70 100 87 100 100 100 89 5 5 8 4 2 3 5 6 5 6 36 6 5 0 0 0 0 0 3 5 12 51 49
100 100 100 100 100 100 100 89 87 9 5 5 39 5 52 100 68 98 78 100 89 6 22 94 10 4 2 16 26 28 36 10 66 18 5 0 0 0 0 3 59 0 2
100 91 100 100 100 100 100 98 100 34 15 20 72 47 6 28 62 80 99 77 100 100 56 87 98 5 5 5 8 15 15 6 30 87 50 8 5 15 1 0 4 4 2
100 100 100 100 69 99 100 100 100 81 96 73 85 40 37 55 79 75 61 99 100 100 100 100 100 53 18 3 3 0 3 3 5 17 12 34 5 5 8 0 0 0 5
100 100 100 100 100 100 77 100 100 100 74 99 78 99 99 96 21 98 98 100 93 100 89 100 100 100 71 5 14 25 67 6 51 8 5 5 82 39 1 0 0 0 0
100 100 100 100 100 100 99 100 100 100 91 95 39 100 58 56 87 99 51 78 71 56 33 70 100 100 100 100 52 5 3 18 6 5 3 6 36 76 5 9 3 1 3
100 100 100 100 100 100 100 100 87 62 45 95 47 87 100 96 51 98 71 5 58 89 98 43 31 31 85 100 100 98 25 20 51 5 34 9 15 0 42 11 5 28 1
100 100 100 100 100 100 100 100 100 100 100 100 100 96 61 100 96 100 100 99 79 5 96 98 87 84 86 92 93 99 98 52 12 4 5 1 40 19 40 15 8 93 45
100 100 100 100 100 100 97 100 100 96 99 25 100 100 96 87 88 40 98 100 99 100 90 51 81 50 74 100 100 89 100 72 90 89 34 5 16 40 49 100 53 18 25
100 100 100 100 100 100 100 100 84 100 100 100 71 97 100 100 100 94 78 63 82 100 100 100 99 89 96 79 89 49 77 86 92 100 90 100 64 7 36 27 0 1 0
100 100 100 100 100 100 64 87 100 94 100 100 100 100 100 100 100 100 100 100 98 91 100 100 100 99 100 100 54 96 100 98 96 100 71 100 52 15 7 62 2 5 5
100 100 87 100 100 95 50 36 23 87 99 47 79 100 100 100 98 95 100 100 100 100 100 98 79 100 100 95 48 75 100 95 98 74 100 92 86 75 49 93 90 1 12
5 62 88 11 13 0 9 4 18 59 35 5 92 100 76 15 91 100 100 100 100 100 100 100 100 100 100 81 92 88 56 95 100 77 95 98 79 10 40 99 100 84 6
64 97 99 99 99 50 2 0 0 0 0 1 2 2 41 79 100 94 100 100 20 100 100 100 100 100 100 100 100 38 18 86 98 70 99 9 46 18 96 6 27 54 100
98 99 99 91 100 100 30 4 0 3 5 5 1 0 0 0 0 26 99 56 69 100 100 83 100 100 100 90 100 100 100 99 100 74 38 67 18 40 65 66 10 95 43
91 97 98 99 99 97 30 5 5 5 33 35 5 4 0 0 0 0 0 2 4 5 5 5 28 22 100 93 100 100 100 100 100 100 100 91 100 48 5 6 13 22 8
100 97 86 82 46 58 97 100 87 94 76 86 24 11 0 0 0 0 0 0 0 0 0 0 1 3 27 71 99 54 99 81 100 100 100 100 100 100 100 100 99 5 5
67 82 86 73 44 83 64 72 83 100 100 44 85 9 5 5 1 0 0 0 0 0 0 0 0 0 0 0 0 4 15 94 100 67 44 100 100 100 100 100 100 100 84
0 0 1 4 5 5 5 5 5 28 88 77 58 78 70 93 47 23 12 5 0 0 0 0 0 3 3 5 5 5 5 5 5 5 5 40 100 11 84 100 97 100 100
3 0 0 0 0 0 0 0 0 4 8 67 81 80 42 71 22 5 5 4 0 0 0 3 4 0 2 1 1 3 5 3 5 5 0 1 4 5 40 16 18 47 98
5 5 0 0 0 0 0 0 2 0 1 0 0 2 22 86 63 5 2 3 4 0 3 5 4 2 3 0 1 4 3 6 13 17 38 38 30 13 13 8 20 8 7
5 5 5 5 2 3 3 5 5 1 8 4 2 0 0 0 0 0 2 0 5 5 5 5 5 2 2 39 69 100 100 100 100 99 100 100 100 100 100 100 98 80 20
87 9 22 5 5 5 11 5 5 5 5 5 5 5 5 5 1 0 0 4 5 5 5 5 5 5 4 26 50 76 100 100 84 100 100 100 100 100 100 100 100 100 100
100 72 46 90 38 29 85 100 54 56 34 5 5 5 5 5 5 5 5 4 5 4 5 4 5 5 19 37 68 99 97 100 100 100 100 100 100 100 100 100 100 100 100

GFSGL_prec_cloud_099.txt.gz
Cloud_Cover
83 96 84 64 55 52 4 5 5 16 34 68 93 48 99 94 79 100 65 40 65 4 4 18 13 5 5 6 82 69 25 35 48 55 35 48 17 5 5 58 23 12 5
100 70 100 8 10 100 97 60 5 29 94 42 98 99 100 99 89 100 100 54 92 27 5 5 2 3 5 5 5 5 5 6 5 1 2 6 5 5 5 5 44 5 5
100 100 100 100 45 86 79 94 60 15 68 80 78 52 85 100 100 94 96 100 95 66 88 37 21 3 5 4 5 4 5 34 20 44 0 0 0 0 5 8 5 6 5
100 100 100 100 100 99 100 100 100 100 93 64 55 57 19 60 100 93 51 85 100 99 83 100 22 44 41 20 4 5 6 9 30 20 5 0 36 0 20 73 96 5 8
100 100 98 92 100 100 100 100 100 100 100 100 53 42 76 50 76 99 97 47 99 100 100 58 78 36 9 76 1 6 5 5 28 37 17 10 29 46 22 20 14 1 8
100 60 83 100 100 89 100 100 100 100 100 100 99 16 86 100 100 83 74 100 37 43 46 66 100 100 79 91 4 4 4 5 5 7 5 5 15 3 0 0 0 0 0
100 100 99 100 97 99 61 99 79 100 100 100 100 100 73 100 98 18 47 5 19 50 48 100 100 100 100 100 100 97 34 17 14 5 3 1 3 5 81 11 0 0 0
100 100 100 100 100 99 100 72 98 100 100 100 100 100 98 69 79 83 30 5 5 58 97 74 96 100 100 97 99 100 100 27 9 32 5 10 0 3 6 5 9 4 0
100 100 100 100 100 100 99 97 98 100 100 100 100 99 100 100 50 95 97 81 28 32 70 34 100 95 42 100 99 8 65 97 56 20 10 6 0 2 21 8 5 4 4
100 100 100 100 54 68 97 100 100 100 95 100 100 100 100 95 60 98 99 100 100 85 58 44 8 62 5 5 5 5 35 36 34 97 100 47 5 0 7 7 4 16 57
100 100 100 100 100 100 100 100 100 100 100 100 98 100 98 100 100 100 98 99 99 85 100 100 100 83 86 65 40 18 12 60 94 100 78 100 76 5 26 98 57 5 10
100 100 100 100 100 100 100 100 100 100 100 100 100 100 100 97 99 99 100 100 99 88 100 100 100 96 100 100 100 61 46 42 91 93 98 82 100 45 53 56 82 10 4
100 100 100 100 100 100 100 100 100 53 94 100 100 100 100 100 100 100 69 100 98 100 100 98 100 94 91 100 100 100 100 100 100 82 64 31 93 100 100 44 92 99 95
93 100 73 98 100 100 100 100 80 60 3 93 100 100 100 93 79 98 100 97 32 96 100 100 99 100 100 100 100 100 91 57 59 47 93 69 97 87 100 99 85 100 100
52 55 79 91 100 100 100 91 88 100 64 45 5 1 35 100 98 71 5 59 97 100 100 86 100 100 100 100 100 100 100 94 64 79 58 92 75 51 6 54 100 100 100
5 22 69 99 100 78 46 6 18 17 11 4 5 5 43 5 6 5 5 5 4 6 13 88 100 71 100 100 100 100 100 100 100 91 99 69 44 44 27 11 5 24 32
5 5 26 37 5 10 46 62 100 100 51 8 5 0 0 0 0 0 2 3 0 15 100 5 29 79 48 99 100 64 100 100 100 100 100 100 100 100 61 97 57 54 5
7 5 5 5 5 5 39 50 14 66 100 100 99 86 50 4 1 0 5 5 5 19 0 0 3 12 25 37 13 22 99 31 5 29 84 85 99 100 100 80 100 55 85
5 15 78 40 15 14 11 64 92 23 50 16 85 16 64 5 5 9 5 23 49 5 0 0 0 0 0 15 31 53 52 11 59 88 89 5 5 24 96 100 100 100 100
0 1 1 56 100 100 89 80 98 92 87 73 63 55 100 89 76 82 39 73 86 76 1 0 0 0 0 0 0 0 0 0 0 0 0 1 1 2 1 2 51 96 100
0 0 0 0 0 0 0 0 23 96 92 92 91 100 100 98 82 100 69 84 40 5 5 5 0 2 1 0 0 0 0 1 3 5 5 3 0 0 0 0 5 5 5
5 1 0 0 0 0 0 0 0 0 0 0 23 83 59 82 84 82 34 18 24 80 55 7 5 5 5 5 0 1 5 3 4 5 1 2 3 3 3 4 3 3 5
14 5 1 1 0 0 0 0 0 0 0 0 0 0 0 0 2 11 20 8 7 78 71 93 68 57 15 5 2 0 0 0 0 4 9 11 6 24 40 74 71 47 26
96 36 5 5 4 1 4 4 1 0 2 5 5 3 2 0 0 0 0 0 1 0 0 10 12 16 23 5 4 0 1 0 3 50 87 100 99 98 100 100 100 100 100
100 100 100 34 7 5 5 5 5 5 5 0 5 5 5 5 5 4 1 4 5 5 2 5 5 5 5 9 2 15 25 5 31 100 100 100 100 100 100 100 100 100 100
100 97 100 100 100 68 34 8 7 36 51 29 7 12 20 14 6 5 5 5 5 5 1 3 5 5 5 5 10 12 5 8 91 100 100 100 100 100 100 100 100 100 100

GFSGL_prec_cloud_105.txt.gz
Cloud_Cover
94 11 86 98 82 67 2 5 5 47 100 99 100 100 100 100 100 100 100 97 100 94 88 59 100 100 88 100 100 100 76 32 100 100 100 100 100 100 13 7 5 88 80
100 100 100 79 96 100 100 4 4 11 16 6 50 14 100 100 100 100 100 100 100 100 68 45 33 90 42 94 80 15 5 5 8 64 100 100 100 8 5 13 5 15 88
94 100 100 79 79 46 100 100 100 100 100 10 22 100 100 100 100 100 100 100 100 100 100 94 8 72 62 36 94 85 99 44 5 1 0 0 0 0 3 100 5 19 95
70 76 93 28 9 67 99 100 100 99 100 16 94 100 100 85 100 100 100 100 100 100 100 100 100 52 5 45 91 6 8 16 52 93 84 80 34 4 2 0 0 4 1
100 96 60 24 79 76 99 100 100 58 100 100 90 71 100 70 100 100 90 74 100 89 100 100 100 100 99 98 100 27 27 1 40 6 25 100 100 100 87 13 4 2 0
100 88 82 65 83 88 100 100 100 38 5 7 40 78 81 53 100 100 81 100 32 100 100 100 91 91 100 100 100 100 100 99 70 6 69 1 5 5 23 21 50 85 14
100 100 100 13 10 48 99 100 100 50 22 66 100 62 100 100 100 97 100 95 52 89 16 12 32 6 92 100 95 100 100 100 100 78 53 100 74 57 13 50 33 13 9
100 100 100 74 100 43 99 100 100 72 98 64 87 100 99 100 100 100 76 66 56 52 21 97 75 5 16 70 50 79 100 99 55 92 77 100 92 55 92 100 100 26 2
100 100 100 100 100 100 97 85 99 74 46 67 48 98 99 81 97 100 78 83 97 60 22 60 56 19 5 70 5 5 69 82 68 100 100 100 100 100 92 6 5 5 5
100 100 100 100 100 100 100 100 100 99 99 100 66 86 100 99 39 50 46 60 100 100 50 63 99 17 5 6 29 61 48 67 16 7 5 7 75 7 20 5 3 5 5
100 100 100 100 100 100 100 100 100 100 100 100 40 5 95 100 100 23 100 67 100 88 90 28 37 85 53 64 89 100 100 100 70 43 52 72 35 19 5 5 39 40 5
100 100 100 100 100 100 100 100 100 100 100 100 97 40 77 100 100 100 100 99 99 99 100 97 48 13 97 70 16 29 10 30 78 84 57 61 74 79 43 5 6 40 18
100 100 100 100 100 100 100 100 100 100 100 100 100 100 100 100 100 100 100 100 84 88 100 100 100 100 100 100 98 100 83 5 6 5 7 66 82 13 85 93 12 32 5
100 100 100 91 100 100 100 100 98 100 100 100 100 96 97 100 100 100 100 99 88 100 100 100 100 100 100 65 100 89 100 100 100 100 100 95 68 100 80 12 10 43 5
96 100 100 100 100 100 100 100 100 100 100 100 100 100 100 100 100 100 100 100 100 100 100 68 100 100 100 100 100 100 100 83 95 82 100 100 99 85 90 100 100 100 100
4 40 34 17 34 86 91 47 53 96 94 88 100 100 100 100 100 100 100 100 100 93 35 63 91 32 5 0 1 51 100 100 100 100 100 100 100 100 97 73 89 51 98
0 1 0 0 2 5 4 26 96 68 16 65 38 65 84 100 100 100 100 100 100 100 100 99 90 7 0 0 0 0 0 0 6 100 100 99 34 1 99 100 100 100 100
5 2 5 5 5 5 5 5 5 6 30 5 5 5 4 5 57 44 96 91 82 19 16 87 90 76 62 25 3 3 0 0 0 0 0 0 0 0 0 0 0 0 9
11 7 23 9 5 5 5 0 2 3 4 4 5 4 2 3 4 15 60 5 5 39 90 82 53 45 64 100 100 76 30 30 16 3 2 0 0 0 0 0 0 0 0
1 0 0 1 0 1 0 0 0 0 0 0 0 1 5 5 5 5 5 5 5 9 77 96 90 86 96 100 100 100 98 100 100 73 9 5 4 0 0 0 0 0 0
5 28 0 0 0 0 0 0 0 0 0 0 0 0 0 1 4 5 4 5 10 38 83 90 94 99 100 97 62 17 6 31 57 55 6 5 5 5 5 5 22 73 100
52 11 7 65 3 0 0 0 0 0 0 0 0 0 0 0 0 0 0 0 0 0 0 1 2 5 69 89 100 98 68 40 16 5 5 5 5 4 1 54 100 100 100
74 90 100 100 79 99 12 1 2 0 0 0 0 0 0 0 0 0 0 0 0 0 0 0 0 0 0 0 0 7 1 1 0 0 0 0 0 24 87 98 98 100 100
48 21 96 100 89 89 99 12 5 5 3 1 0 0 0 0 0 0 0 0 0 0 0 0 0 0 0 0 0 0 0 0 0 0 0 2 63 99 100 100 100 100 98
3 4 33 66 76 100 20 28 5 5 37 5 5 1 5 3 1 0 0 0 0 0 0 0 0 0 0 0 0 0 0 0 0 0 1 20 99 100 100 100 100 100 100
2 4 36 65 100 97 100 100 26 77 29 33 67 31 7 5 5 5 5 5 5 4 2 0 0 0 0 0 0 0 5 0 0 0 5 14 98 100 100 55 60 100 100

GFSGL_prec_cloud_108.txt.gz
Cloud_Cover
100 100 100 100 100 100 100 94 5 30 84 97 100 100 100 100 100 100 100 100 99 99 95 13 89 100 100 100 100 100 21 5 1 24 10 86 95 6 48 96 21 74 17
98 90 100 100 94 100 100 100 100 44 81 9 13 100 100 100 100 100 100 90 99 100 100 77 21 94 76 54 23 55 28 11 14 5 7 5 0 2 0 4 14 4 95
100 100 100 100 100 95 100 100 96 26 18 5 12 9 92 87 98 100 100 100 100 100 100 100 100 85 100 65 97 97 78 11 10 10 59 14 5 11 5 93 91 9 16
100 100 100 100 100 100 100 97 98 94 94 66 60 33 76 42 69 99 100 96 100 100 100 100 100 100 100 100 100 100 100 100 47 20 4 5 18 5 45 5 4 4 5
100 100 100 100 94 99 100 100 100 96 74 97 87 85 64 44 14 8 100 100 100 100 100 100 100 100 100 96 100 100 92 90 99 76 71 99 94 81 89 19 13 21 96
100 100 100 100 100 100 100 100 100 100 90 18 77 8 24 70 75 85 5 100 100 100 43 100 100 100 100 98 78 76 82 66 89 100 86 100 100 100 100 84 97 99 100
100 100 100 100 100 100 100 100 100 96 100 49 24 44 35 49 77 36 95 100 100 100 57 83 81 53 91 69 40 96 98 99 100 80 94 100 100 70 100 85 86 90 100
100 100 100 100 100 98 100 100 100 99 73 60 50 99 88 88 84 100 100 100 100 100 99 51 5 11 46 20 7 5 26 82 29 30 100 99 100 100 100 100 100 100 100
100 100 100 100 100 100 100 100 100 81 88 8 21 94 84 87 94 79 92 100 98 99 58 46 31 46 51 88 63 73 34 11 34 36 76 66 49 98 100 100 100 100 100
100 100 100 100 100 100 100 100 100 100 77 30 88 95 78 93 39 74 96 100 100 88 98 93 32 52 76 100 91 90 51 7 5 5 5 5 35 5 81 5 5 13 5
100 100 100 100 100 100 100 83 81 47 88 99 100 100 100 98 86 90 100 97 88 74 98 97 85 92 46 100 79 97 70 32 58 98 20 76 100 38 32 80 25 5 5
100 100 100 100 100 100 100 100 30 49 99 100 96 100 100 100 100 100 100 100 100 80 58 88 100 100 100 100 65 67 64 21 57 39 12 5 8 1 5 3 28 5 9
100 100 100 100 100 100 100 100 100 96 100 100 100 100 100 100 100 100 100 100 97 100 95 100 100 30 99 100 100 90 100 97 97 99 100 96 48 5 5 24 19 2 1
100 100 100 100 100 100 100 100 100 100 100 100 100 100 100 100 100 100 100 100 100 100 65 100 100 100 100 100 100 100 100 99 100 100 100 100 100 83 11 14 12 62 4
83 100 100 99 98 100 100 100 100 99 46 100 100 100 100 100 96 96 100 100 100 100 100 100 100 100 100 100 100 100 98 100 100 100 100 100 85 77 100 29 62 92 43
100 45 20 20 5 91 100 100 100 100 100 100 100 100 100 100 100 93 100 100 100 97 100 100 100 100 100 100 100 100 100 100 100 100 100 100 99 81 100 98 31 5 12
6 10 10 36 14 6 26 100 100 69 100 100 100 100 100 100 65 100 100 100 100 100 100 100 100 100 100 92 100 100 100 100 100 100 100 100 100 100 96 10 3 0 0
5 4 5 2 3 4 5 5 100 100 100 66 78 9 5 100 100 100 100 100 100 100 99 98 100 100 80 99 60 74 8 47 50 46 42 85 86 30 5 2 3 3 0
5 6 4 3 2 4 5 5 6 62 75 24 5 5 5 5 62 100 100 100 100 19 5 5 6 43 83 89 100 71 5 74 87 14 5 4 3 6 15 12 5 5 9
5 20 15 9 2 4 3 1 4 5 5 5 5 5 3 0 0 0 0 0 1 5 5 38 88 82 71 38 9 6 6 51 26 42 29 5 6 49 100 95 62 78 69
5 55 4 0 2 0 2 0 0 0 0 0 0 0 0 0 0 0 0 0 0 0 0 0 0 2 5 5 8 5 5 17 38 5 56 52 42 54 84 63 85 65 28
2 6 23 52 99 85 42 4 1 1 2 0 0 0 0 0 0 0 0 0 0 0 0 0 0 0 0 0 0 0 0 0 1 0 0 0 2 2 3 5 5 5 5
2 2 1 4 65 85 100 98 79 61 24 0 0 0 0 0 0 0 0 0 0 0 0 0 0 0 0 0 0 0 0 0 0 0 0 0 0 3 5 5 5 10 71
2 0 0 0 0 16 72 24 96 100 99 27 5 1 43 89 3 0 0 0 0 0 0 0 0 0 0 0 0 0 0 0 0 0 0 0 4 5 5 5 5 6 97
10 18 15 13 0 8 54 100 96 96 84 50 5 10 75 53 1 0 0 0 0 0 0 0 0 0 0 0 0 0 0 0 0 0 0 0 5 5 5 5 5 7 90
2 0 18 2 0 0 26 100 100 100 100 100 97 63 8 5 5 5 5 5 4 4 5 5 5 1 0 0 0 0 0 0 0 0 0 0 5 5 5 5 12 35 24

GFSGL_prec_cloud_111.txt.gz
Cloud_Cover
72 100 100 100 84 100 100 95 14 18 89 100 17 97 98 98 100 100 100 100 100 100 91 56 55 72 72 13 5 5 5 46 5 5 5 5 5 6 28 4 0 0 5
100 100 100 100 100 100 100 100 100 37 91 60 37 5 49 21 15 99 99 100 100 100 100 100 100 100 100 100 100 98 95 73 21 8 5 6 8 38 5 28 46 9 4
100 100 100 100 100 100 100 93 50 100 100 89 72 95 18 6 71 50 99 90 47 85 100 100 100 100 100 100 100 91 92 88 97 52 24 38 5 5 5 10 18 5 14
100 100 100 100 100 100 100 90 99 64 66 97 63 64 13 51 36 16 18 75 100 100 55 47 84 100 100 100 99 100 100 100 100 100 98 100 87 54 63 100 67 30 13
100 100 100 100 100 100 100 100 100 100 98 99 56 80 92 71 57 78 40 66 35 86 97 96 83 99 99 100 100 97 100 100 100 100 100 100 100 94 98 66 99 99 81
100 100 100 100 100 100 100 100 100 100 100 100 94 67 100 100 100 73 44 90 55 21 92 100 100 100 100 100 100 100 74 67 100 100 100 100 100 100 100 100 80 100 100
100 100 100 100 100 100 100 100 100 100 100 100 100 100 99 59 60 95 100 100 100 87 63 100 100 100 83 96 26 16 96 90 74 68 92 100 100 100 100 100 100 97 100
100 100 100 100 100 100 100 100 100 100 100 100 100 99 100 100 100 100 100 100 100 100 100 98 100 100 100 90 90 8 18 30 46 41 28 49 78 64 35 14 40 93 100
100 100 100 100 100 100 100 100 100 100 100 100 100 100 100 100 100 100 100 100 100 100 100 100 100 100 96 17 16 5 14 13 5 10 5 5 12 5 5 5 10 5 5
100 100 100 100 100 100 100 100 100 100 96 100 100 61 100 100 100 100 100 89 90 83 91 100 78 100 100 98 95 51 92 61 12 5 86 52 28 43 38 5 5 5 5
100 100 100 100 100 100 100 100 100 100 76 75 100 90 100 100 100 94 100 93 100 71 26 76 100 100 85 68 98 76 56 59 10 62 36 5 68 98 31 22 5 4 4
100 100 100 100 100 100 100 100 100 100 98 100 100 100 98 93 56 11 98 100 98 93 93 100 100 100 100 94 98 95 50 37 56 33 38 15 79 75 85 96 33 5 5
100 100 100 100 100 100 100 100 100 100 100 100 100 100 100 99 91 100 100 83 100 100 81 99 100 100 100 100 94 19 21 76 82 90 88 77 74 49 9 40 97 97 80
100 100 100 100 100 100 100 100 100 100 100 100 100 100 98 95 100 94 100 100 99 100 100 100 100 100 100 100 100 82 65 97 95 81 100 66 30 100 100 100 100 100 100
70 63 99 100 100 100 100 100 100 100 100 100 100 100 100 100 94 100 80 100 79 89 100 100 100 98 100 100 100 100 100 100 100 100 100 100 100 63 64 68 50 11 92
100 100 94 98 100 100 100 100 100 70 99 84 98 74 94 55 85 76 61 92 100 100 100 100 100 100 71 97 100 100 100 100 100 67 100 100 100 75 100 100 94 100 26
100 100 100 100 100 100 100 100 100 99 82 89 97 100 100 100 100 100 100 100 100 91 100 100 100 100 100 100 100 100 100 100 100 100 99 99 100 100 100 78 100 33 16
34 97 100 100 100 86 100 100 100 100 100 100 100 100 100 100 100 100 8 28 98 5 31 91 95 100 100 100 80 69 100 98 62 100 100 100 100 100 100 100 82 49 2
81 100 100 100 98 95 19 20 64 28 6 31 11 5 34 65 38 6 5 1 6 4 2 2 3 4 29 70 100 67 100 64 45 43 9 50 26 52 54 91 100 99 85
100 100 89 88 43 54 66 52 38 82 100 100 95 7 4 3 44 2 0 0 0 5 4 5 4 4 4 1 4 70 100 100 94 9 5 5 21 28 32 5 5 5 6
3 5 5 5 5 3 5 5 5 5 2 0 1 0 0 0 0 0 0 0 0 0 3 51 93 97 91 80 22 5 5 5 5 4 4 5 2 0 0 0 0 2 0
13 5 3 0 1 6 8 40 25 8 5 5 4 0 0 0 0 0 0 1 1 0 0 0 0 0 0 1 2 3 3 4 4 2 0 0 0 0 0 0 3 4 84
32 2 0 0 0 0 0 0 6 76 69 38 16 5 5 2 2 1 0 0 0 0 0 0 0 0 0 0 0 0 0 0 0 0 0 0 0 0 0 4 4 5 56
1 17 8 0 0 0 0 0 4 47 20 100 71 59 61 41 81 94 63 25 74 60 6 3 0 0 0 0 0 0 0 0 0 0 0 0 0 0 5 5 5 5 16
0 5 19 16 14 9 0 0 0 0 8 42 61 100 100 98 98 99 84 26 7 10 10 7 47 95 100 74 0 0 0 0 0 0 0 0 0 5 5 5 5 6 7
0 0 6 13 20 18 16 10 3 0 2 31 97 95 83 88 98 93 68 40 8 14 19 36 48 7 5 4 2 0 0 0 0 0 0 2 4 5 5 5 5 19 22

GFSGL_prec_cloud_114.txt.gz
Cloud_Cover
3 100 100 100 100 55 100 100 81 6 5 85 29 45 18 25 50 54 99 76 81 78 45 51 78 100 100 100 100 99 87 42 4 6 5 9 24 34 8 5 5 5 44
100 100 100 100 100 100 100 55 100 100 99 5 27 12 28 58 79 86 84 76 89 100 98 5 8 99 70 85 100 46 100 100 100 83 11 4 5 33 93 70 93 100 100
95 69 93 100 100 100 98 98 62 11 12 8 5 7 99 97 96 44 98 98 96 99 52 39 90 99 88 100 100 76 40 98 100 100 100 100 89 94 17 89 77 81 100
94 99 84 85 92 100 98 100 100 96 97 22 53 1 1 17 78 87 54 77 100 93 74 54 56 62 88 89 100 100 100 55 100 100 97 100 75 100 100 100 100 100 100
71 100 100 100 88 100 100 100 100 32 88 93 99 97 25 24 37 5 34 43 5 37 94 77 68 56 96 46 42 24 10 50 86 95 100 91 86 95 100 100 100 100 84
100 100 100 100 100 88 100 100 100 100 100 100 100 100 100 100 100 41 77 60 100 30 6 21 25 100 62 93 96 84 33 86 72 15 20 16 29 86 24 6 70 13 79
100 100 100 100 100 100 100 100 100 100 100 100 100 100 100 100 100 99 89 88 100 49 78 63 100 100 88 65 100 100 98 74 60 43 34 36 72 20 14 5 6 5 15
100 100 100 100 100 100 100 100 100 100 100 100 100 100 100 100 100 100 100 100 100 100 100 99 100 100 100 100 100 100 100 98 9 5 5 14 5 5 5 5 7 50 60
100 100 100 100 100 100 100 100 100 100 100 100 100 100 100 100 100 99 72 100 100 100 100 100 95 100 100 100 100 100 100 81 45 29 11 6 32 5 5 5 26 55 73
100 100 100 100 100 100 100 100 100 100 80 100 100 100 100 100 100 84 100 100 100 100 100 100 100 100 98 100 97 76 95 71 94 98 72 95 80 6 7 5 5 5 36
100 100 100 100 100 100 100 100 100 100 100 100 100 100 100 96 86 100 100 100 100 100 100 100 100 100 100 98 100 94 45 81 56 12 36 9 43 59 82 5 14 5 14
100 100 100 100 100 100 100 100 100 100 100 100 100 100 100 98 100 100 100 100 93 94 100 100 98 95 90 87 99 94 78 91 63 7 5 5 27 6 13 33 7 94 43
100 100 100 100 100 100 100 100 100 100 100 100 100 100 100 100 100 100 100 92 99 100 100 97 100 100 95 100 93 96 100 100 100 59 41 5 16 33 6 5 92 95 81
100 100 100 100 100 100 100 100 100 100 100 100 100 100 100 100 100 100 100 100 100 97 98 100 100 100 100 100 83 77 100 100 100 100 100 100 100 100 100 47 56 100 80
100 100 100 100 100 100 100 100 100 100 100 100 100 100 100 100 100 84 94 100 97 100 100 100 100 100 100 100 100 100 100 73 82 99 100 100 100 100 100 100 100 100 100
100 100 100 100 100 100 100 100 100 100 100 100 100 100 99 100 100 100 100 100 100 100 100 100 94 100 100 100 100 100 100 94 98 100 100 100 100 95 80 100 98 96 99
100 100 100 100 100 100 100 100 100 100 100 100 100 100 100 100 100 100 100 47 48 99 92 14 59 68 65 94 98 100 100 100 100 100 100 100 26 97 88 16 40 50 80
100 100 100 100 100 100 100 100 100 100 100 100 100 100 100 100 100 95 100 100 100 100 99 81 98 99 60 99 100 100 100 100 100 100 94 71 66 5 70 5 5 32 5
100 100 100 100 100 100 100 100 100 100 100 100 100 100 100 100 100 100 100 100 100 100 100 100 100 100 100 100 100 100 100 80 34 98 100 100 42 5 5 5 5 5 5
100 100 100 100 100 100 100 100 100 100 100 100 100 100 100 100 100 100 100 100 100 100 100 100 100 100 100 39 5 6 18 21 15 10 0 2 4 5 30 36 5 5 25
98 98 100 100 100 100 100 100 100 100 100 81 17 90 91 45 32 100 99 97 89 94 27 5 5 5 17 4 0 2 5 3 0 3 3 0 0 5 4 4 0 0 9
0 0 0 0 1 16 72 82 90 67 89 100 100 96 38 28 22 5 4 2 0 0 0 0 0 0 0 0 0 0 0 0 2 4 19 8 24 5 5 4 5 5 11
0 0 0 0 0 0 0 0 0 0 14 20 13 3 11 26 20 30 21 5 5 5 2 0 0 0 0 0 0 0 0 0 0 0 0 0 0 0 0 1 0 2 5
0 0 0 0 12 0 0 0 0 0 0 5 64 72 95 65 78 100 94 48 100 94 78 30 7 6 6 7 4 5 4 30 9 0 0 0 0 0 0 1 5 5 5
0 0 0 1 20 25 6 0 0 0 0 0 0 0 11 99 56 92 100 99 100 100 100 91 31 5 55 77 18 0 0 0 0 38 93 100 100 100 100 44 5 5 5
1 2 0 0 0 0 0 0 0 2 2 0 0 0 15 86 100 100 95 100 100 100 100 92 17 10 5 5 5 5 32 75 91 85 59 6 5 5 5 5 5 5 5

GFSGL_prec_cloud_117.txt.gz
Cloud_Cover
11 41 45 96 100 100 81 50 5 33 99 8 46 72 17 5 73 28 76 60 69 8 17 88 75 38 98 45 33 79 18 5 5 5 5 6 7 5 40 33 5 5 5
4 1 98 100 100 100 100 54 70 81 18 12 14 5 5 58 11 7 38 6 88 42 33 11 5 11 85 92 89 52 44 12 65 42 22 9 5 39 100 100 100 100 100
1 2 100 100 100 94 100 100 72 55 44 6 5 10 59 7 5 10 11 5 18 22 66 76 14 5 20 5 25 59 77 9 5 5 68 37 26 100 100 100 100 100 100
41 19 5 89 100 24 40 60 78 78 68 32 80 24 22 5 8 5 13 5 5 62 92 38 33 31 41 34 74 33 5 15 46 28 81 44 87 54 77 29 75 49 54
99 100 20 5 82 5 21 100 73 30 31 30 64 100 100 57 51 29 10 5 17 14 79 99 56 84 67 100 93 72 30 27 54 80 94 63 94 85 44 9 16 6 8
100 52 89 100 98 67 62 97 100 66 46 46 90 20 33 100 100 100 100 100 100 100 100 87 84 99 100 67 76 54 55 100 100 100 100 98 100 100 97 64 74 84 72
98 100 64 97 100 100 100 100 100 98 100 100 97 100 100 86 100 100 93 96 100 100 100 100 96 95 78 96 100 94 54 60 63 88 68 37 44 20 54 31 61 86 41
100 100 100 100 96 100 100 100 100 100 100 100 100 100 100 100 100 100 99 100 100 99 99 100 100 100 100 100 95 100 100 100 100 100 72 100 84 58 37 35 90 87 42
100 100 100 100 100 100 100 100 100 100 100 100 100 100 100 100 100 100 100 96 100 100 99 100 100 100 100 100 100 100 100 92 100 100 100 95 93 100 76 91 12 86 100
99 100 100 100 100 100 100 100 100 100 100 100 100 100 100 100 100 100 100 100 61 48 65 99 50 62 100 96 77 100 74 100 77 90 90 100 100 100 98 58 16 55 5
100 100 100 100 100 100 100 100 100 100 100 100 100 100 100 100 100 100 100 100 100 100 89 99 100 96 100 100 100 100 100 100 100 98 100 76 98 100 100 82 53 7 40
100 100 100 100 100 100 100 100 100 100 100 100 100 100 100 100 100 100 100 100 91 95 96 99 89 99 100 100 92 98 97 100 100 100 100 68 42 28 27 65 43 5 26
100 100 100 100 100 100 100 100 100 100 100 100 100 100 100 100 100 100 98 19 15 87 76 98 84 67 93 42 44 42 100 68 80 30 97 89 14 33 91 98 97 100 100
100 100 100 100 100 100 100 100 100 100 100 100 100 100 100 100 100 100 100 98 87 100 100 90 86 52 70 98 94 100 64 82 79 99 89 100 96 99 100 100 100 100 100
100 100 100 100 100 100 100 100 100 100 100 100 100 100 100 100 100 100 100 100 99 100 100 99 66 72 67 100 82 100 100 62 98 100 100 100 57 62 99 98 94 100 100
100 100 100 100 100 100 100 100 100 100 100 100 100 100 100 100 100 100 100 100 98 99 98 92 88 51 28 32 48 98 100 100 92 99 100 100 91 57 93 100 93 92 100
100 100 100 100 100 100 100 100 100 100 100 100 100 100 100 100 100 100 100 100 100 100 100 89 100 100 100 96 91 89 85 99 97 100 99 99 100 100 100 100 100 100 100
100 100 100 100 100 100 100 100 100 100 100 100 100 100 100 100 100 100 100 100 100 100 100 100 100 100 100 100 100 100 100 100 81 100 100 100 100 100 100 99 100 100 98
100 100 100 100 100 100 100 100 100 100 100 100 100 100 100 100 100 100 100 100 100 100 100 100 100 100 100 97 100 100 100 100 100 100 100 99 96 100 100 100 92 46 20
98 100 100 100 100 100 100 100 100 100 100 100 100 100 100 100 100 100 100 98 100 100 100 100 63 93 99 100 100 100 100 100 100 98 100 100 100 100 87 64 74 0 4
98 100 87 100 100 100 100 100 100 100 100 100 100 100 100 100 100 100 100 100 100 100 100 100 100 100 100 100 100 97 52 46 100 100 100 100 100 96 92 11 0 0 4
0 0 0 40 74 91 24 23 69 84 100 90 75 5 33 67 65 51 74 95 96 83 64 84 98 100 100 100 96 98 100 99 80 32 0 0 0 1 4 5 5 5 4
0 0 0 0 0 3 0 0 0 0 0 0 0 0 0 3 63 26 8 51 69 49 25 36 36 55 90 99 100 20 1 0 0 0 0 0 0 5 5 5 5 5 5
0 0 0 0 0 0 0 0 0 2 0 0 0 0 0 0 0 40 64 42 70 79 83 93 71 5 7 69 87 95 33 5 5 4 18 93 99 98 6 5 8 11 5
0 0 0 0 0 0 0 0 0 12 5 0 0 0 0 0 0 0 4 13 100 100 35 93 82 10 97 100 99 91 98 100 99 83 99 100 80 98 6 5 20 34 59
0 0 0 0 0 0 0 0 1 11 16 10 9 6 13 2 6 40 2 8 34 90 97 100 100 98 98 48 81 100 90 47 53 31 13 5 5 5 84 100 100 98 85

GFSGL_prec_cloud_120.txt.gz
Cloud_Cover
0 2 0 20 38 5 5 5 5 4 5 16 10 13 12 2 7 20 3 2 18 6 4 5 5 6 3 5 5 5 59 29 96 8 5 56 5 73 100 100 40 100 100
0 0 5 100 100 99 42 5 5 5 5 15 17 14 5 10 26 35 6 20 23 24 7 3 7 88 21 69 76 28 14 20 9 25 83 92 31 4 34 100 76 10 43
0 1 4 100 100 100 100 53 50 9 12 13 3 4 5 6 10 78 46 5 5 32 27 31 17 26 7 70 95 100 99 86 96 15 73 100 71 75 97 84 75 58 38
0 0 0 38 100 100 87 82 83 37 8 13 34 43 24 6 10 47 99 84 100 22 22 92 69 93 97 86 83 59 100 100 100 100 91 89 95 100 74 95 82 100 100
40 5 3 5 69 22 24 35 44 94 65 7 5 10 65 36 43 37 32 77 92 59 20 19 72 98 100 69 34 95 100 97 26 47 54 52 71 100 91 95 60 61 67
84 66 27 5 65 16 43 63 61 46 55 30 13 25 42 27 95 99 78 93 100 100 100 100 100 100 100 95 100 58 100 92 72 71 98 98 98 52 77 6 37 22 24
35 32 25 49 96 100 100 100 100 49 95 100 99 66 43 81 8 21 92 50 47 100 86 100 100 98 100 100 100 100 100 100 99 100 66 100 98 83 94 80 30 20 36
68 94 100 53 80 86 66 84 100 100 100 99 100 100 100 99 66 51 91 100 100 99 74 100 100 100 82 100 100 100 100 100 100 100 76 52 99 100 66 35 75 75 100
100 100 100 79 74 100 99 100 100 100 100 100 100 100 100 100 77 99 100 100 100 100 100 99 74 99 100 100 100 98 73 61 93 100 100 100 96 94 100 95 100 99 90
100 100 100 100 100 100 100 100 100 100 100 100 100 100 100 100 100 100 100 100 100 100 100 99 72 98 100 100 90 54 91 100 100 100 100 100 100 100 93 86 96 100 97
100 100 100 100 100 100 100 100 100 100 100 100 100 100 100 100 100 100 100 100 98 98 100 92 100 100 55 98 75 70 99 94 67 99 100 100 100 100 100 85 100 100 71
100 100 100 100 100 100 100 100 100 100 100 100 100 100 100 100 100 100 100 100 100 100 100 100 100 100 100 100 99 93 100 100 100 87 80 48 36 99 74 90 67 17 8
100 100 100 100 100 100 100 100 100 100 100 100 100 100 100 100 100 100 100 100 100 100 100 100 100 100 100 100 100 100 91 65 64 42 44 54 31 86 52 97 100 5 5
100 100 100 100 100 99 100 100 100 100 100 100 100 100 100 100 100 100 100 100 100 100 100 98 99 61 93 100 86 68 92 100 93 96 93 76 12 17 65 12 91 64 18
100 100 100 100 100 100 100 100 100 100 100 100 100 100 100 100 100 100 100 100 100 100 100 100 100 98 74 100 100 99 99 98 100 99 100 100 100 97 100 99 87 100 100
100 100 100 100 100 100 100 100 100 100 100 100 100 100 100 100 100 100 100 100 100 100 100 100 100 100 100 95 49 97 96 100 83 54 68 88 39 97 92 96 100 100 100
100 100 100 100 100 100 100 100 100 100 100 100 100 100 100 100 100 100 100 100 100 100 100 100 100 100 100 100 100 100 100 100 100 100 100 100 31 98 100 100 100 100 100
100 100 100 100 100 100 100 100 100 100 100 100 100 100 100 100 100 100 100 100 100 100 100 100 100 100 100 100 100 100 100 100 100 100 100 100 100 100 100 100 100 100 100
100 100 97 99 64 100 97 100 100 100 100 100 100 100 100 100 100 100 100 100 100 100 100 100 100 100 100 100 100 100 100 100 100 100 100 100 100 100 100 100 100 100 100
11 100 100 81 100 100 100 90 19 100 100 100 100 100 100 100 100 100 100 100 100 100 100 100 100 72 100 100 100 100 100 100 100 100 100 100 100 100 100 100 100 100 100
100 100 100 100 100 96 81 100 96 100 100 14 67 52 90 71 100 100 100 100 100 100 100 100 100 100 100 100 100 100 100 100 100 100 100 100 100 98 100 100 100 83 6
100 100 100 100 74 5 4 12 54 70 88 91 100 100 100 100 80 87 100 100 100 100 100 100 100 100 100 100 100 100 100 100 100 100 84 95 99 91 53 23 50 59 42
4 0 0 0 0 4 0 0 4 2 0 1 1 1 0 2 5 6 5 8 42 85 99 55 56 95 77 17 3 4 4 2 20 46 22 1 0 0 0 4 5 5 5
5 4 3 0 0 0 0 0 0 2 0 2 5 5 3 5 5 5 10 18 3 1 19 100 70 64 95 77 69 99 74 8 18 75 23 5 5 14 6 6 5 12 55
0 0 0 0 0 0 0 0 0 0 1 0 5 5 5 6 14 24 25 61 44 6 5 25 93 92 100 92 100 100 33 96 98 99 94 100 100 100 100 99 61 6 5
0 0 0 0 0 0 0 0 0 1 4 4 3 5 14 39 38 44 46 21 37 88 96 100 51 100 100 100 100 98 100 100 95 100 100 100 100 86 51 51 53 38 28

GFSGL_prec_cloud_123.txt.gz
Cloud_Cover
0 20 26 95 99 28 75 56 18 100 48 1 3 29 10 14 5 5 1 9 86 31 3 10 26 2 4 5 9 66 90 42 75 90 52 15 5 3 5 50 82 47 64
0 12 25 18 42 80 24 90 100 100 100 94 13 5 15 6 90 93 24 0 75 26 4 55 21 19 70 17 5 12 7 11 8 46 49 99 79 99 8 39 5 94 96
0 5 6 21 100 98 48 12 46 64 12 37 98 63 5 34 11 28 18 6 15 6 79 44 19 43 11 24 81 20 82 100 100 100 100 100 81 99 100 100 100 100 97
7 0 0 21 100 98 100 92 9 36 10 32 5 13 12 40 28 8 93 41 68 94 29 81 68 100 79 78 90 86 100 84 96 100 68 82 100 80 100 90 99 100 96
26 38 0 0 18 100 74 100 97 85 22 5 4 12 27 80 94 47 11 26 19 48 27 43 97 99 61 89 100 100 92 85 100 97 94 76 98 100 92 70 94 93 61
45 30 73 8 10 8 100 100 92 14 7 91 79 11 65 64 7 0 24 0 23 18 35 34 27 40 5 52 91 93 90 100 81 94 99 90 100 74 95 100 100 96 100
88 70 12 19 35 23 16 40 98 97 99 100 81 100 100 100 100 84 5 5 13 28 70 33 15 51 47 88 22 59 100 99 56 63 98 96 98 71 100 100 99 71 88
100 100 98 89 43 32 45 50 36 100 100 100 100 100 92 100 100 100 100 15 43 12 63 71 72 85 47 81 72 80 86 80 31 88 59 100 82 92 78 32 86 69 100
100 100 100 86 50 34 82 96 100 100 100 99 100 100 100 100 100 98 100 100 89 29 77 100 100 100 100 84 97 100 91 100 100 91 79 88 63 76 94 96 97 42 100
100 100 100 100 95 69 100 100 72 100 93 100 100 100 100 100 100 100 100 100 100 100 100 100 100 100 100 100 100 100 99 94 71 28 86 72 51 65 80 90 75 35 88
100 100 100 100 100 99 100 100 100 100 100 100 100 100 100 100 100 100 100 100 100 100 100 100 100 100 100 97 100 100 96 100 95 99 94 99 99 78 87 91 98 88 92
100 100 100 100 100 100 100 100 100 100 100 100 100 100 100 100 100 100 100 100 100 100 100 100 100 100 100 100 98 99 100 100 100 100 100 95 100 99 99 83 100 100 96
100 100 100 100 100 100 100 100 100 100 100 100 100 100 100 100 100 100 100 100 100 100 100 100 100 100 100 100 100 100 100 100 100 100 100 100 100 100 96 55 68 97 100
100 100 100 100 100 100 100 100 100 100 100 100 100 100 100 100 100 100 100 100 100 100 100 100 100 100 100 100 100 100 100 100 99 100 92 98 100 100 100 100 100 30 11
100 100 100 100 100 100 100 100 100 100 100 100 100 100 100 100 100 100 100 100 100 100 100 92 100 100 100 100 100 100 100 100 100 100 92 84 100 100 100 100 97 100 100
100 100 100 100 100 100 100 100 100 100 100 100 100 100 100 100 100 100 100 100 100 100 100 100 100 100 100 100 100 100 100 100 100 100 100 100 100 100 100 100 100 100 91
100 100 100 100 100 100 100 100 100 100 100 100 100 100 100 100 100 100 100 100 100 100 100 100 100 100 100 100 100 100 100 100 100 100 100 100 100 100 100 100 100 100 100
100 100 100 100 100 100 100 100 100 100 100 100 100 100 100 100 100 100 100 100 100 100 98 100 100 100 100 100 100 100 100 100 100 100 100 100 100 100 100 100 100 100 100
100 100 100 100 100 100 100 100 100 100 100 100 100 100 100 100 100 100 100 100 100 100 100 100 100 100 100 100 100 100 100 100 100 100 100 100 100 100 100 100 100 100 100
100 100 100 100 100 100 100 100 100 100 100 100 100 100 100 100 98 99 100 100 100 100 100 100 100 100 100 100 100 100 100 100 100 100 100 100 100 100 100 100 100 100 100
100 100 100 100 100 100 100 100 100 100 100 100 99 100 100 100 100 100 100 100 100 100 100 100 100 100 100 100 100 100 100 100 100 100 100 100 100 100 100 100 100 100 100
100 71 42 97 100 96 85 100 96 85 42 71 100 94 99 82 72 95 100 100 100 93 100 100 61 91 100 46 62 81 82 93 40 13 22 32 5 10 5 22 32 44 34
100 100 49 82 83 24 6 74 100 100 100 87 34 33 7 51 40 5 62 6 50 4 4 13 33 84 5 100 90 100 91 41 45 24 5 5 5 11 20 12 5 5 5
16 18 15 32 8 0 0 0 0 0 0 0 3 15 51 5 5 9 5 5 3 23 5 5 38 75 19 71 98 57 97 92 88 65 100 64 10 5 99 100 95 81 7
0 0 0 0 0 0 0 0 0 0 0 0 5 5 5 5 5 12 47 45 66 60 33 5 98 12 96 91 5 10 87 95 90 100 79 39 89 98 100 99 80 96 97
3 2 0 1 3 4 5 3 2 1 0 0 0 2 9 36 30 26 55 14 75 1 1 27 0 4 46 92 83 85 65 100 100 100 100 100 82 92 88 82 100 100 98

GFSGL_prec_cloud_126.txt.gz
Cloud_Cover
0 4 0 2 42 86 92 27 4 0 4 3 1 0 1 0 0 0 0 1 0 0 0 0 0 68 0 0 0 2 39 5 26 14 13 80 100 100 100 100 100 100 83
0 38 34 0 4 34 55 23 100 98 10 0 4 4 1 5 22 7 3 0 2 0 0 0 0 0 5 0 0 5 5 99 100 100 100 100 100 100 100 100 100 100 100
0 0 6 3 36 32 72 61 10 92 100 100 80 50 98 84 100 23 20 92 5 5 4 5 12 14 40 43 100 84 80 100 99 6 16 62 61 87 97 100 100 97 100
0 0 0 1 1 0 0 62 20 75 92 92 80 93 100 100 78 88 95 23 34 8 17 27 100 98 100 91 100 100 100 84 100 82 91 99 74 27 91 97 100 100 100
0 0 0 0 1 14 70 7 4 5 52 6 12 6 50 16 3 2 4 19 45 36 8 68 69 40 13 14 12 6 48 25 68 99 72 92 85 89 100 100 91 96 100
0 0 0 0 0 0 10 5 10 68 19 1 5 1 0 0 0 0 0 4 3 4 1 3 0 8 0 1 5 18 17 5 5 5 59 13 33 65 99 100 100 100 100
65 72 12 5 3 7 5 5 34 100 100 88 30 31 50 14 4 5 40 100 100 100 27 0 6 26 3 9 5 5 9 5 6 5 18 41 10 21 59 31 46 15 96
88 85 98 100 65 47 5 0 5 91 100 98 92 100 100 100 100 97 92 100 100 71 52 31 18 40 6 37 46 76 95 91 87 22 27 20 30 62 69 100 39 5 6
10 100 100 100 100 100 100 96 10 94 54 100 99 77 100 100 82 98 84 99 99 67 100 100 98 25 9 100 99 100 100 90 100 100 100 100 100 95 94 78 5 5 17
100 100 100 100 100 100 100 58 27 61 87 100 100 100 100 100 99 100 100 100 100 100 100 100 100 100 31 92 100 100 100 100 100 100 100 99 100 100 100 95 64 76 66
100 100 100 100 100 100 100 100 100 100 100 100 100 100 100 100 100 100 100 100 100 100 100 100 100 100 100 100 100 100 100 100 100 100 81 70 99 96 100 56 100 94 59
100 100 100 100 100 100 100 100 100 100 99 100 100 100 100 100 100 100 100 100 100 100 100 100 100 100 100 100 100 100 100 100 100 100 100 96 100 100 100 98 100 100 98
100 100 100 100 100 100 100 100 100 100 100 100 100 100 100 100 100 100 100 100 100 100 100 100 96 100 100 95 100 100 100 100 100 100 100 100 100 100 100 100 100 100 98
100 100 100 100 100 100 100 100 100 100 100 100 100 100 100 100 100 100 100 100 100 100 100 100 100 100 100 99 100 100 100 100 100 100 100 100 100 100 100 100 100 100 95
100 100 100 100 100 100 100 100 100 100 100 100 100 100 100 100 100 100 100 100 100 100 100 100 100 100 100 100 100 100 100 100 100 100 100 94 100 100 100 100 100 100 100
100 100 100 100 100 100 100 100 100 100 100 100 100 100 100 100 100 100 100 100 100 100 100 100 100 100 100 100 100 100 100 100 100 100 100 100 100 100 100 100 100 100 100
100 100 100 100 100 100 100 100 100 100 100 100 100 100 100 100 100 100 100 100 100 100 100 100 100 100 100 100 100 100 100 100 100 100 100 100 100 100 100 100 100 100 100
100 100 100 100 100 100 100 100 100 100 100 100 100 100 100 100 100 100 100 100 100 100 100 100 100 100 100 100 100 100 100 100 100 100 100 100 100 100 100 100 100 100 100
100 100 100 100 100 100 100 100 100 100 100 100 100 100 100 100 100 100 100 100 100 100 100 100 100 100 100 100 100 100 100 100 100 100 100 100 100 100 100 100 100 100 100
100 100 100 100 100 100 100 100 100 100 100 100 100 100 100 100 100 100 100 100 100 100 100 100 100 100 100 100 100 100 100 100 100 100 100 100 100 100 100 100 100 100 100
100 100 100 100 100 100 100 100 100 100 100 100 100 100 100 100 100 100 100 100 100 100 100 100 100 100 100 100 100 100 100 99 72 11 37 96 97 100 98 89 98 100 100
100 100 100 100 100 100 100 100 100 100 100 100 100 100 100 100 100 100 100 100 100 100 100 95 100 100 100 31 40 75 48 100 100 100 100 12 5 22 97 70 5 5 12
32 100 100 100 100 100 100 100 100 100 100 100 100 100 100 100 65 100 100 100 100 100 100 81 47 32 13 5 64 93 3 42 100 100 45 8 5 70 77 83 63 61 81
100 100 100 45 100 100 100 100 100 100 100 100 100 100 100 100 100 100 100 75 2 0 0 0 0 0 1 0 4 1 99 83 100 100 100 75 74 92 80 98 32 100 65
81 99 98 14 71 30 90 100 100 86 58 20 1 2 0 0 0 0 0 0 0 0 0 0 0 0 0 0 1 4 2 94 100 100 100 75 88 100 100 100 100 100 100
16 2 0 2 1 0 0 1 0 3 2 0 0 0 0 0 0 0 0 0 0 0 0 12 0 0 0 0 15 30 6 32 100 100 100 92 100 100 100 100 100 100 100

GFSGL_prec_cloud_129.txt.gz
Cloud_Cover
0 0 0 5 5 2 0 0 0 4 5 9 5 15 2 4 4 0 0 4 4 2 0 1 0 5 5 5 5 0 0 5 68 90 100 99 38 100 100 100 100 100 100
0 1 0 4 4 5 5 3 4 4 5 5 6 5 3 5 5 2 0 0 4 5 4 5 22 5 5 5 3 6 5 5 100 99 64 92 96 100 100 100 100 100 100
4 0 0 0 6 91 9 5 7 5 14 31 45 66 12 12 64 95 25 62 75 83 58 29 32 5 4 5 13 92 7 98 71 100 58 36 48 93 94 93 100 100 100
40 5 4 2 1 3 4 3 97 56 90 81 15 100 100 100 100 100 100 100 100 75 25 26 56 34 100 100 100 100 94 90 83 90 74 86 52 70 100 100 98 90 79
44 5 13 5 5 1 0 0 76 29 94 100 88 93 99 100 100 100 100 100 100 100 100 100 90 100 100 100 100 100 94 5 6 80 50 98 100 89 92 100 86 92 67
100 100 94 100 52 5 0 5 70 18 5 45 68 82 5 79 82 99 83 90 90 77 66 100 100 97 19 94 95 6 5 5 5 45 74 69 6 66 61 65 99 56 42
100 100 94 41 5 5 5 5 12 100 100 53 90 29 9 21 17 4 4 2 3 25 99 100 84 56 100 5 5 5 13 14 82 51 95 100 87 94 84 42 33 64 86
100 100 100 100 59 19 58 0 0 9 100 100 100 100 100 74 81 85 84 74 73 15 74 48 64 52 25 58 11 44 76 100 100 100 100 100 95 100 78 99 92 100 100
100 100 100 100 100 100 100 91 43 15 100 100 100 100 100 100 100 100 92 93 86 70 90 78 98 89 99 93 61 75 83 51 100 100 100 100 100 100 100 100 100 100 100
100 100 100 100 100 100 100 100 100 100 100 100 100 100 96 100 100 100 100 100 100 100 100 100 100 100 100 100 100 60 70 91 99 100 100 100 100 100 100 100 100 100 100
100 100 100 100 100 100 100 100 100 100 100 100 100 100 100 100 100 100 100 100 100 100 100 100 100 100 100 100 100 100 100 100 100 100 100 100 94 100 100 99 100 99 98
100 100 100 100 100 100 100 100 100 100 100 100 100 100 91 100 100 100 100 100 100 100 100 100 100 100 100 100 100 100 100 100 100 100 100 100 100 100 100 100 100 100 100
100 100 100 100 100 100 100 100 100 100 100 100 100 100 100 100 100 100 100 100 100 100 100 100 100 100 100 100 100 100 99 95 99 100 100 100 100 100 100 100 100 100 100
100 100 100 100 100 100 100 100 100 100 100 100 84 100 100 100 93 100 100 100 100 100 100 100 100 100 90 100 98 71 100 100 63 100 99 98 95 99 100 100 100 100 100
100 100 100 100 100 100 100 100 100 100 100 100 99 97 100 100 100 100 100 100 100 100 100 93 91 90 100 100 100 100 100 97 100 98 100 99 99 100 100 100 100 100 100
100 100 100 100 100 100 100 100 100 100 100 100 100 100 100 100 100 100 100 100 100 100 100 100 100 100 100 100 100 100 100 100 100 99 96 93 100 100 100 100 100 100 100
100 100 100 100 100 100 100 100 100 100 100 100 100 100 100 100 100 100 100 100 100 100 100 100 100 100 100 100 100 100 100 100 100 100 100 100 100 100 100 100 100 100 100
100 100 100 100 100 100 100 100 100 100 100 100 100 100 100 100 100 100 100 100 100 100 100 100 100 100 100 100 100 100 100 100 100 100 100 95 96 100 100 100 100 100 100
100 100 100 100 100 100 100 100 100 100 100 100 100 100 100 100 100 100 100 100 100 100 100 100 100 100 100 100 100 100 100 100 100 100 100 100 100 100 100 100 100 100 100
100 100 100 100 100 100 100 100 100 100 100 100 100 100 100 100 100 100 100 100 100 100 100 100 100 100 100 100 100 100 100 100 100 100 100 100 100 100 100 100 100 100 100
100 100 100 100 100 100 100 100 100 100 100 100 100 100 99 87 100 100 100 100 100 100 100 100 100 100 100 100 100 100 77 89 100 100 100 97 99 100 100 41 94 100 99
100 100 100 100 100 100 100 100 100 100 100 100 100 100 100 100 100 100 100 100 100 100 100 100 100 98 64 79 46 88 97 74 78 43 29 95 100 100 100 100 93 5 27
100 100 100 98 100 100 100 100 100 100 100 100 100 100 100 100 100 100 100 100 100 77 58 36 9 2 1 21 54 46 73 82 20 5 5 40 98 100 100 100 100 94 62
96 75 83 100 94 65 100 100 97 98 100 100 100 100 100 100 100 100 100 100 100 100 100 100 72 17 1 3 0 0 3 0 0 1 10 69 100 100 100 100 100 100 96
5 37 92 98 100 100 17 58 86 92 98 100 100 100 100 100 98 99 97 92 95 16 5 1 9 30 0 0 0 0 0 91 100 85 47 58 100 100 100 100 100 100 92
6 43 67 70 6 37 94 100 100 61 89 89 37 3 2 5 4 5 2 3 1 0 0 0 0 0 0 0 0 0 0 36 84 95 97 100 93 93 100 100 100 100 100